     2              OBSERVATION DATA    GPS                 RINEX VERSION / TYPE
teqc 2000Feb29 20030805 02:53:30UTC                         PGM / RUN BY / DATE
                                                            COMMENT
L2: 1 -> 1; 150 -> 5; 250 -> 9                              COMMENT
L2: 1 -> 1; 150 -> 5; 250 -> 9                              COMMENT
L2: 1 -> 1; 150 -> 5; 250 -> 9                              COMMENT
L2: 1 -> 1; 150 -> 5; 250 -> 9                              COMMENT
L2: 1 -> 1; 150 -> 5; 250 -> 9                              COMMENT
Original Marker Name: DOSP                                  COMMENT
Campaign Name: USC/SCEC 2003                                COMMENT
4-Character Station Name: DOSP                              COMMENT
6-Character Antenna Code: DMRCHT                            COMMENT
Vertical Measurement Point: BCR                             COMMENT
Vertical Offset to Rinex Ref. Point: 0.0348                 COMMENT
Radial Measurement Point: ECF                               COMMENT
Radial Offset to Rinex Ref. Point: 0.1897                   COMMENT
Antenna Height from Field Measurement: 0.5740 m             COMMENT
Additional Antenna Identification Info.:                    COMMENT
Turborogue and Ashtech Choke Ring                           COMMENT
Original XYZ: 0.0000 0.0000 0.0000                          COMMENT
New XYZ position is based on association with SCEC monument COMMENT
E1E9E9K9+0011. Position of that monument is believed to be  COMMENT
valid to within 1 m horizontally; vertical accuracy         COMMENT
should be no worse than 3-times this value.                 COMMENT
                                                            COMMENT
Revised Rinex header created by UCSD GPS archive for        COMMENT
GSAC on 09-Nov-2004 (2004:314) 22:44:32 GMT                 COMMENT
For assistance contact dagnew@ucsd.edu                      COMMENT
or anderson@python.ucsd.edu                                 COMMENT
                                                            COMMENT
DOSP 1992                                                   MARKER NAME
KEA UNIV SOUTHERN CALIFORNIA                                OBSERVER / AGENCY
192 ASHTECH Z-XII3 CD00                                     REC # / TYPE / VERS
364 DORNE-MARGOL. TYPE T                                    ANT # / TYPE
 -2625479.0000 -4559263.0000  3595270.0000                  APPROX POSITION XYZ
        0.5069        0.0000        0.0000                  ANTENNA: DELTA H/E/N
     1     1     0                                          WAVELENGTH FACT L1/2
     7    C1    L1    L2    P1    P2    S1    S2            # / TYPES OF OBSERV
     0                                                      INTERVAL
  2003     3    20    21    40   30.000000                  TIME OF FIRST OBS
  2003     3    20    23    59   30.000000                  TIME OF LAST OBS
                                                            END OF HEADER
 03  3 20 21 40 30.0000000  0  2G30G10
  22408120.519      105402.58349     74807.81146  22408120.891    22408129.727
       232.000         187.000
  23003863.415      110726.81149     80570.88846  23003862.138    23003871.310
       224.000         176.000
 03  3 20 21 41  0.0000000  0  3G30G 5G10
  22416227.602      148004.52049    108004.06546  22416227.758    22416236.073
       232.000         187.000
                    145368.91959    105742.77043
       207.000          74.000
  23011901.742      152965.99849    113484.49146  23011900.473    23011909.782
       225.000         177.000
 03  3 20 21 41 30.0000000  0  4G30G 5G10G15
  22042417.133    -1816382.82149  -1422687.46246  22042417.802    22042425.897
       232.000         187.000
                  -1802372.44849  -1411978.23744                  24529839.196
       205.000         131.000
  22638026.551    -1811761.47149  -1417472.02146  22638025.071    22638034.232
       225.000         177.000
  23676222.087    -2318904.43659  -1782300.77845  23676221.613    23676231.801
       215.000         151.000
 03  3 20 21 42  0.0000000  0  4G30G 5G10G15
  22059699.497    -1725563.67449  -1351919.40246  22059700.057    22059708.503
       232.000         187.000
  24550214.644    -1695221.06049  -1328484.02245  24550215.859    24550231.198
       204.000         137.000
  22655248.372    -1721259.79649  -1346951.27746  22655247.399    22655256.427
       225.000         177.000
  23661943.534    -2393944.61449  -1840773.59545  23661942.078    23661952.144
       214.000         155.000
 03  3 20 21 42 30.0000000  0  5G30G 5G18G10G15
  22077032.879    -1634476.27949  -1280942.30346  22077033.398    22077041.923
       231.000         187.000
  24570597.160    -1588113.93449  -1245024.33245  24570597.549    24570614.366
       205.000         137.000
  23590742.890     -750375.39459   -557244.07045  23590741.519    23590751.051
       216.000         156.000
  22672525.675    -1630467.14449  -1276203.80146  22672524.078    22672533.342
       226.000         177.000
  23647687.792    -2468858.69449  -1899148.14745  23647686.737    23647696.507
       215.000         156.000
 03  3 20 21 43  0.0000000  0  2G 5G15
  24590967.159    -1481070.72149  -1161614.43845  24590966.588    24590983.934
       205.000         138.000
  23633452.569    -2543663.59849  -1957437.63145  23633451.512    23633461.511
       215.000         157.000
 03  3 20 21 43 30.0000000  0  3G 5G10G15
  24611330.213    -1374062.67849  -1078231.96145  24611330.980    24611346.043
       203.000         138.000
                   -199202.72159   -165005.43746                  22707248.592
       225.000         163.000
  23619244.119    -2618328.38749  -2015617.91045  23619243.178    23619254.059
       217.000         157.000
 03  3 20 21 44  0.0000000  0  6G23G 5G26G10G15G29
  22172280.181     -532843.77959   -385179.56946  22172280.190    22172289.533
       230.000         185.000
  24631689.002    -1267077.84749   -994867.56745  24631690.126    24631704.740
       205.000         139.000
  23033683.569     -554715.36459   -410906.25045  23033683.693    23033695.669
       217.000         162.000
  22724685.219     -107528.90849    -93571.34246  22724684.788    22724693.578
       225.000         174.000
  23605065.318    -2692838.41649  -2073677.61745  23605064.374    23605073.704
       216.000         157.000
  23310075.490     -457135.91749   -338062.49545  23310075.101    23310085.505
       218.000         162.000
 03  3 20 21 44 30.0000000  0  6G23G 5G26G10G15G29
  22156348.579     -616566.64649   -450418.06646  22156347.870    22156357.107
       230.000         186.000
  24652040.962    -1160129.32749   -911531.45345  24652040.937    24652057.555
       207.000         139.000
  23019152.510     -631075.41449   -470407.38746  23019152.422    23019164.318
       218.000         163.000
  22742186.896      -15557.63849    -21905.45346  22742186.732    22742195.165
       224.000         176.000
  23590913.747    -2767204.38349  -2131625.07445  23590912.641    23590922.279
       214.000         157.000
  23302226.751     -498382.70349   -370202.74446  23302226.234    23302235.781
       219.000         163.000
 03  3 20 21 45  0.0000000  0  6G23G 5G26G10G15G29
  22140485.434     -699927.49949   -515374.48146  22140484.621    22140494.498
       231.000         187.000
  24672387.211    -1053210.98649   -828218.87245  24672388.541    24672403.362
       207.000         139.000
  23004680.223     -707127.08149   -529668.24046  23004679.642    23004692.117
       218.000         164.000
  22759745.837       76716.87749     49996.71546  22759744.946    22759754.689
       225.000         176.000
  23576791.284    -2841417.47049  -2189453.39845  23576790.138    23576800.765
       215.000         157.000
  23294457.056     -539210.95349   -402016.86646  23294456.993    23294466.496
       218.000         163.000
 03  3 20 21 45 30.0000000  0  6G23G 5G26G10G15G29
  22124687.858     -782944.10849   -580062.64846  22124687.717    22124696.805
       231.000         187.000
  24692723.558     -946344.75349   -744946.89245  24692723.763    24692740.014
       207.000         138.000
  22990263.468     -782886.37749   -588701.27246  22990263.672    22990275.197
       218.000         164.000
  22777358.855      169272.38349    122117.85246  22777358.443    22777367.110
       225.000         175.000
  23562694.373    -2915497.24049  -2247177.83945  23562693.507    23562704.353
       214.000         157.000
  23286763.846     -579638.16649   -433518.47446  23286763.539    23286773.471
       218.000         163.000
 03  3 20 21 46  0.0000000  0  6G23G 5G26G10G15G29
  22108955.492     -865618.20549   -644483.92847  22108955.359    22108964.828
       231.000         188.000
  24713048.826     -839536.86749   -661720.38445  24713049.212    24713065.188
       207.000         139.000
  22975902.440     -858353.74549   -647506.82146  22975903.163    22975913.476
       219.000         164.000
  22795023.823      262101.97149    194452.55746  22795022.904    22795031.999
       224.000         174.000
  23548622.174    -2989447.38049  -2304801.25645  23548621.069    23548631.774
       216.000         157.000
  23279146.756     -619665.75949   -464708.69646  23279146.892    23279156.888
       218.000         163.000
 03  3 20 21 46 30.0000000  0  6G23G 5G26G10G15G29
  22093288.438     -947949.50849   -708638.08847  22093288.115    22093297.289
       232.000         188.000
  24733361.958     -732792.13659   -578543.31345  24733361.530    24733379.255
       205.000         134.000
  22961597.481     -933527.06249   -706083.23246  22961597.577    22961608.470
       220.000         164.000
  22812740.048      355201.20649    266997.39546  22812738.840    22812748.348
       224.000         173.000
  23534574.356    -3063269.12449  -2362324.64445  23534573.484    23534583.677
       216.000         158.000
  23271605.942     -659292.87349   -495586.86546  23271606.092    23271615.635
       219.000         163.000
 03  3 20 21 47  0.0000000  0  8G23G 6G 5G30G26G10G15G29
  22077687.457    -1029933.18749   -772521.38247  22077686.646    22077695.699
       231.000         188.000
  20322625.621    -1646354.50459  -1273860.49948  20322625.569    20322632.696
       245.000         215.000
  24753663.714     -626108.05649   -495413.30345  24753663.445    24753678.612
       203.000         132.000
                  -1441281.96059  -1131644.74646                  22235330.762
       232.000         172.000
  22947349.595    -1008399.97549   -764425.57146  22947348.741    22947360.563
       217.000         165.000
  22830507.706      448570.57849    339752.71646  22830506.399    22830515.782
       223.000         173.000
  23520551.431    -3136959.70949  -2419745.83645  23520551.951    23520560.497
       216.000         158.000
  23264142.375     -698514.30349   -526148.90646  23264142.279    23264151.710
       218.000         163.000
 03  3 20 21 47 30.0000000  0  8G23G 6G 5G30G26G10G15G29
  22062153.882    -1111561.99449   -836128.15347  22062153.439    22062162.270
       231.000         188.000
  20321048.420    -1654642.70649  -1280318.84848  20321048.481    20321055.575
       245.000         215.000
  24773954.198     -519483.04049   -412329.28645  24773955.108    24773972.607
       207.000         137.000
  22253152.887    -1347579.61649  -1058630.03846  22253153.612    22253161.345
       231.000         183.000
  22933160.422    -1082963.67749   -822526.97246  22933160.104    22933171.824
       217.000         165.000
  22848327.099      542212.28949    412720.24646  22848326.393    22848335.354
       223.000         172.000
  23506554.478    -3210513.87249  -2477060.70545  23506553.741    23506563.340
       215.000         158.000
  23256757.443     -737322.64249   -556389.04546  23256757.852    23256767.113
       218.000         163.000
 03  3 20 21 48  0.0000000  0  8G23G 6G 5G30G26G10G15G29
  22046688.903    -1192830.67049   -899454.29347  22046687.716    22046697.608
       232.000         188.000
  20319546.788    -1662533.54549  -1286467.56148  20319546.880    20319553.994
       245.000         215.000
  24794233.575     -412915.49749   -329290.07645  24794234.928    24794250.261
       200.000         134.000
  22271031.715    -1253628.29949   -985421.33146  22271031.316    22271040.323
       229.000         184.000
  22919031.537    -1157211.33549   -880382.10746  22919032.204    22919042.363
       215.000         165.000
  22866198.397      636127.17949    485900.64446  22866196.452    22866206.514
       223.000         171.000
  23492584.078    -3283927.94249  -2534266.42845  23492583.623    23492593.525
       215.000         157.000
  23249452.161     -775712.04149   -586302.74246  23249451.460    23249461.307
       219.000         164.000
 03  3 20 21 48 30.0000000  0  8G23G 6G 5G30G26G10G15G29
  22031291.302    -1273744.89849   -962504.23947  22031290.495    22031299.881
       231.000         188.000
  20318119.581    -1670033.29449  -1292311.52848  20318119.598    20318126.779
       245.000         215.000
  24814500.235     -306415.79349   -246303.74245  24814501.438    24814518.774
       207.000         139.000
  22288954.722    -1159438.38149   -912026.67546  22288955.187    22288964.551
       230.000         185.000
  22904961.882    -1231147.05049   -937994.16346  22904961.595    22904973.736
       216.000         165.000
  22884119.676      730304.59349    559285.60546  22884119.604    22884128.489
       222.000         170.000
  23478638.890    -3357209.66749  -2591369.01145  23478638.447    23478648.286
       215.000         157.000
  23242225.493     -813688.02749   -615894.30646  23242224.753    23242234.885
       217.000         163.000
 03  3 20 21 49  0.0000000  0  7G23G 6G30G26G10G15G29
  22015961.962    -1354300.76349  -1025274.94747  22015961.357    22015970.707
       231.000         189.000
  20316767.496    -1677138.49349  -1297848.05448  20316767.445    20316774.729
       245.000         215.000
  22306923.618    -1065010.83749   -838446.87246  22306924.268    22306933.305
       230.000         185.000
  22890952.670    -1304765.24549   -995358.79646  22890951.724    22890963.606
       216.000         166.000
  22902090.788      824743.91249    632874.67146  22902089.763    22902098.938
       222.000         171.000
  23464719.323    -3430357.08149  -2648366.94245  23464719.263    23464728.580
       217.000         158.000
  23235078.269     -851246.17649   -645160.27746  23235077.940    23235087.614
       218.000         164.000
 03  3 20 21 49 30.0000000  0  7G23G 6G30G26G10G15G29
  22000700.424    -1434499.91049  -1087767.69347  22000699.643    22000708.981
       231.000         189.000
  20315490.127    -1683851.17649  -1303078.72248  20315490.239    20315497.326
       244.000         215.000
  22324936.713     -970352.04349   -764686.87146  22324937.387    22324946.028
       230.000         184.000
  22877003.765    -1378065.79049  -1052475.91346  22877003.070    22877015.111
       216.000         165.000
  22920110.699      919439.12149    706663.11346  22920110.228    22920119.280
       222.000         171.000
  23450824.935    -3503373.19149  -2705262.56045  23450823.553    23450833.685
       218.000         159.000
  23228010.210     -888387.97949   -674101.83146  23228008.834    23228019.732
       217.000         164.000
 03  3 20 21 50  0.0000000  0  7G23G 6G30G26G10G15G29
  21985507.272    -1514339.74049  -1149980.45547  21985506.401    21985515.894
       230.000         189.000
  20314287.842    -1690169.22549  -1308001.88648  20314287.951    20314295.101
       245.000         215.000
  22342993.387     -875464.13449   -690748.33746  22342994.337    22343002.810
       229.000         184.000
  22863116.176    -1451044.52649  -1109342.25946  22863115.844    22863127.849
       217.000         165.000
  22938179.045     1014388.16749    780649.36446  22938178.569    22938188.326
       222.000         170.000
  23436955.539    -3576257.24349  -2762055.27445  23436954.824    23436964.282
       218.000         160.000
  23221021.953     -925110.23849   -702716.46246  23221021.661    23221031.981
       217.000         164.000
 03  3 20 21 50 30.0000000  0  7G23G 6G30G26G10G15G29
  21970383.336    -1593816.20549  -1211910.08447  21970382.890    21970391.809
       231.000         190.000
  20313161.329    -1696089.15949  -1312614.83848  20313161.391    20313168.721
       245.000         215.000
  22361093.430     -780347.92649   -616631.92046  22361094.337    22361102.977
       229.000         184.000
  22849291.107    -1523695.77349  -1165953.43746  22849290.675    22849302.058
       218.000         166.000
  22956295.538     1109590.43849    854832.92346  22956294.248    22956304.319
       222.000         170.000
  23423111.705    -3649006.93549  -2818743.28845  23423110.798    23423121.743
       218.000         160.000
  23214114.529     -961408.57849   -731000.76146  23214114.203    23214123.869
       218.000         164.000
 03  3 20 21 51  0.0000000  0  7G23G 6G30G26G10G15G29
  21955329.009    -1672926.79849  -1273554.60747  21955328.752    21955337.423
       232.000         190.000
  20312110.988    -1701608.93849  -1316915.97348  20312111.128    20312118.287
       245.000         215.000
  22379236.599     -685005.35249   -542339.09746  22379237.326    22379246.304
       229.000         183.000
  22835528.967    -1596015.26749  -1222306.10346  22835528.852    22835539.604
       219.000         166.000
  22974459.795     1205043.87749    929212.19546  22974458.883    22974468.258
       221.000         169.000
  23409293.419    -3721621.42149  -2875325.95345  23409292.944    23409302.870
       217.000         161.000
  23207288.334     -997280.05949   -758952.45546  23207288.259    23207297.630
       219.000         165.000
 03  3 20 21 51 30.0000000  0  7G23G 6G30G26G10G15G29
  21940344.812    -1751669.23049  -1334912.23847  21940344.196    21940353.667
       233.000         191.000
  20311137.126    -1706726.90649  -1320904.00148  20311137.312    20311144.342
       245.000         215.000
  22397422.245     -589439.23149   -467872.07846  22397423.217    22397431.789
       228.000         183.000
  22821830.743    -1667999.31849  -1278397.37946  22821830.436    22821841.801
       219.000         166.000
  22992671.295     1300746.10449   1003785.32846  22992670.346    22992680.665
       220.000         168.000
  23395501.018    -3794100.40649  -2931803.02345  23395500.422    23395510.370
       217.000         160.000
  23200543.752    -1032722.37149   -786569.72146  23200543.948    23200552.988
       219.000         165.000
 03  3 20 21 52  0.0000000  0  8G23G 6G30G18G26G10G15G29
  21925430.788    -1830042.64649  -1395982.31247  21925430.091    21925439.351
       233.000         191.000
  20310239.794    -1711442.62249  -1324578.59248  20310239.884    20310246.963
       245.000         215.000
  22415649.787     -493653.32349   -393233.81846  22415650.358    22415659.316
       229.000         183.000
                  -1143273.53749   -865965.49843
       221.000          74.000
  22808196.793    -1739645.29149  -1334225.20846  22808196.444    22808208.334
       217.000         166.000
  23010929.442     1396693.57749   1078549.55446  23010928.995    23010938.581
       219.000         168.000
  23381734.442    -3866444.76849  -2988175.20145  23381733.832    23381743.552
       217.000         159.000
  23193881.286    -1067734.12749   -813851.48646  23193881.390    23193891.287
       219.000         166.000
 03  3 20 21 52 30.0000000  0  9G23G 6G17G30G18G26G10G15G29
  21910587.344    -1908044.94149  -1456763.22947  21910586.826    21910596.201
       232.000         192.000
  20309419.280    -1715754.34749  -1327938.37648  20309419.292    20309426.360
       245.000         215.000
  21391710.104    -1198349.71959   -917359.26547  21391710.057    21391718.439
       240.000         206.000
  22433918.724     -397650.07849   -318426.20346  22433919.890    22433928.354
       229.000         182.000
  23198301.469    -1244496.14149   -944840.30745  23198300.721    23198310.466
       219.000         156.000
  22794627.856    -1810949.19549  -1389786.48746  22794627.058    22794639.493
       217.000         166.000
  23029233.831     1492884.02949   1153503.11346  23029232.824    23029242.937
       219.000         167.000
  23367993.469    -3938653.83849  -3044441.94045  23367992.905    23368001.948
       218.000         159.000
  23187301.185    -1102312.72349   -840795.72146  23187300.976    23187310.822
       216.000         166.000
 03  3 20 21 53  0.0000000  0  9G23G 6G17G30G18G26G10G15G29
  21895814.734    -1985675.20549  -1517254.24247  21895814.103    21895823.499
       233.000         192.000
  20308675.727    -1719661.64949  -1330983.03248  20308675.806    20308682.842
       245.000         215.000
  21385562.281    -1230660.22849   -942536.26847  21385561.464    21385570.069
       240.000         206.000
  22452228.328     -301433.29449   -243452.17846  22452229.535    22452238.610
       228.000         182.000
  23179079.523    -1345504.97349  -1023548.39445  23179080.007    23179089.122
       220.000         162.000
  22781124.562    -1881908.62549  -1445079.34946  22781124.436    22781135.694
       219.000         167.000
  23047583.863     1589313.62249   1228643.01846  23047583.210    23047593.470
       219.000         166.000
  23354278.089    -4010728.23549  -3100603.75145  23354277.370    23354286.565
       218.000         159.000
  23180803.636    -1136456.89449   -867401.44546  23180803.364    23180812.453
       218.000         166.000
 03  3 20 21 53 30.0000000  0 10G23G16G 6G17G30G18G26G10G15G29
  21881113.145    -2062932.14349  -1577454.35347  21881112.731    21881121.443
       233.000         193.000
  24459425.021    -1250814.43459   -958232.68945  24459425.062    24459432.741
       205.000         140.000
  20308009.298    -1723163.83549  -1333712.00548  20308009.308    20308016.486
       245.000         215.000
  21379448.889    -1262785.55649   -967568.96447  21379448.396    21379456.592
       240.000         206.000
  22470577.876     -205006.43449   -168314.45446  22470578.512    22470587.322
       228.000         182.000
  23159899.179    -1446298.44449  -1102088.66746  23159899.585    23159908.418
       220.000         164.000
  22767687.406    -1952520.46849  -1500101.36246  22767687.438    22767698.755
       220.000         168.000
  23065978.730     1685979.36649   1303966.94646  23065977.036    23065987.085
       218.000         166.000
  23340588.191    -4082668.55849  -3156661.09245  23340587.767    23340597.359
       219.000         159.000
  23174389.095    -1170165.24349   -893667.56846  23174388.645    23174398.388
       220.000         167.000
 03  3 20 21 54  0.0000000  0 10G23G16G 6G17G30G18G26G10G15G29
  21866482.851    -2139814.59549  -1637362.65847  21866482.349    21866491.062
       233.000         193.000
  24444699.425    -1328188.09649  -1018523.82845  24444700.306    24444708.339
       206.000         141.000
  20307420.144    -1726260.06349  -1336124.64748  20307420.126    20307427.275
       245.000         215.000
  21373370.652    -1294726.49349   -992457.98047  21373369.924    21373378.005
       240.000         206.000
  22488966.641     -108372.88349    -93015.68646  22488967.002    22488976.260
       228.000         181.000
  23140760.535    -1546875.11749  -1180460.00546  23140760.025    23140768.529
       220.000         164.000
  22754317.037    -2022781.75849  -1554850.21046  22754316.664    22754327.614
       219.000         167.000
  23084417.888     1782877.86249   1379472.24346  23084416.911    23084427.110
       219.000         166.000
  23326923.756    -4154475.41149  -3212614.42945  23326923.467    23326932.368
       218.000         160.000
  23168057.778    -1203436.02849   -919592.73346  23168057.298    23168067.329
       216.000         168.000
 03  3 20 21 54 30.0000000  0 10G23G16G 6G17G30G18G26G10G15G29
  21851923.989    -2216321.37549  -1696978.23647  21851923.678    21851932.456
       234.000         194.000
  24430047.179    -1405190.06349  -1078525.29945  24430047.050    24430056.544
       205.000         140.000
  20306908.300    -1728949.83249  -1338220.57448  20306908.410    20306915.787
       245.000         215.000
  21367327.419    -1326483.79249  -1017203.91047  21367326.887    21367334.952
       239.000         206.000
  22507394.177      -11536.17449    -17558.62146  22507395.664    22507403.666
       227.000         181.000
  23121663.048    -1647233.44749  -1258661.20046  23121663.096    23121672.000
       221.000         165.000
  22741013.776    -2092689.91249  -1609323.89146  22741013.734    22741024.393
       219.000         167.000
  23102900.755     1880005.82049   1455156.33246  23102900.015    23102909.530
       220.000         166.000
  23313284.690    -4226149.28749  -3268464.13745  23313283.839    23313294.195
       219.000         160.000
  23161809.941    -1236267.93149   -945175.91146  23161809.833    23161819.544
       218.000         167.000
 03  3 20 21 55  0.0000000  0 10G23G16G 6G17G30G18G26G10G15G29
  21837437.351    -2292448.78949  -1756298.20547  21837436.687    21837445.549
       234.000         194.000
  24415466.121    -1481815.98949  -1138233.76445  24415466.075    24415475.380
       205.000         140.000
  20306474.459    -1731229.70649  -1339997.09048  20306474.670    20306481.755
       245.000         215.000
  21361319.348    -1358055.99249  -1041805.58847  21361318.807    21361327.160
       239.000         206.000
  22525860.143       85502.72349     58056.00246  22525861.021    22525869.448
       227.000         180.000
  23102607.875    -1747369.40049  -1336689.11646  23102607.688    23102616.203
       221.000         165.000
  22727778.752    -2162239.49449  -1663518.16946  22727777.837    22727789.507
       219.000         167.000
  23121427.153     1977362.43649   1531018.59446  23121426.619    23121435.645
       220.000         166.000
  23299671.310    -4297688.17449  -3324208.66645  23299670.204    23299680.322
       219.000         161.000
  23155646.371    -1268656.84949   -970413.91346  23155645.950    23155656.205
       218.000         167.000
 03  3 20 21 55 30.0000000  0 10G23G16G 6G17G30G18G26G10G15G29
  21823023.486    -2368193.92949  -1815320.29347  21823022.936    21823032.304
       234.000         194.000
  24400956.958    -1558062.41649  -1197646.51245  24400956.659    24400964.308
       205.000         140.000
  20306119.076    -1733097.33149  -1341452.37748  20306119.116    20306126.222
       245.000         215.000
  21355346.757    -1389442.10049  -1066262.26947  21355346.281    21355354.496
       239.000         206.000
  22544364.293      182741.99649    133826.76946  22544364.961    22544373.893
       227.000         179.000
  23083595.540    -1847279.80249  -1414541.27046  23083594.940    23083604.813
       220.000         166.000
  22714612.810    -2231425.86349  -1717429.41346  22714612.361    22714623.394
       219.000         167.000
  23139996.818     2074946.26049   1607057.90646  23139996.334    23140005.272
       219.000         167.000
  23286083.748    -4369090.87949  -3379847.06945  23286083.160    23286093.155
       219.000         162.000
  23149567.893    -1300599.58149   -995304.22446  23149567.868    23149576.720
       219.000         168.000
 03  3 20 21 56  0.0000000  0 10G23G16G 6G17G30G18G26G10G15G29
  21808682.732    -2443554.59749  -1874042.81047  21808682.064    21808691.366
       234.000         195.000
  24386520.427    -1633926.45949  -1256761.28645  24386520.633    24386529.023
       205.000         141.000
  20305842.431    -1734551.00649  -1342585.10348  20305842.558    20305849.668
       245.000         215.000
  21349409.627    -1420641.96449  -1090573.83147  21349409.282    21349417.440
       239.000         206.000
  22562906.072      280179.25949    209751.81046  22562906.615    22562915.859
       227.000         179.000
  23064626.618    -1946961.78149  -1492215.42846  23064626.232    23064635.484
       221.000         166.000
  22701516.895    -2300245.23449  -1771054.67346  22701517.127    22701527.282
       220.000         167.000
  23158609.311     2172755.15349   1683272.58846  23158609.428    23158618.587
       219.000         167.000
  23272522.258    -4440356.80949  -3435378.89045  23272521.958    23272530.627
       219.000         162.000
  23143574.661    -1332093.79249  -1019845.05046  23143574.567    23143584.179
       218.000         168.000
 03  3 20 21 56 30.0000000  0 10G23G16G 6G17G30G18G26G10G15G29
  21794415.414    -2518529.72849  -1932464.90947  21794415.090    21794423.962
       235.000         196.000
  24372157.059    -1709406.32049  -1315576.69445  24372157.307    24372165.825
       205.000         142.000
  20305644.722    -1735590.05049  -1343394.74648  20305644.875    20305651.829
       246.000         215.000
  21343507.769    -1451656.43549  -1114740.92647  21343507.477    21343515.696
       239.000         206.000
  22581484.788      377810.92949    285828.34046  22581485.473    22581494.385
       226.000         178.000
  23045701.453    -2046413.77349  -1569710.37946  23045700.753    23045710.477
       221.000         166.000
  22688491.404    -2368694.47349  -1824391.53046  22688491.804    22688503.234
       220.000         167.000
  23177263.963     2270785.58449   1759659.91246  23177263.115    23177271.990
       220.000         167.000
  23258986.773    -4511486.38249  -3490804.46445  23258986.599    23258995.975
       218.000         162.000
  23137667.081    -1363137.85449  -1044035.11746  23137667.276    23137676.168
       219.000         167.000
 03  3 20 21 57  0.0000000  0 10G23G16G 6G17G30G18G26G10G15G29
  21780221.635    -2593118.47249  -1990585.93047  21780221.237    21780229.854
       234.000         196.000
  24357867.087    -1784500.52549  -1374091.58645  24357867.249    24357875.903
       206.000         143.000
  20305526.081    -1736213.91649  -1343880.86748  20305526.097    20305533.178
       245.000         215.000
  21337641.039    -1482486.32149  -1138764.19047  21337640.779    21337648.870
       239.000         207.000
  22600099.824      475633.52849    362053.65246  22600099.946    22600109.062
       226.000         177.000
  23026820.270    -2145634.48249  -1647025.09746  23026819.884    23026828.881
       221.000         166.000
  22675536.701    -2436771.20249  -1877438.13646  22675536.603    22675546.636
       219.000         168.000
  23195960.143     2369034.32749   1836217.34346  23195959.461    23195969.172
       219.000         167.000
  23245477.045    -4582480.34549  -3546124.36845  23245476.242    23245486.489
       218.000         162.000
  23131845.310    -1393730.81749  -1067873.66746  23131845.187    23131854.112
       220.000         168.000
 03  3 20 21 57 30.0000000  0 10G23G16G 6G17G30G18G26G10G15G29
  21766101.667    -2667319.26349  -2048404.63147  21766101.611    21766110.286
       234.000         196.000
  24343651.048    -1859206.51249  -1432303.98145  24343651.031    24343659.305
       207.000         144.000
  20305486.557    -1736421.71349  -1344042.78048  20305486.674    20305493.664
       245.000         215.000
  21331809.271    -1513132.54149  -1162644.33847  21331808.916    21331817.336
       239.000         207.000
  22618750.701      573643.98549    438425.33146  22618751.534    22618760.236
       225.000         177.000
  23007983.518    -2244621.92949  -1724158.06146  23007983.145    23007992.024
       222.000         166.000
  22662653.391    -2504472.04049  -1930191.82646  22662653.651    22662664.271
       219.000         168.000
  23214697.296     2467498.69149   1912942.78146  23214696.550    23214705.948
       219.000         167.000
  23231993.206    -4653338.63749  -3601338.54745  23231992.836    23232002.668
       220.000         162.000
  23126109.837    -1423870.49749  -1091359.01746  23126109.078    23126119.029
       219.000         168.000
 03  3 20 21 58  0.0000000  0 10G23G16G 6G17G30G18G26G10G15G29
  21752055.660    -2741130.95149  -2105920.12847  21752055.285    21752064.037
       235.000         197.000
  24329509.142    -1933522.65949  -1490212.60445  24329508.412    24329517.758
       208.000         145.000
  20305526.314    -1736212.69649  -1343879.90448  20305526.277    20305533.435
       245.000         215.000
  21326012.327    -1543595.69449  -1186381.83747  21326011.889    21326020.026
       239.000         207.000
  22637436.611      671838.74149    514940.62346  22637437.118    22637445.599
       225.000         176.000
  22989191.483    -2343374.39749  -1801107.93246  22989190.894    22989199.802
       221.000         167.000
  22649842.240    -2571794.28549  -1982650.51546  22649841.781    22649852.689
       220.000         168.000
  23233474.857     2566175.14149   1989833.48846  23233473.481    23233483.412
       219.000         166.000
  23218534.952    -4724061.85649  -3656447.47346  23218534.073    23218544.267
       219.000         163.000
  23120460.846    -1453555.63549  -1114490.19446  23120460.958    23120469.775
       219.000         168.000
 03  3 20 21 58 30.0000000  0 10G23G16G 6G17G30G18G26G10G15G29
  21738084.063    -2814551.86649  -2163131.12747  21738083.578    21738092.479
       235.000         197.000
  24315441.925    -2007446.56749  -1547815.60045  24315441.400    24315449.684
       209.000         145.000
  20305645.647    -1735585.61449  -1343391.25848  20305645.654    20305652.744
       244.000         215.000
  21320250.139    -1573876.15249  -1209976.97147  21320249.428    21320257.830
       239.000         207.000
  22656157.057      770215.00249    591597.36446  22656158.408    22656166.979
       225.000         176.000
  22970444.464    -2441889.87949  -1877873.13046  22970443.823    22970453.055
       221.000         167.000
  22637103.822    -2638734.29649  -2034811.34546  22637103.539    22637113.903
       220.000         168.000
  23252292.280     2665061.25349   2066887.55946  23252291.484    23252301.639
       219.000         167.000
  23205102.359    -4794649.85149  -3711451.04246  23205101.453    23205110.961
       218.000         163.000
  23114898.718    -1482784.06349  -1137265.49646  23114898.519    23114908.149
       220.000         167.000
 03  3 20 21 59  0.0000000  0 10G23G16G 6G17G30G18G26G10G15G29
  21724187.112    -2887580.33249  -2220036.33047  21724186.459    21724195.491
       235.000         197.000
  24301449.849    -2080975.98749  -1605111.19945  24301450.356    24301457.901
       210.000         146.000
  20305844.802    -1734539.14649  -1342575.82248  20305844.896    20305851.852
       244.000         215.000
  21314522.648    -1603973.98649  -1233429.79347  21314522.313    21314530.691
       240.000         207.000
  22674911.463      868769.95549    668393.33346  22674912.135    22674921.334
       224.000         175.000
  22951743.016    -2540166.23349  -1954451.99446  22951742.020    22951751.821
       222.000         168.000
  22624438.847    -2705288.71749  -2086671.73146  22624439.107    22624449.206
       220.000         168.000
  23271149.180     2764154.46449   2144103.02046  23271148.219    23271157.549
       219.000         167.000
  23191695.641    -4865102.56549  -3766349.18246  23191695.124    23191704.205
       220.000         164.000
  23109423.918    -1511554.17349  -1159683.67146  23109424.488    23109433.343
       222.000         167.000
 03  3 20 21 59 30.0000000  0 10G23G16G 6G17G30G18G26G10G15G29
  21710365.102    -2960215.18749  -2276634.82747  21710364.617    21710373.302
       235.000         197.000
  24287533.220    -2154108.87349  -1662097.83045  24287533.121    24287540.864
       211.000         146.000
  20306123.864    -1733072.68549  -1341433.11448  20306123.913    20306130.936
       244.000         215.000
  21308829.772    -1633890.05549  -1256740.98947  21308829.165    21308837.631
       239.000         207.000
  22693699.310      967500.32849    745325.98046  22693699.859    22693709.027
       225.000         175.000
  22933087.465    -2638201.60749  -2030843.07846  22933086.954    22933095.469
       223.000         169.000
  22611847.744    -2771454.72449  -2138229.46346  22611847.014    22611857.499
       219.000         168.000
  23290044.838     2863451.51649   2221477.31446  23290044.078    23290053.089
       219.000         167.000
  23178314.707    -4935420.34349  -3821142.18046  23178313.947    23178323.414
       221.000         165.000
  23104036.680    -1539864.29249  -1181743.41846  23104036.468    23104045.677
       220.000         168.000
 03  3 20 22  0  0.0000000  0 10G23G16G 6G17G30G18G26G10G15G29
  21696618.125    -3032455.63949  -2332925.99447  21696617.634    21696626.358
       235.000         198.000
  24273692.255    -2226843.91249  -1718774.44345  24273691.823    24273700.137
       209.000         146.000
  20306482.939    -1731185.79849  -1339962.80448  20306482.794    20306489.841
       244.000         215.000
  21303171.290    -1663625.35249  -1279911.32747  21303170.972    21303179.400
       239.000         207.000
  22712519.865     1066402.14649    822392.22846  22712520.050    22712530.055
       224.000         174.000
  22914478.033    -2735994.81049  -2107045.44946  22914478.477    22914486.384
       223.000         170.000
  22599331.002    -2837229.66749  -2189482.46746  22599330.829    22599340.976
       220.000         168.000
  23308978.643     2962949.01749   2299007.78846  23308977.501    23308987.179
       219.000         167.000
  23164959.210    -5005603.89649  -3875830.59046  23164957.893    23164968.236
       220.000         165.000
  23098737.039    -1567713.48849  -1203444.00246  23098736.587    23098746.505
       221.000         169.000
 03  3 20 22  0 30.0000000  0 10G23G16G 6G17G30G18G26G10G15G29
  21682946.639    -3104299.55749  -2388908.18147  21682946.139    21682954.770
       235.000         198.000
  24259927.370    -2299178.30749  -1775138.87045  24259926.582    24259934.839
       209.000         145.000
  20306922.312    -1728876.74249  -1338163.53848  20306922.140    20306929.525
       243.000         214.000
  21297547.339    -1693179.49049  -1302940.49747  21297546.925    21297555.243
       239.000         207.000
  22731372.521     1165473.33949    899590.46646  22731373.248    22731382.523
       224.000         174.000
  22895915.176    -2833543.16149  -2183057.02746  22895914.968    22895923.712
       224.000         170.000
  22586889.443    -2902609.72649  -2240427.76746  22586890.011    22586899.193
       220.000         168.000
  23327950.168     3062644.93049   2376692.87246  23327949.447    23327959.284
       218.000         165.000
  23151629.248    -5075652.38949  -3930413.76346  23151629.001    23151638.123
       220.000         166.000
  23093525.709    -1595099.03449  -1224783.30346  23093526.404    23093534.786
       220.000         169.000
 03  3 20 22  1  0.0000000  0 10G23G16G 6G17G30G18G26G10G15G29
  21669351.153    -3175743.97149  -2444579.07147  21669350.461    21669359.341
       235.000         198.000
  24246239.426    -2371108.21549  -1831188.10745  24246238.628    24246246.817
       207.000         144.000
  20307442.507    -1726143.10449  -1336033.42448  20307442.580    20307449.548
       243.000         214.000
  21291958.050    -1722551.32549  -1325827.61847  21291957.744    21291965.834
       240.000         207.000
  22750257.147     1264712.33649    976919.45346  22750257.325    22750267.170
       224.000         173.000
  22877399.493    -2930843.14649  -2258875.09146  22877398.407    22877406.808
       223.000         171.000
  22574523.931    -2967590.06349  -2291061.59946  22574523.183    22574534.010
       220.000         169.000
  23346959.229     3162538.12949   2454531.69146  23346958.417    23346967.618
       216.000         163.000
  23138325.337    -5145564.70049  -3984890.81146  23138324.451    23138334.498
       220.000         166.000
  23088403.205    -1622017.92149  -1245758.97046  23088403.671    23088411.795
       221.000         170.000
 03  3 20 22  1 30.0000000  0 10G23G16G 6G17G30G18G26G10G15G29
  21655831.619    -3246789.23749  -2499938.92947  21655830.930    21655840.059
       236.000         198.000
  24232628.588    -2442633.16849  -1886921.80945  24232627.871    24232636.773
       206.000         143.000
  20308043.357    -1722985.58349  -1333573.01148  20308043.154    20308050.467
       243.000         214.000
  21286403.175    -1751742.59249  -1348574.03747  21286403.070    21286410.923
       241.000         208.000
  22769172.835     1364114.33049   1054375.46346  22769173.089    22769182.977
       224.000         172.000
  22858931.112    -3027894.32149  -2334499.27146  22858930.891    22858939.320
       224.000         171.000
  22562234.824    -3032169.30849  -2341382.89346  22562234.270    22562244.732
       220.000         169.000
  23366004.923     3262623.91749   2532520.57845  23366003.003    23366013.836
       217.000         161.000
  23125047.013    -5215342.55549  -4039263.09846  23125045.564    23125057.325
       220.000         166.000
  23083369.577    -1648469.98749  -1266370.87846  23083369.736    23083378.248
       220.000         170.000
 03  3 20 22  2  0.0000000  0 10G23G16G 6G17G30G18G26G10G15G29
  21642388.500    -3317433.39649  -2554986.25747  21642388.206    21642396.556
       236.000         199.000
  24219095.302    -2513750.45349  -1942337.84145  24219095.329    24219103.459
       208.000         142.000
  20308725.160    -1719402.54549  -1330781.02948  20308725.062    20308732.048
       243.000         214.000
  21280882.661    -1780753.45449  -1371179.89047  21280882.062    21280890.196
       240.000         208.000
  22788119.019     1463676.91049   1131956.59446  22788119.823    22788129.877
       224.000         172.000
  22840510.552    -3124694.65649  -2409927.98546  22840509.544    22840519.445
       224.000         171.000
  22550022.721    -3096343.65249  -2391388.68646  22550022.524    22550032.178
       220.000         169.000
  23385086.871     3362900.01549   2610657.76045  23385086.442    23385095.514
       218.000         159.000
  23111794.417    -5284985.43449  -4093530.19546  23111793.748    23111803.329
       220.000         167.000
  23078425.185    -1674453.20849  -1286617.46546  23078425.618    23078434.267
       221.000         170.000
 03  3 20 22  2 30.0000000  0 10G23G16G 6G17G30G18G26G10G15G29
  21629021.823    -3387675.28449  -2609720.12047  21629021.420    21629029.943
       236.000         199.000
  24205640.166    -2584458.21749  -1997434.77545  24205640.374    24205647.569
       210.000         143.000
  20309488.085    -1715393.17049  -1327656.84048  20309487.944    20309495.158
       243.000         214.000
  21275396.087    -1809585.32049  -1393646.26647  21275395.800    21275403.828
       240.000         208.000
  22807095.241     1563396.73149   1209660.24846  22807095.456    22807105.470
       224.000         172.000
  22822138.086    -3221242.04249  -2485159.61646  22822136.464    22822146.795
       224.000         171.000
  22537888.258    -3160110.20149  -2441076.72446  22537888.305    22537898.199
       221.000         168.000
  23404204.505     3463363.73649   2688941.15445  23404203.907    23404212.754
       216.000         157.000
  23098567.516    -5354493.62149  -4147692.34046  23098567.145    23098575.839
       221.000         167.000
  23073570.211    -1699966.12849  -1306497.58746  23073569.490    23073579.491
       220.000         170.000
 03  3 20 22  3  0.0000000  0 10G23G16G 6G17G30G18G26G10G15G29
  21615731.859    -3457514.38349  -2664140.10447  21615731.111    21615740.037
       236.000         200.000
  24192263.109    -2654755.46949  -2052211.84045  24192262.675    24192270.909
       209.000         144.000
  20310332.163    -1710957.50149  -1324200.47148  20310332.220    20310339.156
       243.000         214.000
  21269943.517    -1838238.93349  -1415973.73547  21269943.115    21269951.266
       240.000         208.000
  22826100.543     1663269.89549   1287483.38946  22826101.129    22826110.707
       224.000         172.000
  22803813.826    -3317535.96349  -2560193.72446  22803813.089    22803822.315
       224.000         172.000
  22525831.837    -3223466.82049  -2490445.33246  22525832.061    22525841.111
       221.000         169.000
  23423357.091     3564011.18549   2767367.70945  23423356.208    23423364.789
       215.000         156.000
  23085365.962    -5423867.91549  -4201750.15646  23085364.645    23085374.711
       220.000         166.000
  23068804.942    -1725008.01749  -1326010.66346  23068805.009    23068814.270
       220.000         170.000
 03  3 20 22  3 30.0000000  0 10G23G16G 6G17G30G18G26G10G15G29
  21602519.035    -3526947.93549  -2718244.07147  21602518.717    21602527.206
       236.000         200.000
  24178964.807    -2724638.52449  -2106666.15845  24178964.211    24178972.419
       208.000         145.000
  20311257.842    -1706093.19449  -1320410.09448  20311257.799    20311264.942
       243.000         214.000
  21264524.916    -1866713.45749  -1438161.65547  21264524.426    21264532.373
       240.000         208.000
  22845134.763     1763294.81249   1365424.78446  22845135.552    22845144.725
       224.000         172.000
  22785538.626    -3413572.64849  -2635027.39146  22785538.010    22785546.920
       225.000         172.000
  22513854.331    -3286408.74449  -2539490.79546  22513854.483    22513863.723
       222.000         170.000
  23442544.386     3664841.26049   2845936.55445  23442543.675    23442553.120
       215.000         156.000
  23072190.113    -5493106.83549  -4255702.48146  23072190.085    23072198.805
       218.000         166.000
  23064129.772    -1749575.72449  -1345154.25246  23064129.535    23064138.778
       220.000         169.000
 03  3 20 22  4  0.0000000  0 10G23G16G 6G17G30G18G26G10G15G29
  21589383.669    -3595974.43549  -2772030.86447  21589383.041    21589391.641
       236.000         200.000
  24165745.632    -2794105.15249  -2160795.95545  24165744.113    24165753.699
       207.000         145.000
  20312265.260    -1700799.01249  -1316284.75548  20312265.281    20312272.403
       244.000         214.000
  21259140.510    -1895008.82949  -1460209.97147  21259140.124    21259148.015
       240.000         208.000
  22864197.386     1863468.79249   1443482.32946  22864197.705    22864207.635
       223.000         172.000
  22767312.822    -3509350.03249  -2709659.01246  22767312.278    22767320.675
       225.000         172.000
  22501956.288    -3348932.65549  -2588210.54646  22501955.960    22501965.770
       221.000         171.000
  23461765.946     3765851.39949   2924645.71445  23461765.648    23461774.588
       215.000         156.000
  23059039.921    -5562210.66149  -4309549.54346  23059038.969    23059048.744
       218.000         166.000
  23059545.139    -1773667.47549  -1363926.97246  23059544.689    23059554.014
       220.000         169.000
 03  3 20 22  4 30.0000000  0 10G23G16G 6G17G30G18G26G10G15G29
  21576326.023    -3664592.36649  -2825499.30347  21576325.371    21576334.306
       236.000         200.000
  24152606.143    -2863153.01749  -2214599.44345  24152606.039    24152614.305
       207.000         146.000
  20313354.741    -1695073.92949  -1311823.65048  20313354.727    20313361.892
       244.000         215.000
  21253790.200    -1923125.00549  -1482118.64847  21253789.698    21253797.814
       240.000         208.000
  22883287.634     1963788.64149   1521653.53746  22883288.309    22883296.884
       224.000         171.000
  22749136.712    -3604866.11449  -2784087.02046  22749135.831    22749143.449
       225.000         172.000
  22490138.394    -3411035.41649  -2636602.14246  22490137.991    22490148.369
       220.000         171.000
  23481021.254     3867038.69749   3003492.91145  23481020.688    23481030.214
       216.000         157.000
  23045915.517    -5631179.19049  -4363291.17946  23045914.355    23045923.918
       219.000         166.000
  23055051.487    -1797281.47749  -1382327.42346  23055051.400    23055060.335
       220.000         169.000
 03  3 20 22  5  0.0000000  0 10G23G16G 6G17G30G18G26G10G15G29
  21563346.240    -3732801.05149  -2878648.83147  21563345.736    21563354.402
       236.000         200.000
  24139546.657    -2931781.03749  -2268075.79145  24139546.809    24139553.793
       209.000         146.000
  20314526.222    -1688917.84849  -1307026.70048  20314526.316    20314533.335
       243.000         215.000
  21248473.574    -1951063.69049  -1503889.01947  21248472.998    21248481.096
       240.000         208.000
  22902404.974     2064250.79849   1599935.63046  22902405.565    22902415.195
       224.000         171.000
  22731010.458    -3700119.73749  -2858310.53046  22731009.719    22731017.966
       224.000         172.000
  22478400.935    -3472714.69049  -2684663.74746  22478400.997    22478410.745
       220.000         171.000
  23500309.733     3968400.04449   3082475.72245  23500309.544    23500318.186
       215.000         158.000
  23032816.832    -5700013.27749  -4416928.04346  23032816.033    23032826.183
       220.000         166.000
  23050648.853    -1820417.09749  -1400355.09546  23050649.008    23050656.631
       220.000         169.000
 03  3 20 22  5 30.0000000  0 10G23G16G 6G17G30G18G26G10G15G29
  21550444.711    -3800598.81249  -2931478.16647  21550444.078    21550452.868
       236.000         200.000
  24126567.588    -2999986.75349  -2321223.05345  24126567.415    24126575.226
       208.000         145.000
  20315780.000    -1682329.44449  -1301892.87048  20315780.048    20315787.028
       244.000         215.000
  21243190.863    -1978824.59349  -1525520.86647  21243190.475    21243198.624
       240.000         208.000
  22921549.006     2164852.63349   1678326.55846  22921548.902    22921559.508
       224.000         171.000
  22712934.553    -3795108.51949  -2932327.62946  22712933.973    22712941.938
       225.000         172.000
  22466744.790    -3533966.95849  -2732392.62146  22466743.927    22466754.283
       219.000         170.000
  23519630.855     4069932.81449   3161592.13245  23519630.269    23519640.261
       216.000         159.000
  23019743.788    -5768712.60849  -4470459.90146  23019743.193    23019751.599
       220.000         167.000
  23046337.621    -1843072.38549  -1418008.48346  23046337.602    23046346.423
       221.000         169.000
 03  3 20 22  6  0.0000000  0 10G23G16G 6G17G30G18G26G10G15G29
  21537621.631    -3867984.05349  -2983986.06247  21537621.175    21537629.545
       237.000         201.000
  24113669.344    -3067767.46249  -2374039.14945  24113669.384    24113677.391
       209.000         144.000
  20317116.232    -1675307.45249  -1296421.17948  20317116.163    20317123.355
       243.000         215.000
  21237941.864    -2006408.05449  -1547014.44847  21237941.589    21237949.533
       240.000         208.000
  22940719.044     2265591.49649   1756824.26646  22940719.550    22940729.361
       223.000         171.000
  22694909.491    -3889830.38849  -3006136.74546  22694909.341    22694917.147
       226.000         172.000
  22455170.580    -3594788.59349  -2779785.95246  22455170.319    22455180.476
       221.000         171.000
  23538984.214     4171635.09249   3240840.61345  23538983.521    23538993.515
       216.000         159.000
  23006696.360    -5837276.85949  -4523886.51546  23006695.446    23006704.566
       219.000         167.000
  23042118.185    -1865245.46949  -1435286.12146  23042117.814    23042126.887
       221.000         169.000
 03  3 20 22  6 30.0000000  0 10G23G16G 6G17G30G18G26G10G15G29
  21524877.173    -3934956.19549  -3036172.06347  21524876.548    21524885.141
       237.000         201.000
  24100852.158    -3135122.09649  -2426523.24045  24100851.248    24100858.884
       210.000         143.000
  20318535.088    -1667851.50749  -1290611.34448  20318535.021    20318542.120
       243.000         215.000
  21232726.608    -2033814.54249  -1568370.12847  21232726.249    21232734.109
       240.000         208.000
  22959914.506     2366463.63449   1835425.82546  22959915.022    22959924.814
       224.000         170.000
  22676935.444    -3984283.94049  -3079736.79746  22676935.105    22676943.045
       225.000         172.000
  22443678.832    -3655177.36549  -2826842.00046  22443678.615    22443688.403
       221.000         172.000
  23558369.048     4273503.29349   3320218.37345  23558368.101    23558377.881
       216.000         159.000
  22993674.441    -5905706.49649  -4577208.21746  22993674.081    22993683.774
       221.000         168.000
  23037990.722    -1886935.28849  -1452187.20246  23037990.691    23037998.834
       221.000         169.000
 03  3 20 22  7  0.0000000  0 10G23G16G 6G17G30G18G26G10G15G29
  21512211.661    -4001513.61649  -3088034.90447  21512210.976    21512219.682
       236.000         201.000
  24088116.590    -3202047.95449  -2478673.22545  24088117.144    24088124.923
       213.000         145.000
  20320036.685    -1659960.34249  -1284462.37648  20320036.561    20320043.717
       243.000         214.000
  21227545.022    -2061044.03349  -1589587.88047  21227544.487    21227552.403
       241.000         208.000
  22979134.857     2467466.66949   1914129.38146  22979135.705    22979145.015
       223.000         171.000
  22659012.895    -4078466.94549  -3153126.02146  22659012.942    22659020.334
       226.000         172.000
  22432270.132    -3715129.72249  -2873557.97746  22432270.073    22432279.810
       222.000         172.000
  23577784.991     4375535.10149   3399723.62145  23577784.400    23577794.551
       216.000         160.000
  22980678.347    -5974001.37749  -4630424.90446  22980677.628    22980687.858
       221.000         168.000
  23033955.572    -1908139.94849  -1468710.22246  23033955.305    23033963.913
       221.000         170.000
 03  3 20 22  7 30.0000000  0 10G23G16G 6G17G30G18G26G10G15G29
  21499625.308    -4067655.03149  -3139573.58147  21499625.059    21499633.529
       237.000         201.000
  24075463.039    -3268543.25349  -2530487.70845  24075463.354    24075470.312
       213.000         147.000
  20321621.230    -1651633.21049  -1277973.69548  20321621.084    20321628.320
       243.000         214.000
  21222396.850    -2088097.68649  -1610668.61947  21222396.241    21222404.356
       240.000         208.000
  22998379.521     2568597.38549   1992932.44546  22998379.923    22998388.766
       223.000         170.000
  22641142.228    -4172377.48549  -3226302.91246  22641141.774    22641150.056
       226.000         173.000
  22420945.067    -3774642.68649  -2919931.56646  22420945.083    22420954.609
       221.000         172.000
  23597231.566     4477727.60849   3479354.08945  23597231.187    23597241.163
       217.000         160.000
  22967707.858    -6042161.55849  -4683536.65746  22967707.437    22967716.766
       220.000         168.000
  23030012.875    -1928858.32449  -1484854.33146  23030012.524    23030021.998
       222.000         170.000
 03  3 20 22  8  0.0000000  0 10G23G16G 6G17G30G18G26G10G15G29
  21487118.399    -4133379.13949  -3190787.09647  21487117.688    21487126.302
       237.000         202.000
  24062891.754    -3334605.98249  -2581965.11245  24062891.437    24062899.355
       214.000         148.000
  20323288.951    -1642869.00549  -1271144.44048  20323288.740    20323296.047
       243.000         214.000
  21217282.148    -2114975.16449  -1631612.07847  21217281.512    21217289.700
       240.000         208.000
  23017647.872     2669853.01849   2071832.83046  23017648.633    23017659.003
       223.000         170.000
  22623323.730    -4266013.96349  -3299266.25446  22623323.519    22623331.390
       226.000         173.000
  22409704.307    -3833712.89649  -2965960.17546  22409704.364    22409713.968
       221.000         173.000
  23616708.407     4580078.70149   3559108.13145  23616707.624    23616717.492
       215.000         159.000
  22954762.932    -6110187.15649  -4736543.54146  22954762.249    22954771.793
       221.000         169.000
  23026163.116    -1949088.57449  -1500618.07846  23026163.579    23026171.811
       221.000         170.000
 03  3 20 22  8 30.0000000  0 10G23G16G 6G17G30G18G26G10G15G29
  21474690.978    -4198685.17449  -3241674.84247  21474690.451    21474699.095
       237.000         202.000
  24050403.080    -3400234.47749  -2633104.14445  24050402.623    24050410.536
       211.000         149.000
  20325039.948    -1633667.53049  -1263974.45148  20325040.038    20325047.002
       243.000         214.000
  21212200.907    -2141677.18349  -1652418.81447  21212200.419    21212208.779
       240.000         208.000
  23036939.411     2771230.07549   2150827.83746  23036940.098    23036949.114
       223.000         170.000
  22605557.771    -4359374.68849  -3372014.73546  22605557.248    22605564.883
       226.000         173.000
  22398548.313    -3892338.00949  -3011641.95646  22398547.828    22398557.746
       221.000         172.000
  23636214.830     4682585.12049   3638983.21345  23636214.339    23636223.894
       215.000         159.000
  22941843.615    -6178078.71349  -4789445.96746  22941842.843    22941852.496
       222.000         169.000
  23022406.347    -1968829.83349  -1516000.79946  23022406.520    23022414.540
       221.000         170.000
 03  3 20 22  9  0.0000000  0 10G23G16G 6G17G30G18G26G10G15G29
  21462343.394    -4263571.43249  -3292235.49147  21462342.869    21462351.457
       237.000         202.000
  24037997.414    -3465426.16949  -2683902.80245  24037997.421    24038004.906
       211.000         149.000
  20326874.424    -1624027.40349  -1256462.65948  20326874.288    20326881.496
       243.000         214.000
  21207153.053    -2168203.73349  -1673088.82647  21207152.724    21207160.813
       240.000         208.000
  23056253.597     2872726.15349   2229915.56746  23056254.077    23056263.139
       222.000         170.000
  22587844.646    -4452457.32149  -3444546.54046  22587843.681    22587852.321
       226.000         174.000
  22387477.624    -3950514.50449  -3056974.15246  22387477.392    22387487.439
       221.000         173.000
  23655750.352     4785244.64149   3718977.58245  23655749.505    23655760.002
       215.000         158.000
  22928949.919    -6245835.51249  -4842243.40146  22928948.619    22928958.810
       223.000         169.000
  23018743.030    -1988080.09449  -1531000.91146  23018742.516    23018751.644
       221.000         170.000
 03  3 20 22  9 30.0000000  0 10G23G16G 6G17G30G18G26G10G15G29
  21450076.102    -4328036.20849  -3342467.70747  21450075.512    21450084.149
       237.000         202.000
  24025675.294    -3530178.62349  -2734359.19745  24025674.182    24025683.516
       212.000         148.000
  20328792.603    -1613947.11149  -1248607.88148  20328792.690    20328799.568
       243.000         214.000
  21202138.599    -2194555.04949  -1693622.29547  21202138.155    21202146.143
       240.000         208.000
  23075589.932     2974338.75149   2309094.11446  23075590.901    23075599.606
       222.000         169.000
  22570184.826    -4545259.49049  -3516859.79846  22570183.957    22570192.191
       226.000         174.000
  22376492.924    -4008238.65649  -3101953.87946  22376493.266    22376502.657
       221.000         173.000
  23675314.619     4888055.16349   3799089.60945  23675314.291    23675323.948
       214.000         157.000
  22916082.001    -6313457.09849  -4894935.45946  22916082.007    22916090.187
       223.000         170.000
  23015173.474    -2006837.54449  -1545617.04146  23015173.247    23015183.005
       221.000         170.000
 03  3 20 22 10  0.0000000  0 10G23G16G 6G17G30G18G26G10G15G29
  21437889.053    -4392079.34449  -3392371.37647  21437888.768    21437897.213
       238.000         202.000
  24013436.987    -3594490.85449  -2784472.55545  24013436.504    24013445.428
       211.000         148.000
  20330794.523    -1603426.92249  -1240410.32448  20330794.614    20330801.833
       243.000         214.000
  21197157.216    -2220732.11049  -1714019.97247  21197156.684    21197164.656
       240.000         208.000
  23094947.688     3076063.99149   2388360.42246  23094948.350    23094957.981
       221.000         169.000
  22552578.652    -4637779.97049  -3588953.54346  22552578.555    22552586.346
       227.000         174.000
  22365594.788    -4065508.48549  -3146579.58746  22365595.001    22365604.520
       222.000         173.000
  23694906.929     4991013.28749   3879316.66245  23694905.728    23694917.177
       213.000         155.000
  22903239.520    -6380944.55549  -4947523.00046  22903238.838    22903248.013
       222.000         170.000
  23011697.845    -2025101.65849  -1559848.74346  23011697.693    23011706.840
       220.000         170.000
 03  3 20 22 10 30.0000000  0 10G23G16G 6G17G30G18G26G10G15G29
  21425782.555    -4455699.06549  -3441945.11347  21425782.280    21425790.523
       238.000         203.000
  24001282.871    -3658360.32049  -2834240.92845  24001282.078    24001290.384
       212.000         148.000
  20332880.418    -1592465.59649  -1231869.02048  20332880.570    20332887.569
       243.000         214.000
  21192209.063    -2246734.55749  -1734281.58947  21192208.489    21192216.610
       240.000         208.000
  23114326.259     3177899.44549   2467712.61446  23114327.054    23114336.942
       220.000         169.000
  22535026.541    -4730016.65349  -3660826.15746  22535026.006    22535033.880
       228.000         175.000
  22354783.744    -4122320.47249  -3190848.55346  22354784.065    22354793.359
       223.000         173.000
  23714526.861     5094116.92849   3959657.08945  23714526.275    23714536.455
       214.000         154.000
  22890422.534    -6448297.62549  -5000005.82646  22890421.571    22890430.917
       222.000         170.000
  23008316.501    -2042870.43649  -1573694.46746  23008316.454    23008324.951
       221.000         170.000
 03  3 20 22 11  0.0000000  0 10G23G16G 6G17G30G18G26G10G15G29
  21413756.968    -4518894.32149  -3491188.09247  21413756.585    21413764.739
       238.000         203.000
  23989213.526    -3721785.20849  -2883662.87045  23989212.524    23989220.913
       213.000         148.000
  20335050.414    -1581062.29649  -1222983.32048  20335050.438    20335057.487
       243.000         214.000
  21187294.109    -2272562.59349  -1754407.30647  21187293.722    21187301.613
       241.000         208.000
  23133725.223     3279842.11449   2547148.35446  23133725.605    23133736.507
       220.000         169.000
  22517528.723    -4821967.83449  -3732476.31546  22517527.900    22517535.758
       227.000         175.000
  22344060.414    -4178671.76949  -3234758.51946  22344060.459    22344069.567
       222.000         173.000
  23734173.975     5197363.41749   4040108.83745  23734174.043    23734183.658
       215.000         153.000
  22877631.107    -6515516.39749  -5052383.99546  22877630.206    22877639.541
       223.000         170.000
  23005029.717    -2060142.61649  -1587153.23446  23005030.609    23005037.744
       222.000         170.000
 03  3 20 22 11 30.0000000  0 10G23G16G 6G17G30G18G26G10G15G29
  21401812.359    -4581663.69249  -3540099.22447  21401811.834    21401820.196
       238.000         203.000
  23977229.196    -3784763.40949  -2932736.75245  23977228.110    23977236.494
       213.000         149.000
  20337304.652    -1569216.06349  -1213752.48148  20337304.577    20337311.565
       243.000         214.000
  21182412.403    -2298216.30649  -1774397.18447  21182411.901    21182420.081
       240.000         208.000
  23153144.151     3381889.09249   2626665.36146  23153144.602    23153155.789
       221.000         169.000
  22500085.636    -4913631.29649  -3803902.27346  22500085.495    22500093.113
       228.000         176.000
  22333425.202    -4234559.10749  -3278306.96946  22333425.082    22333434.575
       222.000         173.000
  23753847.894     5300750.34849   4120670.03545  23753847.084    23753856.806
       214.000         152.000
  22864865.359    -6582600.43349  -5104657.20246  22864864.174    22864873.406
       222.000         170.000
  23001837.702    -2076916.82949  -1600223.96946  23001837.249    23001845.905
       222.000         170.000
 03  3 20 22 12  0.0000000  0 10G23G16G 6G17G30G18G26G10G15G29
  21389948.800    -4644006.96049  -3588678.32147  21389948.177    21389956.802
       239.000         204.000
  23965329.996    -3847293.84249  -2981461.71645  23965329.588    23965337.298
       211.000         149.000
  20339643.189    -1556927.02249  -1204176.59348  20339643.228    20339650.402
       243.000         214.000
  21177563.492    -2323697.30649  -1794252.48047  21177562.938    21177570.884
       240.000         209.000
  23172582.279     3484036.76249   2706260.83846  23172582.725    23172593.012
       219.000         169.000
  22482697.425    -5005006.24249  -3875103.43846  22482697.412    22482704.324
       228.000         177.000
  22322878.743    -4289980.46049  -3321492.31546  22322879.282    22322888.587
       221.000         173.000
  23773547.880     5404274.11649   4201337.86445  23773547.645    23773556.909
       214.000         151.000
  22852125.078    -6649550.55849  -5156826.06646  22852124.553    22852133.351
       222.000         169.000
  22998740.469    -2093192.54649  -1612906.27346  22998740.723    22998749.259
       221.000         169.000
 03  3 20 22 12 30.0000000  0 10G23G16G 6G17G30G18G26G10G15G29
  21378166.700    -4705922.01249  -3636923.74847  21378166.034    21378174.332
       239.000         204.000
  23953516.555    -3909373.73349  -3029835.61345  23953516.056    23953523.856
       211.000         148.000
  20342066.329    -1544193.39349  -1194254.27848  20342066.420    20342073.477
       244.000         214.000
  21172747.597    -2349005.14649  -1813972.85047  21172747.072    21172755.104
       240.000         208.000
  23192039.241     3586283.00149   2785933.12246  23192040.005    23192050.517
       219.000         168.000
  22465364.709    -5096089.78149  -3946077.56346  22465365.091    22465372.557
       228.000         177.000
  22312421.739    -4344931.88149  -3364311.46846  22312421.382    22312431.575
       223.000         174.000
  23793273.625     5507932.98649   4282110.96345  23793272.220    23793283.464
       214.000         150.000
  22839410.443    -6716365.89249  -5208889.89146  22839409.816    22839418.617
       221.000         169.000
  22995738.514    -2108967.65749  -1625198.49246  22995738.122    22995746.759
       220.000         169.000
 03  3 20 22 13  0.0000000  0 10G23G16G 6G17G30G18G26G10G15G29
  21366466.172    -4767408.49549  -3684835.22747  21366465.614    21366473.856
       239.000         204.000
  23941789.142    -3971001.76349  -3077857.41045  23941788.805    23941796.651
       211.000         148.000
  20344574.024    -1531015.24649  -1183985.58448  20344573.885    20344580.971
       244.000         214.000
  21167964.446    -2374140.61249  -1833558.90247  21167963.943    21167971.906
       240.000         208.000
  23211514.317     3688624.13849   2865679.35146  23211515.542    23211524.710
       220.000         168.000
  22448087.607    -5186880.68349  -4016823.61746  22448087.692    22448095.637
       229.000         178.000
  22302054.607    -4399411.14949  -3406762.71546  22302054.409    22302063.820
       223.000         174.000
  23813024.464     5611723.93649   4362986.97745  23813023.327    23813034.564
       212.000         149.000
  22826721.292    -6783047.24749  -5260849.31246  22826719.931    22826730.034
       222.000         170.000
  22992831.947    -2124241.50849  -1637100.12746  22992832.293    22992840.776
       220.000         168.000
 03  3 20 22 13 30.0000000  0 10G23G16G 6G17G30G18G26G10G15G29
  21354847.355    -4828465.41149  -3732411.98047  21354846.767    21354855.138
       239.000         205.000
  23930147.898    -4032176.19149  -3125525.74845  23930147.654    23930154.708
       212.000         149.000
  20347166.452    -1517391.85549  -1173369.95048  20347166.280    20347173.555
       243.000         214.000
  21163214.076    -2399103.74049  -1853010.66547  21163213.642    21163221.614
       240.000         208.000
  23231006.835     3791057.46949   2945497.42846  23231006.819    23231017.944
       219.000         167.000
  22430866.558    -5277377.52949  -4087340.49446  22430866.264    22430873.873
       229.000         179.000
  22291777.842    -4453415.47949  -3448843.88446  22291777.074    22291787.441
       224.000         175.000
  23832799.871     5715644.37449   4443963.88245  23832798.597    23832809.640
       212.000         150.000
  22814057.582    -6849594.71549  -5312704.40246  22814056.907    22814065.722
       221.000         170.000
  22990020.896    -2139012.80049  -1648610.15846  22990020.690    22990028.386
       219.000         167.000
 03  3 20 22 14  0.0000000  0 10G23G16G 6G17G30G18G26G10G15G29
  21343310.681    -4889090.66449  -3779652.37947  21343310.064    21343318.496
       239.000         205.000
  23918593.665    -4092894.18049  -3172838.42845  23918593.652    23918599.983
       214.000         149.000
  20349843.945    -1503321.43749  -1162405.98748  20349843.936    20349850.991
       243.000         214.000
  21158496.666    -2423893.73449  -1872327.51747  21158496.468    21158504.312
       240.000         209.000
  23250516.440     3893580.87649   3025385.69146  23250517.312    23250527.536
       219.000         167.000
  22413702.094    -5367577.13749  -4157625.76946  22413701.677    22413709.305
       229.000         179.000
  22281592.096    -4506941.03549  -3490551.98146  22281592.015    22281601.613
       223.000         175.000
  23852599.690     5819692.73249   4525040.46745  23852598.899    23852609.414
       212.000         152.000
  22801419.528    -6916007.47349  -5364454.52546  22801418.826    22801427.584
       222.000         170.000
  22987305.958    -2153279.45549  -1659726.96746  22987305.679    22987314.143
       219.000         167.000
 03  3 20 22 14 30.0000000  0 10G23G16G 6G17G30G18G26G10G15G29
  21331856.245    -4949283.75749  -3826556.02247  21331855.624    21331864.095
       239.000         205.000
  23907126.455    -4153154.67649  -3219794.62545  23907126.531    23907133.572
       212.000         150.000
  20352606.556    -1488803.84449  -1151093.57348  20352606.554    20352613.853
       243.000         214.000
  21153812.012    -2448511.97049  -1891510.53747  21153811.491    21153819.583
       239.000         208.000
  23270042.498     3996190.77949   3105341.35546  23270042.525    23270053.391
       218.000         166.000
  22396594.347    -5457478.52949  -4227678.67446  22396593.961    22396602.053
       229.000         180.000
  22271498.026    -4559985.35849  -3531885.07846  22271497.733    22271507.380
       225.000         175.000
  23872423.153     5923865.70649   4606214.14945  23872422.646    23872433.744
       213.000         153.000
  22788807.138    -6982286.15149  -5416100.17646  22788806.647    22788815.910
       222.000         171.000
  22984687.193    -2167040.84749  -1670450.07146  22984687.382    22984696.086
       219.000         167.000
 03  3 20 22 15  0.0000000  0 10G23G16G 6G17G30G18G26G10G15G29
  21320484.215    -5009043.81149  -3873122.23447  21320483.776    21320492.227
       239.000         206.000
  23895746.765    -4212955.53549  -3266392.68545  23895746.799    23895753.882
       213.000         149.000
  20355454.380    -1473838.49149  -1139432.25948  20355454.252    20355461.677
       243.000         214.000
  21149159.904    -2472958.54149  -1910559.78747  21149159.402    21149167.484
       240.000         208.000
  23289584.414     4098884.30249   3185362.17246  23289584.826    23289595.407
       218.000         166.000
  22379543.640    -5547079.96749  -4297497.85146  22379543.235    22379550.920
       229.000         180.000
  22261496.008    -4612545.88649  -3572841.20346  22261495.757    22261504.681
       223.000         175.000
  23892269.974     6028161.04449   4687483.18145  23892269.716    23892279.617
       215.000         156.000
  22776220.181    -7048430.77949  -5467641.37446  22776219.711    22776229.173
       222.000         171.000
  22982164.730    -2180295.80049  -1680778.55246  22982164.539    22982173.552
       218.000         167.000
 03  3 20 22 15 30.0000000  0 10G23G16G 6G17G30G18G26G10G15G29
  21309194.737    -5068370.23749  -3919350.54447  21309194.312    21309202.414
       239.000         206.000
  23884454.662    -4272295.62849  -3312631.71945  23884453.197    23884463.091
       213.000         149.000
  20358387.451    -1458425.13749  -1127421.85148  20358387.572    20358394.623
       243.000         214.000
  21144540.395    -2497234.16749  -1929475.82747  21144539.900    21144547.917
       240.000         208.000
  23309141.635     4201658.03249   3265445.49246  23309141.847    23309152.379
       217.000         165.000
  22362550.257    -5636380.16949  -4367082.29646  22362549.769    22362557.215
       231.000         181.000
  22251586.497    -4664620.09049  -3613418.37146  22251587.227    22251595.935
       224.000         175.000
  23912139.479     6132575.40549   4768844.96145  23912139.450    23912149.206
       215.000         158.000
  22763658.594    -7114441.71149  -5519078.38446  22763657.388    22763666.406
       222.000         171.000
  22979738.832    -2193043.62249  -1690711.86046  22979738.648    22979747.791
       217.000         167.000
 03  3 20 22 16  0.0000000  0 10G23G16G 6G17G30G18G26G10G15G29
  21297988.205    -5127260.91249  -3965239.31847  21297987.800    21297995.821
       240.000         206.000
  23873250.845    -4331171.98949  -3358509.32445  23873250.433    23873259.622
       211.000         149.000
  20361406.123    -1442562.07649  -1115061.02048  20361406.152    20361413.231
       243.000         214.000
  21139953.538    -2521338.14649  -1948258.12547  21139953.015    21139960.961
       240.000         208.000
  23328713.909     4304510.37449   3345590.07646  23328714.427    23328725.303
       217.000         165.000
  22345614.748    -5725376.33049  -4436429.84546  22345614.433    22345621.916
       231.000         181.000
  22241770.364    -4716204.00449  -3653613.50946  22241770.283    22241779.521
       224.000         176.000
  23932031.363     6237107.48949   4850298.46345  23932030.980    23932041.010
       215.000         159.000
  22751122.695    -7180317.89949  -5570410.39146  22751122.376    22751130.582
       223.000         171.000
  22977409.900    -2205281.83849  -1700248.09146  22977409.620    22977418.513
       218.000         168.000
 03  3 20 22 16 30.0000000  0 10G23G16G 6G17G30G18G26G10G15G29
  21286864.641    -5185715.36949  -4010788.18747  21286864.061    21286872.233
       239.000         206.000
  23862135.487    -4389583.23149  -3404024.53445  23862134.368    23862142.586
       212.000         149.000
  20364510.379    -1426249.14849  -1102349.64148  20364510.443    20364517.397
       243.000         214.000
  21135399.085    -2545271.69949  -1966907.62147  21135398.598    21135406.433
       240.000         208.000
  23348300.451     4407437.55649   3425792.95346  23348300.828    23348311.722
       218.000         164.000
  22328737.440    -5814067.03749  -4505539.37946  22328737.347    22328745.075
       231.000         182.000
  22232047.915    -4767295.37849  -3693424.84646  22232047.774    22232057.129
       223.000         175.000
  23951945.146     6341754.41149   4931841.46645  23951945.233    23951955.156
       215.000         160.000
  22738612.454    -7246059.98049  -5621637.91946  22738611.976    22738621.049
       224.000         172.000
  22975178.029    -2217010.14749  -1709386.98246  22975178.085    22975186.843
       218.000         168.000
 03  3 20 22 17  0.0000000  0 10G23G16G 6G17G30G18G26G10G15G29
  21275824.118    -5243733.49649  -4055997.04947  21275823.334    21275831.786
       240.000         206.000
  23851108.850    -4447528.48349  -3449176.66645  23851109.201    23851115.423
       212.000         149.000
  20367700.202    -1409486.49649  -1089287.83348  20367700.175    20367707.125
       243.000         214.000
  21130877.049    -2569034.85249  -1985424.34347  21130876.589    21130884.754
       239.000         208.000
  23367900.406     4510436.01649   3506051.38446  23367901.109    23367911.216
       215.000         164.000
  22311918.438    -5902451.24049  -4574410.09046  22311918.061    22311925.643
       232.000         182.000
  22222419.584    -4817892.30949  -3732850.90046  22222419.429    22222428.886
       223.000         175.000
  23971880.166     6446512.94749   5013471.43945  23971879.603    23971889.259
       214.000         160.000
  22726127.562    -7311668.83049  -5672761.62146  22726126.370    22726135.963
       224.000         173.000
  22973043.226    -2228228.26649  -1718128.32946  22973043.293    22973052.632
       217.000         168.000
 03  3 20 22 17 30.0000000  0 10G23G16G 6G17G30G18G26G10G15G29
  21264866.999    -5301313.37449  -4100864.42147  21264866.399    21264874.570
       240.000         206.000
  23840171.449    -4505005.14549  -3493963.65845  23840171.003    23840178.707
       215.000         151.000
  20370975.913    -1392272.64449  -1075874.43348  20370975.887    20370982.874
       243.000         214.000
  21126387.504    -2592627.45049  -2003808.16947  21126387.137    21126395.222
       239.000         208.000
  23387513.618     4613503.89249   3586363.89946  23387513.471    23387524.478
       215.000         163.000
  22295158.232    -5990526.63749  -4643040.18046  22295157.684    22295165.862
       232.000         183.000
  22212885.999    -4867991.01149  -3771888.72946  22212886.389    22212895.520
       225.000         175.000
  23991836.014     6551381.30449   5095186.97845  23991835.348    23991845.477
       213.000         159.000
  22713668.061    -7377143.30749  -5723780.61646  22713667.115    22713676.687
       222.000         172.000
  22971005.988    -2238934.00349  -1726470.41346  22971005.934    22971015.124
       218.000         169.000
 03  3 20 22 18  0.0000000  0 10G23G16G 6G17G30G18G26G10G15G29
  21253993.445    -5358454.13449  -4145389.62447  21253993.047    21254000.900
       240.000         207.000
  23829323.607    -4562011.55949  -3538384.20945  23829322.773    23829330.858
       215.000         151.000
  20374337.572    -1374607.06849  -1062109.05048  20374337.550    20374344.521
       243.000         214.000
  21121930.388    -2616049.66749  -2022059.23647  21121929.972    21121937.804
       240.000         208.000
  23407139.388     4716638.03149   3666728.05946  23407139.744    23407150.908
       216.000         163.000
  22278457.156    -6078291.36749  -4711428.18646  22278456.755    22278464.012
       232.000         183.000
  22203447.820    -4917588.81049  -3810536.24846  22203447.513    22203456.987
       224.000         176.000
  24011812.286     6656357.06949   5176986.21445  24011811.869    24011821.489
       211.000         157.000
  22701233.999    -7442483.79649  -5774695.21046  22701233.013    22701242.227
       223.000         172.000
  22969066.377    -2249126.47449  -1734412.56846  22969065.947    22969075.177
       219.000         169.000
 03  3 20 22 18 30.0000000  0 10G23G16G 6G17G30G18G26G10G15G29
  21243203.529    -5415155.12049  -4189572.14647  21243202.947    21243211.088
       241.000         207.000
  23818565.412    -4618546.26349  -3582437.19645  23818564.901    23818572.121
       215.000         153.000
  20377785.275    -1356489.25849  -1047991.27348  20377785.103    20377792.081
       243.000         214.000
  21117505.592    -2639302.16849  -2040178.05847  21117505.155    21117513.103
       240.000         208.000
  23426777.139     4819835.53049   3747141.57046  23426778.339    23426789.327
       216.000         163.000
  22261815.385    -6165744.05049  -4779573.03946  22261814.556    22261822.871
       231.000         183.000
  22194105.375    -4966683.20949  -3848791.50246  22194105.560    22194114.301
       225.000         176.000
  24031808.398     6761437.56349   5258867.04145  24031807.696    24031817.993
       208.000         154.000
  22688825.541    -7507690.43249  -5825505.50346  22688824.933    22688834.460
       224.000         173.000
  22967224.580    -2258804.85349  -1741954.12846  22967224.351    22967233.638
       219.000         170.000
 03  3 20 22 19  0.0000000  0 10G23G16G 6G17G30G18G26G10G15G29
  21232497.526    -5471415.24549  -4233411.14347  21232497.238    21232505.070
       240.000         207.000
  23807897.351    -4674607.35749  -3626121.13545  23807897.266    23807904.034
       213.000         153.000
  20381319.154    -1337918.53649  -1033520.57648  20381319.176    20381326.107
       243.000         213.000
  21113113.050    -2662385.30449  -2058164.90447  21113112.596    21113120.569
       240.000         208.000
  23446426.596     4923093.55449   3827602.25746  23446427.666    23446438.283
       217.000         163.000
  22245233.351    -6252882.40049  -4847472.94846  22245233.036    22245240.679
       231.000         183.000
  22184859.243    -5015271.39349  -3886652.32846  22184858.852    22184868.193
       225.000         176.000
  24051824.048     6866620.54649   5340827.75045  24051823.069    24051832.593
       204.000         150.000
  22676442.671    -7572763.07349  -5876211.36846  22676442.456    22676451.475
       224.000         173.000
  22965480.916    -2267967.93349  -1749094.15046  22965480.908    22965490.145
       220.000         171.000
 03  3 20 22 19 30.0000000  0 10G23G16G 6G17G30G18G26G10G15G29
  21221875.589    -5527233.80049  -4276906.05547  21221874.962    21221883.086
       241.000         208.000
  23797319.614    -4730193.23349  -3669434.77645  23797319.239    23797326.817
       215.000         152.000
  20384939.306    -1318894.44549  -1018696.60248  20384939.350    20384946.233
       243.000         213.000
  21108752.669    -2685299.26849  -2076019.92247  21108752.055    21108759.975
       240.000         208.000
  23466087.000     5026409.09949   3908107.76145  23466088.685    23466098.757
       217.000         162.000
  22228711.421    -6339705.04749  -4915126.84146  22228710.844    22228718.737
       231.000         184.000
  22175710.000    -5063350.63449  -3924116.56446  22175710.265    22175718.857
       225.000         176.000
  24071858.624     6971903.30649   5422866.19345  24071858.319    24071868.942
       204.000         146.000
  22664085.317    -7637701.94249  -5926812.99646  22664084.950    22664092.721
       225.000         174.000
  22963835.509    -2276614.93149  -1755832.03746  22963835.737    22963844.370
       221.000         172.000
 03  3 20 22 20  0.0000000  0 10G23G16G 6G17G30G18G26G10G15G29
  21211337.884    -5582609.55649  -4320055.93747  21211337.527    21211345.709
       241.000         208.000
  23786832.624    -4785301.68849  -3712376.38945  23786832.379    23786840.381
       212.000         152.000
  20388645.953    -1299416.04649  -1003518.63048  20388645.774    20388652.966
       243.000         213.000
  21104424.524    -2708043.92749  -2093743.01347  21104424.101    21104431.935
       240.000         209.000
  23485757.950     5129779.69349   3988656.15745  23485758.728    23485769.629
       218.000         162.000
  22212249.912    -6426210.29749  -4982533.42946  22212249.330    22212257.276
       232.000         184.000
  22166658.090    -5110917.93649  -3961181.89746  22166658.122    22166667.014
       224.000         176.000
  24091911.773     7077283.66949   5504980.68945  24091911.707    24091921.632
       203.000         143.000
  22651753.310    -7702506.45349  -5977309.93646  22651752.598    22651761.076
       224.000         173.000
  22962288.591    -2284744.34149  -1762166.61046  22962288.748    22962297.575
       220.000         172.000
 03  3 20 22 20 30.0000000  0 10G23G16G 6G17G30G18G26G10G15G29
  21200884.651    -5637541.46249  -4362859.96147  21200884.003    21200892.356
       241.000         208.000
  23776436.864    -4839931.07149  -3754944.71145  23776436.506    23776444.817
       215.000         152.000
  20392439.119    -1279482.57049   -987986.05348  20392439.168    20392446.190
       243.000         213.000
  21100128.585    -2730619.18049  -2111334.10447  21100128.075    21100136.008
       240.000         209.000
  23505439.036     5233202.72349   4069245.42445  23505439.743    23505450.252
       216.000         161.000
  22195849.298    -6512396.04049  -5049691.03446  22195848.914    22195856.717
       232.000         184.000
  22157704.217    -5157970.48949  -3997846.12946  22157704.281    22157713.078
       224.000         177.000
  24111983.171     7182759.62249   5587169.65645  24111983.231    24111993.002
       203.000         143.000
  22639446.796    -7767176.48049  -6027702.10846  22639445.578    22639454.865
       224.000         173.000
  22960840.354    -2292355.04549  -1768096.99146  22960840.061    22960848.953
       221.000         172.000
 03  3 20 22 21  0.0000000  0 10G23G16G 6G17G30G18G26G10G15G29
  21190515.397    -5692031.91549  -4405319.99047  21190514.902    21190522.976
       241.000         208.000
  23766132.245    -4894082.81549  -3797140.85145  23766131.440    23766139.913
       215.000         153.000
  20396318.401    -1259096.76449   -972101.00648  20396318.542    20396325.673
       243.000         213.000
  21095864.273    -2753028.28449  -2128795.72647  21095863.737    21095871.716
       240.000         209.000
  23525128.611     5336671.97849   4149870.70345  23525129.692    23525140.332
       216.000         160.000
  22179509.153    -6598263.80949  -5116600.86646  22179508.935    22179516.139
       231.000         185.000
  22148848.237    -5204508.89549  -4034109.73346  22148848.381    22148857.864
       224.000         177.000
  24132071.767     7288325.30449   5669428.56545  24132071.604    24132081.010
       208.000         143.000
  22627165.331    -7831715.52249  -6077992.19846  22627165.150    22627173.946
       225.000         174.000
  22959490.257    -2299449.65349  -1773625.22646  22959490.126    22959498.630
       221.000         172.000
 03  3 20 22 21 30.0000000  0 10G23G16G 6G17G30G18G26G10G15G29
  21180231.041    -5746076.19749  -4447432.35347  21180230.611    21180238.586
       241.000         208.000
  23755919.473    -4947751.51649  -3838960.57345  23755919.249    23755928.326
       215.000         154.000
  20400284.598    -1238254.17949   -955860.02848  20400284.647    20400291.631
       243.000         213.000
  21091632.073    -2775268.29349  -2146125.58447  21091631.447    21091639.520
       240.000         209.000
  23544827.385     5440188.56849   4230532.86645  23544828.754    23544839.591
       218.000         160.000
  22163230.541    -6683807.96149  -5183258.53246  22163229.935    22163237.670
       231.000         185.000
  22140091.356    -5250526.53749  -4069967.54046  22140091.234    22140100.625
       224.000         178.000
  24152177.709     7393982.24649   5751758.60545  24152177.995    24152186.786
       208.000         143.000
  22614909.654    -7896119.44049  -6128176.99846  22614909.334    22614917.247
       224.000         174.000
  22958239.307    -2306023.03249  -1778747.31446  22958239.182    22958248.017
       220.000         172.000
 03  3 20 22 22  0.0000000  0 10G23G16G 6G17G30G18G26G10G15G29
  21170031.628    -5799673.93949  -4489196.76947  21170030.953    21170039.303
       241.000         208.000
  23745798.757    -5000935.78349  -3880402.82545  23745798.886    23745806.122
       217.000         155.000
  20404337.748    -1216954.85149   -939263.14348  20404337.631    20404344.824
       243.000         213.000
  21087432.095    -2797339.30249  -2163323.76247  21087431.625    21087439.460
       240.000         209.000
  23564534.477     5543749.39949   4311229.48445  23564534.952    23564544.401
       217.000         159.000
  22147013.753    -6769027.12349  -5249662.95846  22147013.801    22147021.354
       232.000         186.000
  22131433.926    -5296021.23749  -4105417.87946  22131434.427    22131442.900
       223.000         178.000
  24172300.515     7499727.79349   5834157.68145  24172301.444    24172311.080
       211.000         144.000
  22602679.638    -7960388.66749  -6178256.84546  22602679.181    22602687.998
       224.000         175.000
  22957087.674    -2312074.64849  -1783462.84046  22957087.199    22957096.482
       220.000         172.000
 03  3 20 22 22 30.0000000  0 10G23G16G 6G17G30G18G26G10G15G29
  21159917.005    -5852826.51949  -4530614.30747  21159916.645    21159924.594
       241.000         209.000
  23735770.137    -5053636.56049  -3921468.32645  23735770.228    23735777.775
       215.000         155.000
  20408477.441    -1195200.62349   -922311.79448  20408477.405    20408484.566
       243.000         213.000
  21083263.870    -2819243.43649  -2180391.90347  21083263.341    21083271.350
       240.000         209.000
  23584248.926     5647349.33449   4391956.59745  23584250.623    23584260.328
       217.000         158.000
  22130858.668    -6853922.25949  -5315814.92946  22130858.346    22130865.536
       232.000         186.000
  22122876.028    -5340992.63149  -4140460.44446  22122875.412    22122885.083
       224.000         178.000
  24192439.281     7605557.27249   5916622.17345  24192439.463    24192448.218
       212.000         145.000
  22590474.692    -8024525.47549  -6228233.51146  22590474.420    22590483.363
       224.000         175.000
  22956034.964    -2317606.23749  -1787773.15946  22956034.988    22956044.151
       220.000         172.000
 03  3 20 22 23  0.0000000  0 10G23G16G 6G17G30G18G26G10G15G29
  21149887.704    -5905530.84849  -4571682.55847  21149887.148    21149895.405
       241.000         209.000
  23725834.236    -5105849.82549  -3962153.93945  23725833.727    23725842.244
       215.000         154.000
  20412704.183    -1172988.68349   -905003.78848  20412704.419    20412711.368
       243.000         213.000
  21079127.642    -2840979.42849  -2197329.02847  21079127.224    21079134.961
       241.000         209.000
  23603970.729     5750987.64649   4472713.60445  23603971.600    23603982.027
       216.000         158.000
  22114766.100    -6938489.23649  -5381711.17246  22114765.816    22114773.069
       233.000         187.000
  22114418.707    -5385435.93449  -4175091.51746  22114418.896    22114427.404
       224.000         178.000
  24212594.048     7711470.80849   5999152.16245  24212592.741    24212603.299
       213.000         145.000
  22578295.420    -8088527.64349  -6278105.26846  22578294.872    22578303.737
       225.000         175.000
  22955081.953    -2322614.34849  -1791675.55846  22955081.678    22955090.388
       220.000         171.000
 03  3 20 22 23 30.0000000  0 10G23G16G 6G17G30G18G26G10G15G29
  21139943.767    -5957786.37249  -4612401.09447  21139943.332    21139951.360
       241.000         209.000
  23715991.354    -5157574.25249  -4002458.65545  23715990.581    23715998.496
       213.000         154.000
  20417018.188    -1150318.53349   -887338.73648  20417018.252    20417025.399
       243.000         213.000
  21075023.333    -2862547.51349  -2214135.31747  21075023.035    21075030.691
       240.000         209.000
  23623699.217     5854661.38849   4553498.22045  23623699.653    23623710.251
       215.000         157.000
  22098736.248    -7022726.64449  -5447350.60346  22098735.644    22098743.475
       232.000         187.000
  22106062.372    -5429348.78649  -4209309.24146  22106063.201    22106071.313
       225.000         179.000
  24232764.261     7817465.64349   6081745.49045  24232764.126    24232773.422
       213.000         145.000
  22566141.818    -8152395.49049  -6327872.35346  22566141.136    22566149.648
       225.000         175.000
  22954228.615    -2327098.56449  -1795169.72646  22954228.258    22954237.227
       219.000         170.000
 03  3 20 22 24  0.0000000  0 10G23G16G 6G17G30G18G26G10G15G29
  21130084.949    -6009594.52649  -4652771.02747  21130084.537    21130092.573
       241.000         209.000
  23706241.378    -5208810.31749  -4042382.82545  23706241.421    23706249.293
       213.000         153.000
  20421419.088    -1127191.73349   -869317.85648  20421419.236    20421426.293
       243.000         213.000
  21070950.714    -2883949.36349  -2230812.07247  21070950.295    21070958.400
       240.000         209.000
  23643433.543     5958365.86149   4634306.76445  23643434.271    23643445.018
       215.000         157.000
  22082769.004    -7106634.80949  -5512733.47447  22082768.607    22082776.373
       232.000         188.000
  22097807.049    -5472730.52549  -4243113.12146  22097806.677    22097815.651
       225.000         179.000
  24252949.103     7923537.13849   6164398.57245  24252949.213    24252957.731
       213.000         145.000
  22554013.434    -8216130.88249  -6377536.22446  22554012.822    22554021.378
       225.000         175.000
  22953474.794    -2331060.04149  -1798256.56546  22953474.580    22953483.529
       221.000         171.000
 03  3 20 22 24 30.0000000  0 10G23G16G 6G17G30G18G26G10G15G29
  21120311.738    -6060952.92649  -4692790.50547  21120311.243    21120319.234
       242.000         209.000
  23696584.919    -5259554.66549  -4081923.82845  23696584.386    23696592.799
       214.000         154.000
  20425907.273    -1103606.32749   -850939.61548  20425907.219    20425914.406
       243.000         213.000
  21066909.934    -2905183.71849  -2247358.31147  21066909.452    21066917.463
       240.000         209.000
  23663173.527     6062099.84949   4715138.33145  23663174.255    23663184.960
       214.000         156.000
  22066864.977    -7190210.43349  -5577857.23947  22066864.977    22066872.047
       233.000         188.000
  22089653.524    -5515577.04649  -4276499.95246  22089653.461    22089662.965
       225.000         179.000
  24273148.446     8029684.98049   6247111.12745  24273147.849    24273158.625
       212.000         145.000
  22541910.427    -8279732.17349  -6427095.58646  22541909.960    22541918.598
       227.000         175.000
  22952820.892    -2334496.17249  -1800934.04046  22952820.433    22952829.847
       219.000         171.000
 03  3 20 22 25  0.0000000  0 10G23G16G 6G17G30G18G26G10G15G29
  21110624.292    -6111860.46049  -4732458.65047  21110623.839    21110631.787
       241.000         209.000
  23687022.431    -5309805.59149  -4121080.35745  23687022.446    23687029.899
       215.000         154.000
  20430482.786    -1079561.75549   -832203.58248  20430482.741    20430489.910
       243.000         213.000
  21062901.100    -2926250.17149  -2263773.71747  21062900.627    21062908.642
       240.000         209.000
  23682918.674     6165860.82049   4795990.91045  23682919.846    23682930.245
       216.000         156.000
  22051024.664    -7273451.60549  -5642720.37747  22051024.393    22051031.231
       233.000         188.000
  22081602.413    -5557885.63649  -4309467.61946  22081602.415    22081612.035
       225.000         180.000
  24293361.977     8135907.32649   6329881.74145  24293361.656    24293370.924
       212.000         146.000
  22529833.138    -8343198.74849  -6476549.98346  22529832.402    22529841.218
       227.000         176.000
  22952267.092    -2337406.03849  -1803201.44446  22952266.596    22952275.765
       220.000         171.000
 03  3 20 22 25 30.0000000  0 10G23G16G 6G17G30G18G26G10G15G29
  21101022.510    -6162317.93149  -4771776.10147  21101022.026    21101029.987
       241.000         209.000
  23677553.878    -5359563.13249  -4159852.42945  23677553.591    23677561.951
       212.000         154.000
  20435145.486    -1055059.02749   -813110.54948  20435145.503    20435152.609
       243.000         213.000
  21058923.785    -2947151.05449  -2280060.10947  21058923.581    21058931.389
       241.000         209.000
  23702668.204     6269644.55349   4876861.22545  23702668.464    23702679.545
       215.000         156.000
  22035247.955    -7356358.24249  -5707322.83747  22035246.976    22035254.522
       234.000         189.000
  22073653.829    -5599655.23149  -4342015.28046  22073653.957    22073663.414
       225.000         179.000
  24313588.885     8242200.32049   6412707.39545  24313587.664    24313597.865
       212.000         146.000
  22517781.087    -8406532.51449  -6525900.89946  22517780.235    22517788.515
       227.000         176.000
  22951813.463    -2339790.20549  -1805059.20346  22951814.000    22951822.040
       220.000         171.000
 03  3 20 22 26  0.0000000  0 10G23G16G 6G17G30G18G26G10G15G29
  21091506.486    -6212324.74549  -4810742.39147  21091506.164    21091514.001
       241.000         210.000
  23668179.389    -5408825.93949  -4198238.98845  23668178.991    23668186.854
       215.000         155.000
  20439895.421    -1030097.79349   -793660.23348  20439895.355    20439902.644
       243.000         213.000
  21054978.035    -2967886.42549  -2296217.52647  21054977.652    21054985.531
       241.000         209.000
  23722421.435     6373448.09649   4957746.97845  23722422.748    23722432.896
       218.000         157.000
  22019535.211    -7438928.95949  -5771663.56847  22019534.733    22019541.718
       234.000         189.000
  22065808.272    -5640883.38749  -4374141.04646  22065808.209    22065817.394
       224.000         179.000
  24333828.686     8348561.32749   6495586.04745  24333828.031    24333838.358
       211.000         145.000
  22505754.328    -8469733.38649  -6575148.25946  22505753.731    22505762.479
       227.000         177.000
  22951459.848    -2341648.29049  -1806507.02646  22951460.125    22951468.304
       221.000         172.000
 03  3 20 22 26 30.0000000  0 10G23G16G 6G17G30G18G26G10G15G29
  21082076.626    -6261878.74849  -4849355.84247  21082076.252    21082084.164
       243.000         210.000
  23658899.681    -5457590.81949  -4236237.55945  23658899.755    23658907.220
       215.000         155.000
  20444733.016    -1004676.06849   -773851.09948  20444733.016    20444740.312
       242.000         213.000
  21051064.005    -2988454.82049  -2312244.83947  21051063.382    21051071.448
       241.000         209.000
  23742178.404     6477270.36049   5038647.30245  23742179.281    23742189.584
       215.000         157.000
  22003886.955    -7521160.46449  -5835739.97547  22003886.316    22003893.170
       233.000         189.000
  22058066.562    -5681566.19249  -4405841.87846  22058066.878    22058075.925
       225.000         180.000
  24354081.353     8454989.61049   6578517.11745  24354080.631    24354092.501
       211.000         146.000
  22493753.226    -8532799.55449  -6624290.65746  22493752.709    22493761.272
       228.000         177.000
  22951206.864    -2342977.96349  -1807543.08446  22951207.100    22951215.743
       222.000         173.000
 03  3 20 22 27  0.0000000  0 10G23G16G 6G17G30G18G26G10G15G29
  21072732.910    -6310980.12949  -4887616.60347  21072732.501    21072740.463
       243.000         210.000
  23649714.880    -5505857.03049  -4273847.55145  23649714.114    23649722.477
       215.000         155.000
  20449658.136     -978794.33749   -753683.51648  20449658.216    20449665.310
       243.000         213.000
  21047181.503    -3008857.41449  -2328142.95447  21047181.040    21047188.727
       241.000         209.000
  23761938.164     6581107.57349   5119559.29145  23761939.592    23761949.951
       215.000         157.000
  21988303.335    -7603052.04149  -5899551.50747  21988302.775    21988309.840
       233.000         189.000
  22050428.879    -5721702.07449  -4437116.52146  22050429.006    22050437.815
       225.000         179.000
  24374346.184     8561482.07949   6661498.19345  24374345.792    24374355.647
       210.000         145.000
  22481777.486    -8595732.11349  -6673328.95446  22481777.200    22481785.101
       228.000         177.000
  22951054.301    -2343779.39649  -1808167.54746  22951054.086    22951062.954
       221.000         173.000
 03  3 20 22 27 30.0000000  0 10G23G16G 6G17G30G18G26G10G15G29
  21063475.332    -6359628.77449  -4925524.58147  21063474.790    21063482.852
       243.000         210.000
  23640625.076    -5553623.93249  -4311068.46045  23640624.856    23640632.711
       217.000         156.000
  20454670.774     -952453.00949   -733157.81148  20454670.926    20454677.917
       243.000         213.000
  21043330.491    -3029094.45149  -2343912.06047  21043330.056    21043338.053
       240.000         209.000
  23781700.037     6684956.55749   5200480.44445  23781700.591    23781711.519
       216.000         156.000
  21972784.578    -7684602.74149  -5963097.42747  21972784.228    21972791.484
       233.000         189.000
  22042895.709    -5761289.30349  -4467963.65046  22042896.151    22042904.017
       225.000         180.000
  24394622.734     8668035.60649   6744526.85145  24394622.824    24394632.746
       211.000         145.000
  22469827.063    -8658531.75449  -6722263.68846  22469826.663    22469835.069
       229.000         177.000
  22951002.275    -2344052.64449  -1808380.42146  22951002.282    22951010.391
       222.000         173.000
 03  3 20 22 28  0.0000000  0 10G23G16G 6G17G30G18G26G10G15G29
  21054304.035    -6407823.97449  -4963079.22747  21054303.629    21054311.257
       243.000         210.000
  23631630.784    -5600889.91249  -4347899.05645  23631631.292    23631638.202
       217.000         157.000
  20459770.942     -925651.51349   -712273.53348  20459770.905    20459778.122
       242.000         213.000
  21039510.990    -3049166.10349  -2359552.29347  21039510.670    21039518.348
       241.000         209.000
  23801463.762     6788814.67249   5281408.70045  23801464.469    23801475.309
       217.000         156.000
  21957331.072    -7765810.82249  -6026376.35947  21957330.137    21957337.814
       234.000         189.000
  22035467.448    -5800325.08849  -4498381.07646  22035467.593    22035476.072
       226.000         180.000
  24414910.571     8774648.52349   6827601.80545  24414910.439    24414920.639
       209.000         145.000
  22457902.084    -8721197.90149  -6771094.38946  22457901.368    22457910.443
       228.000         177.000
  22951050.965    -2343796.66849  -1808180.90846  22951051.238    22951059.247
       222.000         173.000
 03  3 20 22 28 30.0000000  0 10G23G16G 6G17G30G18G26G10G15G29
  21045219.245    -6455564.84749  -5000279.85547  21045218.778    21045226.644
       243.000         211.000
  23622732.181    -5647653.39149  -4384338.09945  23622731.743    23622739.554
       217.000         158.000
  20464958.816     -898389.20349   -691030.17648  20464958.784    20464965.859
       242.000         213.000
  21035722.897    -3069072.44849  -2375063.70947  21035722.462    21035730.298
       240.000         209.000
  23821228.668     6892679.37249   5362342.11445  23821228.976    23821240.616
       217.000         156.000
  21941943.067    -7846674.57949  -6089386.99247  21941942.899    21941949.995
       233.000         189.000
  22028144.560    -5838806.99949  -4528366.92046  22028144.803    22028153.516
       227.000         181.000
  24435209.323     8881318.66249   6910721.33145  24435209.476    24435219.596
       207.000         145.000
  22446002.457    -8783730.21349  -6819820.80746  22446002.006    22446010.016
       227.000         178.000
  22951200.526    -2343010.53549  -1807568.30846  22951200.235    22951209.141
       220.000         173.000
 03  3 20 22 29  0.0000000  0 10G23G16G 6G17G30G18G26G10G15G29
  21036221.060    -6502850.61749  -5037125.85547  21036220.538    21036228.577
       243.000         211.000
  23613929.319    -5693912.75149  -4420384.32045  23613929.057    23613936.654
       216.000         157.000
  20470234.445     -870665.55749   -669427.33847  20470234.202    20470241.520
       242.000         212.000
  21031966.373    -3088813.10049  -2390446.00847  21031966.003    21031973.678
       241.000         209.000
  23840994.401     6996548.28749   5443278.79545  23840994.953    23841005.209
       217.000         155.000
  21926621.030    -7927192.05749  -6152127.79447  21926620.806    21926627.709
       234.000         190.000
  22020927.532    -5876732.36549  -4557919.08146  22020927.629    22020935.916
       226.000         180.000
  24455518.573     8988044.26149   6993884.07745  24455517.657    24455528.274
       208.000         146.000
  22434128.350    -8846128.70249  -6868442.94946  22434127.797    22434136.496
       229.000         179.000
  22951451.105    -2341693.61649  -1806542.10446  22951450.621    22951459.929
       222.000         173.000
 03  3 20 22 29 30.0000000  0 10G23G16G 6G17G30G18G26G10G15G29
  21027309.616    -6549680.45349  -5073616.59247  21027309.207    21027317.192
       243.000         211.000
  23605222.647    -5739666.45149  -4456036.51845  23605222.574    23605229.547
       218.000         158.000
  20475597.863     -842480.14149   -647464.68447  20475597.759    20475605.148
       242.000         212.000
  21028241.370    -3108388.08749  -2405699.22347  21028240.812    21028248.774
       240.000         209.000
  23860760.458     7100418.82149   5524216.73745  23860760.689    23860772.001
       215.000         155.000
  21911365.211    -8007361.64949  -6214597.52047  21911364.698    21911372.011
       234.000         190.000
  22013816.816    -5914098.74049  -4587035.67746  22013816.282    22013825.114
       225.000         180.000
  24475837.889     9094823.05149   7077088.27245  24475837.830    24475848.548
       207.000         147.000
  22422279.894    -8908393.03449  -6916960.54546  22422279.339    22422287.683
       229.000         179.000
  22951802.821    -2339845.25249  -1805101.77946  22951802.728    22951811.170
       223.000         173.000
 03  3 20 22 30  0.0000000  0 10G23G16G 6G17G30G18G26G10G15G29
  21018484.802    -6596055.14049  -5109752.66347  21018484.306    21018492.147
       244.000         211.000
  23596612.375    -5784914.36149  -4491294.59945  23596611.576    23596619.622
       218.000         158.000
  20481049.026     -813833.97549   -625143.00247  20481048.975    20481056.253
       242.000         212.000
  21024547.500    -3127799.04449  -2420824.62047  21024547.129    21024555.015
       240.000         209.000
  23880525.826     7204286.75749   5605152.63945  23880526.216    23880537.341
       215.000         155.000
  21896175.624    -8087183.04049  -6276795.91947  21896175.143    21896182.315
       234.000         190.000
  22006812.686    -5950905.16649  -4615715.93946  22006812.741    22006821.389
       226.000         180.000
  24496166.701     9201651.48449   7160331.15245  24496166.247    24496176.558
       205.000         146.000
  22410456.642    -8970524.52749  -6965374.63146  22410455.764    22410464.618
       229.000         179.000
  22952255.640    -2337466.05349  -1803247.81946  22952255.714    22952264.326
       222.000         173.000
 03  3 20 22 30 30.0000000  0 10G23G16G 6G17G30G18G26G10G15G29
  21009746.804    -6641973.49349  -5145533.14847  21009746.315    21009753.992
       244.000         211.000
  23588098.660    -5829654.40349  -4526156.94045  23588098.519    23588105.766
       217.000         157.000
  20486588.135     -784726.03649   -602461.49047  20486588.330    20486595.377
       243.000         212.000
  21020885.048    -3147045.29549  -2435821.68347  21020884.684    21020892.635
       241.000         209.000
  23900290.395     7308150.22449   5686085.09445  23900291.143    23900302.934
       216.000         154.000
  21881052.660    -8166654.38249  -6338721.54847  21881052.533    21881059.892
       234.000         191.000
  21999915.732    -5987148.70349  -4643957.58646  21999915.236    21999924.298
       225.000         180.000
  24516504.708     9308528.01649   7243611.50145  24516503.688    24516514.870
       204.000         145.000
  22398658.691    -9032522.66549  -7013684.81446  22398657.582    22398666.828
       228.000         179.000
  22952809.677    -2334554.83749  -1800979.30146  22952809.581    22952817.780
       222.000         173.000
 03  3 20 22 31  0.0000000  0 10G23G16G 6G17G30G18G26G10G15G29
  21001095.766    -6687434.64049  -5180957.37347  21001095.534    21001102.916
       244.000         212.000
  23579681.719    -5873884.95849  -4560622.26445  23579680.737    23579688.845
       215.000         157.000
  20492215.252     -755155.68449   -579419.66747  20492215.404    20492222.235
       243.000         212.000
  21017254.044    -3166126.51949  -2450690.15347  21017253.778    21017261.570
       241.000         209.000
  23920053.651     7412006.91149   5767012.21545  23920054.151    23920066.046
       215.000         154.000
  21865996.715    -8245773.35649  -6400372.60847  21865996.356    21866004.408
       235.000         191.000
  21993126.328    -6022826.50549  -4671758.40146  21993126.046    21993134.478
       226.000         180.000
  24536851.569     9415451.06049   7326928.07445  24536850.722    24536861.735
       201.000         143.000
  22386886.211    -9094386.82549  -7061890.59646  22386886.021    22386894.077
       229.000         179.000
  22953465.158    -2331110.53949  -1798295.39446  22953465.017    22953473.237
       222.000         172.000
 03  3 20 22 31 30.0000000  0 10G23G16G 6G17G30G18G26G10G15G29
  20992531.782    -6732438.71349  -5216025.43247  20992531.393    20992538.815
       244.000         212.000
  23571361.887    -5917605.42549  -4594690.11545  23571361.766    23571369.029
       215.000         156.000
  20497930.209     -725123.47149   -556017.94847  20497930.258    20497937.293
       242.000         212.000
  21013654.240    -3185043.55349  -2465430.68447  21013653.750    21013661.636
       241.000         209.000
  23939814.946     7515853.46349   5847931.45745  23939815.840    23939828.267
       216.000         154.000
  21851007.984    -8324539.32049  -6461748.58747  21851007.722    21851015.120
       234.000         192.000
  21986444.921    -6057937.20649  -4699117.32246  21986444.961    21986453.731
       225.000         181.000
  24557206.708     9522417.77549   7410278.66045  24557204.771    24557215.753
       198.000         141.000
  22375139.242    -9156117.50249  -7109992.36846  22375137.994    22375147.492
       228.000         178.000
  22954221.906    -2327133.64849  -1795196.47246  22954221.843    22954229.564
       222.000         173.000
 03  3 20 22 32  0.0000000  0 10G23G16G 6G17G30G18G26G10G15G29
  20984054.946    -6776984.81949  -5250736.63047  20984054.551    20984061.859
       244.000         212.000
  23563139.429    -5960814.11549  -4628359.17745  23563138.908    23563145.595
       215.000         155.000
  20503733.227     -694628.54049   -532255.66547  20503733.341    20503740.282
       243.000         212.000
  21010085.821    -3203795.66249  -2480042.69647  21010085.231    21010093.324
       241.000         209.000
  23959573.978     7619687.70949   5928841.11145  23959574.891    23959585.937
       214.000         154.000
  21836086.784    -8402950.50349  -6522848.12147  21836086.482    21836093.723
       235.000         192.000
  21979871.933    -6092478.06149  -4726032.19446  21979872.221    21979881.132
       226.000         181.000
  24577569.852     9629426.29649   7493661.83045  24577569.912    24577580.769
       195.000         139.000
  22363417.775    -9217714.23549  -7157989.76846  22363416.859    22363424.672
       228.000         178.000
  22955080.280    -2322623.06449  -1791681.67346  22955080.508    22955088.344
       223.000         173.000
 03  3 20 22 32 30.0000000  0 10G23G16G 6G17G30G18G26G10G15G29
  20975665.276    -6821072.46949  -5285090.59747  20975664.889    20975672.493
       244.000         212.000
  23555014.667    -6003509.84549  -4661628.54245  23555014.443    23555022.020
       215.000         155.000
  20509624.288     -663670.95949   -508132.88447  20509624.233    20509631.377
       242.000         212.000
  21006548.823    -3222382.77749  -2494526.15047  21006548.339    21006556.489
       241.000         209.000
  23979330.269     7723506.79549   6009738.95645  23979332.024    23979343.672
       215.000         154.000
  21821233.428    -8481005.52049  -6583670.13647  21821233.265    21821240.364
       235.000         192.000
  21973407.848    -6126446.96949  -4752501.40146  21973407.886    21973416.367
       226.000         182.000
  24597940.529     9736474.60249   7577075.96545  24597937.962    24597949.999
       195.000         138.000
  22351721.704    -9279176.98749  -7205882.76546  22351720.096    22351729.781
       227.000         178.000
  22956040.176    -2317578.53549  -1787750.81946  22956040.264    22956048.604
       222.000         173.000
 03  3 20 22 33  0.0000000  0 10G23G16G 6G17G30G18G26G10G15G29
  20967362.689    -6864702.58449  -5319088.03647  20967362.287    20967369.723
       244.000         212.000
  23546987.652    -6045692.57649  -4694498.16645  23546987.650    23546995.016
       217.000         157.000
  20515603.135     -632251.85649   -483650.47447  20515603.323    20515610.341
       243.000         212.000
  21003042.792    -3240806.90349  -2508882.59347  21003042.356    21003050.084
       241.000         209.000
  23999082.925     7827306.83049   6090621.94045  23999083.850    23999096.011
       216.000         154.000
  21806447.877    -8558703.82549  -6644214.18247  21806447.680    21806454.896
       234.000         193.000
  21967052.784    -6159843.16449  -4778524.33646  21967053.126    21967061.981
       227.000         183.000
  24618318.131     9843559.02549   7660518.25845  24618317.014    24618327.975
       198.000         138.000
  22340050.843    -9340507.05449  -7253672.35746  22340050.135    22340058.959
       226.000         178.000
  22957101.435    -2312000.88749  -1783404.55246  22957102.009    22957110.022
       222.000         173.000
 03  3 20 22 33 30.0000000  0 10G23G16G 6G17G30G18G26G10G15G29
  20959147.379    -6907874.07649  -5352728.11247  20959146.895    20959154.533
       244.000         212.000
  23539058.613    -6087360.24649  -4726966.44845  23539058.349    23539066.365
       218.000         159.000
  20521669.979     -600370.38649   -458807.78047  20521670.133    20521677.185
       243.000         212.000
  20999567.925    -3259067.41449  -2523111.54347  20999567.582    20999575.412
       241.000         209.000
  24018831.643     7931085.73449   6171488.46545  24018832.888    24018843.984
       217.000         154.000
  21791730.577    -8636043.53949  -6704478.81447  21791730.059    21791737.496
       235.000         193.000
  21960807.235    -6192663.78649  -4804098.77546  21960807.130    21960815.765
       227.000         183.000
  24638702.328     9950678.11849   7743987.58645  24638701.792    24638711.814
       197.000         139.000
  22328405.316    -9401703.68649  -7301357.97446  22328404.787    22328413.305
       226.000         179.000
  22958264.441    -2305888.94549  -1778641.95546  22958264.364    22958272.257
       220.000         172.000
 03  3 20 22 34  0.0000000  0 10G23G16G 6G17G30G18G26G10G15G29
  20951019.559    -6950585.98749  -5386010.07447  20951019.101    20951026.587
       244.000         212.000
  23531227.876    -6128511.33949  -4759032.18645  23531227.530    23531235.243
       218.000         160.000
  20527824.964     -568025.75449   -433604.17747  20527824.962    20527832.173
       242.000         211.000
  20996124.260    -3277163.94649  -2537212.72147  20996123.836    20996131.556
       241.000         209.000
  24038576.045     8034841.33449   6252336.81845  24038576.890    24038587.643
       215.000         153.000
  21777081.957    -8713022.73649  -6764462.53047  21777081.840    21777088.856
       236.000         193.000
  21954671.689    -6224906.22649  -4829222.68446  21954671.577    21954680.177
       227.000         183.000
  24659092.779    10057830.59649   7827482.91845  24659092.565    24659102.186
       200.000         140.000
  22316785.497    -9462766.03549  -7348938.94946  22316785.101    22316793.516
       227.000         179.000
  22959529.235    -2299241.97849  -1773462.45646  22959529.249    22959538.161
       221.000         171.000
 03  3 20 22 34 30.0000000  0 10G23G16G 6G17G30G18G26G10G15G29
  20942978.975    -6992839.40149  -5418934.76547  20942978.578    20942986.062
       244.000         212.000
  23523495.247    -6169146.09249  -4790695.58945  23523494.803    23523502.381
       217.000         160.000
  20534067.809     -535219.44449   -408040.82447  20534067.931    20534074.832
       242.000         211.000
  20992711.583    -3295097.54349  -2551186.94047  20992711.268    20992718.896
       241.000         209.000
  24058314.892     8138569.60549   6333163.86745  24058315.225    24058326.949
       213.000         153.000
  21762501.913    -8789641.20549  -6824165.16147  21762501.674    21762508.709
       235.000         194.000
  21948646.283    -6256569.91249  -4853895.61846  21948646.288    21948654.627
       227.000         183.000
  24679488.808    10165012.44249   7911001.13445  24679488.196    24679499.440
       199.000         142.000
  22305190.953    -9523695.82949  -7396416.66346  22305191.197    22305198.580
       228.000         179.000
  22960895.679    -2292061.03249  -1767866.86646  22960895.253    22960903.987
       221.000         171.000
 03  3 20 22 35  0.0000000  0 10G23G16G 6G17G30G18G26G10G15G29
  20935026.285    -7034630.72249  -5451499.38647  20935025.773    20935033.461
       243.000         212.000
  23515861.671    -6209260.11849  -4821953.23245  23515861.788    23515869.086
       215.000         160.000
  20540399.146     -501948.12149   -382115.12147  20540399.068    20540406.364
       242.000         211.000
  20989330.522    -3312865.34249  -2565031.96547  20989330.029    20989337.788
       241.000         209.000
  24078048.672     8242271.01849   6413969.98645  24078049.783    24078060.785
       212.000         152.000
  21747991.315    -8865894.30849  -6883583.08847  21747990.759    21747997.792
       236.000         194.000
  21942731.958    -6287649.59049  -4878113.48746  21942732.432    21942740.597
       227.000         183.000
  24699890.709    10272224.90449   7994543.21645  24699891.231    24699900.281
       203.000         144.000
  22293622.276    -9584489.79249  -7443788.53646  22293622.057    22293629.401
       228.000         180.000
  22962364.313    -2284342.62249  -1761852.48146  22962363.996    22962372.407
       220.000         171.000
 03  3 20 22 35 30.0000000  0  9G23G16G 6G17G30G18G26G15G29
  20927160.959    -7075962.99249  -5483706.30247  20927160.598    20927168.040
       243.000         212.000
  23508326.655    -6248856.19749  -4852807.26945  23508325.545    23508334.104
       215.000         159.000
  20546818.289     -468215.08649   -355829.64247  20546818.374    20546825.572
       242.000         211.000
  20985980.264    -3330470.92749  -2578750.58347  20985979.938    20985987.689
       241.000         209.000
  24097776.273     8345939.39349   6494750.36445  24097776.936    24097788.690
       214.000         152.000
  21733549.691    -8941784.80849  -6942718.46747  21733549.367    21733556.544
       236.000         195.000
  21936928.566    -6318146.69649  -4901877.39846  21936928.780    21936937.497
       227.000         183.000
  22282078.807    -9645151.42249  -7491057.28546  22282078.308    22282086.573
       229.000         180.000
  22963934.569    -2276090.06749  -1755421.86546  22963933.979    22963942.530
       220.000         171.000
 03  3 20 22 36  0.0000000  0  9G23G16G 6G17G30G18G26G15G29
  20919383.445    -7116833.90349  -5515553.72247  20919382.933    20919390.635
       243.000         212.000
  23500890.940    -6287930.59449  -4883254.82545  23500891.232    23500897.758
       216.000         158.000
  20553325.746     -434018.23749   -329182.75747  20553325.879    20553332.870
       243.000         212.000
  20982661.335    -3347912.12349  -2592341.11047  20982660.606    20982668.581
       241.000         209.000
  24117497.512     8449574.21849   6575504.58445  24117498.393    24117510.060
       213.000         151.000
  21719177.912    -9017308.52849  -7001568.04847  21719177.766    21719184.925
       236.000         195.000
  21931236.759    -6348057.04249  -4925184.09646  21931237.130    21931245.101
       227.000         183.000
  22270560.874    -9705678.43549  -7538221.12446  22270559.742    22270568.943
       228.000         180.000
  22965607.079    -2267300.81249  -1748573.05646  22965607.391    22965615.848
       221.000         171.000
 03  3 20 22 36 30.0000000  0  9G23G16G 6G17G30G18G26G15G29
  20911693.403    -7157244.91549  -5547042.78247  20911692.896    20911700.787
       243.000         212.000
  23493554.492    -6326484.22749  -4913296.57845  23493554.081    23493561.765
       216.000         158.000
  20559921.204     -399359.17049   -302175.69847  20559921.313    20559928.500
       242.000         212.000
  20979373.184    -3365190.99449  -2605805.14947  20979372.722    20979380.636
       241.000         209.000
  24137211.398     8553171.01649   6656229.17145  24137211.906    24137223.675
       211.000         151.000
  21704875.843    -9092466.17649  -7060132.37747  21704875.537    21704882.566
       236.000         195.000
  21925656.603    -6377380.49549  -4948033.46546  21925656.404    21925664.846
       227.000         183.000
  22259068.193    -9766072.46949  -7585281.35046  22259067.498    22259076.723
       228.000         181.000
  22967381.534    -2257976.53649  -1741307.36146  22967381.383    22967389.775
       220.000         171.000
 03  3 20 22 37  0.0000000  0  9G23G16G 6G17G30G18G26G15G29
  20904091.091    -7197195.28849  -5578172.89548  20904090.759    20904098.311
       243.000         213.000
  23486317.432    -6364515.32349  -4942931.17245  23486316.671    23486324.472
       216.000         158.000
  20566604.697     -364237.14149   -274807.89147  20566604.886    20566611.765
       242.000         211.000
  20976116.167    -3382306.71249  -2619142.05347  20976115.867    20976123.336
       240.000         209.000
  24156917.765     8656728.01349   6736922.74745  24156918.313    24156930.548
       210.000         149.000
  21690643.798    -9167255.88749  -7118409.98947  21690643.280    21690650.205
       236.000         195.000
  21920188.630    -6406114.39749  -4970423.44246  21920188.309    21920196.963
       227.000         182.000
  22247601.020    -9826332.88349  -7632237.45146  22247600.107    22247609.037
       229.000         182.000
  22969257.914    -2248116.20549  -1733623.94946  22969258.263    22969265.549
       220.000         171.000
 03  3 20 22 37 30.0000000  0  9G23G16G 6G17G30G18G26G15G29
  20896576.742    -7236683.33249  -5608942.75448  20896576.161    20896583.926
       243.000         213.000
  23479180.097    -6402021.68449  -4972156.87545  23479179.692    23479187.063
       216.000         158.000
  20573376.511     -328650.99249   -247078.43747  20573376.508    20573383.712
       242.000         211.000
  20972890.429    -3399258.05449  -2632350.86847  20972890.040    20972897.837
       241.000         209.000
  24176616.374     8760243.78849   6817584.20245  24176616.597    24176629.406
       210.000         149.000
  21676482.274    -9241674.87949  -7176398.74147  21676482.074    21676488.913
       236.000         196.000
  21914833.410    -6434255.74149  -4992351.68746  21914833.237    21914841.385
       227.000         182.000
  22236159.551    -9886458.30449  -7679088.37046  22236159.157    22236167.477
       229.000         182.000
  22971236.499    -2237718.45449  -1725521.77146  22971236.504    22971244.984
       220.000         170.000
 03  3 20 22 38  0.0000000  0  9G23G16G 6G17G30G18G26G15G29
  20889149.899    -7275711.28949  -5639354.10348  20889149.373    20889156.959
       243.000         213.000
  23472142.397    -6439004.75449  -5000974.82545  23472142.064    23472149.178
       218.000         157.000
  20580236.142     -292603.39849   -218989.40947  20580236.119    20580243.429
       242.000         211.000
  20969695.501    -3416047.58649  -2645433.60147  20969695.242    20969702.847
       241.000         210.000
  24196306.113     8863713.17049   6898209.49145  24196306.426    24196318.391
       210.000         149.000
  21662391.013    -9315724.42849  -7234099.60947  21662390.779    21662397.840
       237.000         196.000
  21909590.897    -6461804.93249  -5013818.50346  21909590.856    21909599.536
       228.000         182.000
  22224743.286    -9946451.21149  -7725836.03546  22224742.521    22224750.854
       229.000         182.000
  22973316.895    -2226785.60249  -1717002.62146  22973316.674    22973324.416
       219.000         170.000
 03  3 20 22 38 30.0000000  0  9G23G16G 6G17G30G18G26G15G29
  20881810.906    -7314277.87649  -5669405.94748  20881810.603    20881817.977
       243.000         213.000
  23465204.779    -6475462.54849  -5029383.47645  23465204.687    23465211.573
       217.000         158.000
  20587183.802     -256093.23649   -190539.94647  20587183.869    20587191.002
       242.000         211.000
  20966531.557    -3432674.48649  -2658389.61347  20966531.232    20966538.915
       241.000         210.000
  24215986.600     8967134.53749   6978797.38245  24215987.321    24215999.025
       212.000         149.000
  21648370.623    -9389402.14449  -7291510.75147  21648370.895    21648377.316
       237.000         196.000
  21904461.652    -6488759.24349  -5034821.79146  21904461.827    21904470.347
       228.000         183.000
  22213352.397   -10006310.20749  -7772479.34546  22213351.247    22213359.551
       228.000         181.000
  22975499.322    -2215316.58949  -1708065.69446  22975499.043    22975507.663
       220.000         169.000
 03  3 20 22 39  0.0000000  0  9G23G16G 6G17G30G18G26G15G29
  20874559.775    -7352382.80149  -5699098.05348  20874559.373    20874566.894
       243.000         213.000
  23458367.253    -6511394.03149  -5057382.00445  23458367.140    23458373.804
       217.000         159.000
  20594219.501     -219120.31949   -161729.89047  20594219.369    20594226.571
       242.000         211.000
  20963398.504    -3449138.79349  -2671218.92747  20963398.161    20963405.948
       241.000         210.000
  24235657.525     9070505.27249   7059345.80745  24235659.282    24235671.189
       212.000         148.000
  21634421.201    -9462706.77649  -7348631.17247  21634421.042    21634427.732
       237.000         196.000
  21899445.985    -6515116.76549  -5055360.03346  21899445.789    21899454.499
       228.000         183.000
  22201986.907   -10066035.29649  -7819018.31046  22201985.845    22201994.747
       227.000         180.000
  22977783.927    -2203311.02149  -1698710.66446  22977784.061    22977792.579
       221.000         170.000
 03  3 20 22 39 30.0000000  0  9G23G16G 6G17G30G18G26G15G29
  20867396.670    -7390025.04349  -5728429.63248  20867396.312    20867403.867
       243.000         213.000
  23451630.138    -6546797.37849  -5084968.98645  23451629.934    23451637.331
       216.000         159.000
  20601343.434     -181683.86449   -132558.64047  20601343.457    20601350.549
       242.000         211.000
  20960296.608    -3465439.50649  -2683920.76847  20960296.239    20960303.790
       241.000         210.000
  24255318.717     9173823.73749   7139853.48445  24255320.001    24255331.428
       211.000         149.000
  21620543.252    -9535635.89649  -7405458.98747  21620542.810    21620549.855
       237.000         197.000
  21894544.343    -6540874.81749  -5075431.16846  21894544.332    21894552.755
       228.000         183.000
  22190647.139   -10125625.49849  -7865452.16646  22190647.125    22190655.101
       228.000         182.000
  22980170.683    -2190768.25649  -1688937.04846  22980170.829    22980178.073
       221.000         171.000
 03  3 20 22 40  0.0000000  0  9G23G16G 6G17G30G18G26G15G29
  20860321.292    -7427206.28549  -5757401.99148  20860320.730    20860328.420
       243.000         213.000
  23444993.444    -6581673.36749  -5112145.04545  23444993.699    23444999.739
       216.000         159.000
  20608555.174     -143785.85649   -103027.73447  20608555.204    20608562.341
       242.000         211.000
  20957225.457    -3481578.47349  -2696496.56847  20957225.165    20957232.518
       241.000         210.000
  24274969.118     9277085.59149   7220317.06445  24274969.838    24274981.774
       209.000         148.000
  21606736.537    -9608190.40949  -7461994.89247  21606736.288    21606743.136
       237.000         197.000
  21889756.767    -6566033.29249  -5095035.10946  21889756.377    21889764.985
       228.000         183.000
  22179332.858   -10185082.60549  -7911782.31146  22179332.358    22179340.716
       230.000         183.000
  22982659.456    -2177689.74249  -1678745.95346  22982659.166    22982667.322
       221.000         171.000
 03  3 20 22 40 30.0000000  0  9G23G16G 6G17G30G18G26G15G29
  20853334.005    -7463924.66349  -5786013.67448  20853333.588    20853340.800
       244.000         213.000
  23438457.615    -6616019.52949  -5138908.24345  23438457.474    23438465.576
       217.000         159.000
  20615855.025     -105424.81049    -73136.01447  20615855.031    20615862.287
       242.000         211.000
  20954185.369    -3497554.26649  -2708945.22047  20954184.760    20954192.605
       241.000         210.000
  24294608.203     9380289.81049   7300735.72345  24294609.152    24294620.369
       210.000         146.000
  21593001.606    -9680367.42449  -7518236.64247  21593001.146    21593008.143
       237.000         197.000
  21885083.855    -6590588.94849  -5114169.31446  21885083.932    21885092.830
       227.000         183.000
  22168044.253   -10244404.83249  -7958007.35846  22168043.583    22168051.891
       230.000         184.000
  22985250.403    -2164074.00649  -1668136.24846  22985250.392    22985258.578
       222.000         171.000
 03  3 20 22 41  0.0000000  0  9G23G16G 6G17G30G18G26G15G29
  20846434.499    -7500181.50649  -5814265.72148  20846434.224    20846441.366
       244.000         213.000
  23432022.389    -6649836.54749  -5165259.13045  23432022.249    23432028.959
       216.000         159.000
  20623242.765      -66602.15949    -42884.60147  20623242.696    20623249.968
       242.000         210.000
  20951176.090    -3513367.86349  -2721267.48447  20951175.473    20951183.458
       240.000         210.000
  24314235.831     9483432.26449   7381106.25745  24314236.654    24314248.047
       212.000         147.000
  21579338.534    -9752167.04849  -7574184.32947  21579338.135    21579345.083
       237.000         197.000
  21880525.814    -6614541.51549  -5132833.58746  21880525.977    21880533.770
       227.000         183.000
  22156780.976   -10303593.78849  -8004128.54746  22156779.930    22156788.562
       229.000         183.000
  22987943.393    -2149922.27949  -1657108.88746  22987943.458    22987950.897
       222.000         171.000
 03  3 20 22 41 30.0000000  0  9G23G16G 6G17G30G18G26G15G29
  20839623.033    -7535975.95249  -5842157.45648  20839622.669    20839629.849
       243.000         213.000
  23425688.115    -6683122.64849  -5191196.31345  23425688.084    23425695.137
       217.000         158.000
  20630718.442      -27317.17149    -12272.93247  20630718.501    20630725.692
       242.000         210.000
  20948197.747    -3529018.81149  -2733463.00547  20948197.245    20948204.853
       241.000         210.000
  24333851.347     9586511.32949   7461427.38945  24333852.764    24333865.089
       210.000         147.000
  21565747.686    -9823587.22349  -7629836.34947  21565747.254    21565754.385
       237.000         198.000
  21876082.973    -6637888.54549  -5151026.00646  21876083.443    21876090.977
       229.000         183.000
  22145543.062   -10362648.43549  -8050145.08946  22145542.570    22145550.167
       229.000         182.000
  22990738.431    -2135234.07749  -1645663.51546  22990738.783    22990746.740
       220.000         171.000
 03  3 20 22 42  0.0000000  0  9G23G16G 6G17G30G18G26G15G29
  20832899.499    -7571308.03549  -5869688.91148  20832898.954    20832906.492
       243.000         213.000
  23419455.107    -6715877.14349  -5216719.25145  23419455.009    23419461.936
       216.000         158.000
  20638282.006       12429.73149     18698.67347  20638281.965    20638289.133
       241.000         210.000
  20945250.462    -3544507.03849  -2745531.73147  20945249.925    20945257.890
       241.000         210.000
  24353454.114     9689524.16549   7541696.91245  24353454.484    24353466.485
       208.000         146.000
  21552229.270    -9894626.80649  -7685191.79347  21552228.982    21552235.921
       237.000         198.000
  21871755.714    -6660628.47149  -5168745.36446  21871756.118    21871764.125
       229.000         184.000
  22134330.897   -10421568.72249  -8096056.95446  22134330.122    22134338.037
       230.000         183.000
  22993635.610    -2120009.29749  -1633800.01946  22993635.857    22993643.986
       221.000         171.000
 03  3 20 22 42 30.0000000  0  9G23G16G 6G17G30G18G26G15G29
  20826264.059    -7606177.27649  -5896859.70648  20826263.468    20826271.168
       244.000         213.000
  23413323.530    -6748098.83849  -5241827.02345  23413323.384    23413330.862
       217.000         158.000
  20645933.512       52638.60049     50030.25447  20645933.418    20645940.611
       242.000         210.000
  20942334.170    -3559832.31649  -2757473.48347  20942333.814    20942341.428
       241.000         210.000
  24373043.953     9792468.63349   7621913.16545  24373045.202    24373056.906
       208.000         146.000
  21538783.620    -9965284.28049  -7740249.48547  21538783.201    21538789.924
       238.000         198.000
  21867544.288    -6682759.32649  -5185990.11146  21867544.184    21867552.565
       229.000         185.000
  22123144.431   -10480354.08249  -8141863.67846  22123144.386    22123152.349
       231.000         183.000
  22996634.940    -2104247.82649  -1621518.31746  22996634.591    22996642.940
       221.000         170.000
 03  3 20 22 43  0.0000000  0  9G23G16G 6G17G30G18G26G15G29
  20819716.559    -7640584.23449  -5923670.28448  20819716.180    20819723.579
       243.000         213.000
  23407293.431    -6779787.65149  -5266519.57045  23407293.778    23407300.451
       216.000         158.000
  20653672.767       93308.72549     81721.25047  20653672.740    20653680.143
       241.000         210.000
  20939448.792    -3574995.32049  -2769288.79747  20939448.282    20939455.818
       241.000         211.000
  24392620.089     9895341.43749   7702073.56045  24392620.900    24392632.288
       208.000         145.000
  21525410.713   -10035559.12049  -7795009.03047  21525410.538    21525417.321
       237.000         198.000
  21863448.972    -6704280.07649  -5202759.45846  21863449.289    21863456.995
       228.000         185.000
  22111983.465   -10539005.26349  -8187565.84746  22111983.143    22111991.218
       230.000         184.000
  22999736.175    -2087950.26149  -1608818.89246  22999735.974    22999743.917
       220.000         169.000
 03  3 20 22 43 30.0000000  0  9G23G16G 6G17G30G18G26G15G29
  20813256.992    -7674529.46449  -5950121.06948  20813256.492    20813264.076
       243.000         214.000
  23401364.641    -6810943.58949  -5290796.88345  23401363.973    23401370.747
       215.000         158.000
  20661499.640      134439.31849    113771.06447  20661499.571    20661506.615
       241.000         209.000
  20936594.152    -3589996.38349  -2780977.90847  20936593.718    20936601.461
       241.000         211.000
  24412182.153     9998139.54549   7782175.74745  24412184.366    24412194.716
       207.000         145.000
  21512110.697   -10105450.71849  -7849469.93847  21512110.036    21512116.803
       237.000         198.000
  21859469.910    -6725189.84949  -5219052.70446  21859470.234    21859478.014
       228.000         184.000
  22100847.828   -10597522.80849  -8233163.86746  22100847.352    22100855.469
       229.000         184.000
  23002939.334    -2071117.35449  -1595702.31946  23002938.837    23002947.079
       220.000         169.000
 03  3 20 22 44  0.0000000  0  9G23G16G 6G17G30G18G26G15G29
  20806885.725    -7708010.71349  -5976210.31548  20806885.363    20806892.808
       244.000         214.000
  23395537.827    -6841563.40949  -5314656.45145  23395537.057    23395543.740
       217.000         158.000
  20669414.568      176032.44549    146181.28847  20669414.512    20669421.655
       241.000         209.000
  20933770.803    -3604833.28949  -2792539.11647  20933770.362    20933777.871
       241.000         211.000
  24431729.733    10100862.55849   7862219.42245  24431730.985    24431742.894
       206.000         143.000
  21498884.227   -10174955.68949  -7903629.58747  21498883.972    21498890.624
       237.000         198.000
  21855607.899    -6745484.68649  -5234866.78246  21855608.007    21855615.909
       227.000         184.000
  22089738.012   -10655904.38349  -8278655.94346  22089737.283    22089745.628
       229.000         184.000
  23006244.757    -2053746.90149  -1582166.88446  23006244.199    23006253.203
       219.000         169.000
 03  3 20 22 44 30.0000000  0  9G23G16G 6G17G30G18G26G15G29
  20800602.372    -7741029.86949  -6001939.48848  20800601.833    20800609.387
       244.000         214.000
  23389812.885    -6871648.19249  -5338099.10945  23389812.790    23389819.601
       216.000         158.000
  20677417.093      218086.11149    178950.36447  20677417.232    20677424.171
       241.000         209.000
  20930978.191    -3619508.33449  -2803974.19947  20930977.616    20930985.356
       241.000         210.000
  24451262.227    10203506.31949   7942201.33245  24451263.572    24451276.125
       208.000         144.000
  21485731.299   -10244074.81649  -7957488.57747  21485730.968    21485737.557
       237.000         198.000
  21851862.761    -6765165.01949  -5250202.02446  21851863.150    21851870.284
       226.000         183.000
  22078653.839   -10714151.48349  -8324043.23346  22078653.476    22078661.834
       229.000         183.000
  23009652.044    -2035840.98649  -1568214.18246  23009651.790    23009660.224
       219.000         169.000
 03  3 20 22 45  0.0000000  0  9G23G16G 6G17G30G18G26G15G29
  20794406.919    -7773586.88849  -6027308.55048  20794406.532    20794413.928
       244.000         214.000
  23384189.742    -6901197.46649  -5361124.48545  23384188.803    23384196.714
       215.000         158.000
  20685507.274      260600.09249    212078.13047  20685507.311    20685514.355
       241.000         209.000
  20928216.444    -3634021.26049  -2815282.95247  20928215.838    20928223.582
       241.000         210.000
  24470779.367    10306068.04249   8022119.30645  24470779.852    24470793.924
       207.000         144.000
  21472652.013   -10312806.79749  -8011045.89547  21472651.713    21472658.235
       238.000         198.000
  21848234.857    -6784229.34249  -5265057.25946  21848234.852    21848242.840
       228.000         183.000
  22067595.350   -10772264.08449  -8369325.73446  22067594.792    22067603.013
       230.000         184.000
  23013161.261    -2017399.62249  -1553844.25246  23013160.950    23013169.452
       219.000         168.000
 03  3 20 22 45 30.0000000  0  9G23G16G 6G17G30G18G26G15G29
  20788299.344    -7805682.26049  -6052317.89448  20788299.010    20788306.445
       244.000         215.000
  23378668.626    -6930210.77149  -5383732.23645  23378668.844    23378675.742
       217.000         159.000
  20693684.846      303573.57349    245563.94747  20693684.900    20693692.090
       241.000         209.000
  20925485.520    -3648372.06149  -2826465.38447  20925485.058    20925492.537
       241.000         210.000
  24490280.112    10408544.96449   8101971.20445  24490281.591    24490293.654
       205.000         144.000
  21459646.519   -10381151.09549  -8064301.13547  21459646.086    21459652.454
       238.000         199.000
  21844724.456    -6802676.44849  -5279431.55546  21844724.282    21844732.484
       226.000         183.000
  22056562.490   -10830242.58649  -8414503.73146  22056561.860    22056570.066
       230.000         184.000
  23016772.231    -1998423.64049  -1539057.74246  23016772.100    23016780.657
       219.000         168.000
 03  3 20 22 46  0.0000000  0  9G23G16G 6G17G30G18G26G15G29
  20782279.937    -7837314.51849  -6076966.36548  20782279.777    20782287.113
       244.000         215.000
  23373250.028    -6958685.98349  -5405920.67745  23373249.586    23373257.232
       217.000         160.000
  20701950.179      347007.94549    279408.90047  20701950.388    20701957.529
       241.000         209.000
  20922785.803    -3662559.38149  -2837520.42247  20922785.247    20922793.142
       241.000         211.000
  24509764.680    10510935.93549   8181756.14545  24509765.462    24509779.183
       206.000         144.000
  21446715.246   -10449104.95749  -8117252.12747  21446714.928    21446721.528
       238.000         199.000
  21841331.992    -6820503.53649  -5293322.72246  21841332.010    21841340.473
       227.000         183.000
  22045555.339   -10888085.26349  -8459575.88346  22045555.100    22045562.795
       230.000         184.000
  23020485.315    -1978911.44149  -1523853.39446  23020485.090    23020493.066
       219.000         168.000
 03  3 20 22 46 30.0000000  0  9G23G16G 6G17G30G18G26G15G29
  20776348.284    -7868485.67949  -6101255.53848  20776347.994    20776355.185
       244.000         215.000
  23367933.468    -6986624.50449  -5427690.92845  23367932.737    23367940.579
       219.000         161.000
  20710302.750      390900.90149    313611.19047  20710302.756    20710310.040
       241.000         209.000
  20920116.752    -3676585.21649  -2848449.62147  20920116.465    20920123.863
       242.000         211.000
  24529231.831    10613236.59949   8261470.68445  24529232.066    24529246.077
       204.000         144.000
  21433858.131   -10516669.27249  -8169899.58247  21433857.819    21433864.417
       237.000         199.000
  21838057.340    -6837711.18349  -5306731.20446  21838057.617    21838065.500
       228.000         183.000
  22034573.556   -10945794.11749  -8504543.75646  22034572.713    22034581.284
       229.000         184.000
  23024299.833    -1958865.58549  -1508233.21146  23024300.219    23024307.764
       221.000         168.000
 03  3 20 22 47  0.0000000  0  9G23G16G 6G17G30G18G26G15G29
  20770504.560    -7899194.36649  -6125184.34748  20770504.259    20770511.516
       244.000         215.000
  23362719.407    -7014024.34749  -5449041.43045  23362719.286    23362726.461
       218.000         160.000
  20718742.777      435253.41349    348171.57547  20718743.143    20718750.189
       240.000         209.000
  20917478.770    -3690448.00449  -2859251.77447  20917478.381    20917485.874
       241.000         211.000
  24548681.577    10715445.92749   8341114.05745  24548682.631    24548695.671
       205.000         143.000
  21421075.615   -10583841.59249  -8222241.58747  21421075.208    21421081.704
       239.000         200.000
  21834901.237    -6854296.60449  -5319654.84646  21834901.522    21834909.713
       228.000         184.000
  22023617.550   -11003367.58449  -8549406.13146  22023616.677    22023625.251
       228.000         184.000
  23028216.332    -1938284.71549  -1492196.13046  23028216.857    23028224.515
       220.000         169.000
 03  3 20 22 47 30.0000000  0  9G23G16G 6G17G30G18G26G15G29
  20764748.748    -7929441.13149  -6148753.21748  20764748.334    20764755.983
       244.000         215.000
  23357607.891    -7040885.25249  -5469971.98145  23357606.955    23357615.172
       218.000         160.000
  20727270.185      480064.90749    383089.61347  20727270.199    20727277.803
       241.000         209.000
  20914871.643    -3704148.33349  -2869927.33547  20914871.236    20914878.800
       241.000         211.000
  24568113.625    10817560.93949   8420683.93845  24568114.968    24568128.136
       204.000         142.000
  21408367.828   -10650621.25649  -8274277.62047  21408367.456    21408374.105
       239.000         200.000
  21831863.815    -6870258.79749  -5332092.86246  21831864.355    21831871.869
       228.000         184.000
  22012687.415   -11060805.68649  -8594163.03846  22012687.713    22012695.648
       230.000         185.000
  23032234.336    -1917169.68749  -1475742.82546  23032234.616    23032241.995
       220.000         169.000
 03  3 20 22 48  0.0000000  0  9G23G16G 6G17G30G18G26G15G29
  20759080.950    -7959225.74349  -6171961.96348  20759080.548    20759087.961
       244.000         215.000
  23352599.195    -7067206.24849  -5490481.83145  23352598.922    23352606.184
       218.000         160.000
  20735884.836      525335.27949    418365.21047  20735884.976    20735892.115
       240.000         209.000
  20912295.541    -3717685.72349  -2880475.93447  20912295.119    20912302.860
       241.000         211.000
  24587527.329    10919579.48549   8500178.64645  24587528.508    24587541.236
       204.000         141.000
  21395734.970   -10717007.03149  -8326006.73047  21395734.621    21395741.056
       239.000         200.000
  21828945.181    -6885596.02249  -5344043.87846  21828944.496    21828953.456
       227.000         184.000
  22001783.185   -11118108.19149  -8638814.29046  22001782.853    22001790.759
       230.000         186.000
  23036354.026    -1895520.20649  -1458873.07746  23036353.884    23036362.309
       220.000         168.000
 03  3 20 22 48 30.0000000  0  9G23G16G 6G17G30G18G26G15G29
  20753500.647    -7988550.28949  -6194812.21748  20753500.271    20753507.623
       244.000         215.000
  23347692.892    -7092988.83649  -5510572.12945  23347693.238    23347699.724
       219.000         160.000
  20744586.373      571062.20449    453996.57747  20744586.392    20744593.636
       241.000         208.000
  20909750.139    -3731061.89249  -2890898.90747  20909749.941    20909757.223
       241.000         211.000
  24606921.792    11021497.14549   8579594.72845  24606922.982    24606935.856
       203.000         140.000
  21383176.901   -10782999.82649  -8377429.62747  21383176.345    21383183.351
       239.000         201.000
  21826145.324    -6900309.02449  -5355508.49446  21826145.214    21826153.696
       228.000         184.000
  21990904.350   -11175276.72749  -8683361.15146  21990903.414    21990911.289
       230.000         186.000
  23040575.020    -1873338.72749  -1441588.78346  23040574.242    23040583.733
       220.000         168.000
 03  3 20 22 49  0.0000000  0  9G23G16G 6G17G30G18G26G15G29
  20748008.411    -8017411.92549  -6217301.75948  20748007.833    20748015.338
       244.000         215.000
  23342889.741    -7118229.56449  -5530240.22645  23342889.304    23342896.277
       218.000         160.000
  20753375.332      617248.27749    489985.71347  20753375.377    20753382.429
       241.000         208.000
  20907235.988    -3744273.92549  -2901193.98247  20907235.552    20907243.198
       242.000         211.000
  24626297.239    11123314.39549   8658932.56745  24626298.598    24626310.831
       202.000         140.000
  21370694.387   -10848595.41849  -8428543.01847  21370694.216    21370700.935
       239.000         201.000
  21823465.060    -6914393.60349  -5366483.42446  21823464.980    21823473.116
       227.000         184.000
  21980051.555   -11232308.31449  -8727801.29846  21980050.658    21980059.254
       229.000         185.000
  23044897.782    -1850622.58949  -1423887.86146  23044897.849    23044906.074
       220.000         169.000
 03  3 20 22 49 30.0000000  0  9G23G16G 6G17G30G18G26G15G29
  20742603.623    -8045813.98649  -6239433.19748  20742603.295    20742610.578
       244.000         215.000
  23338189.196    -7142930.97949  -5549488.06645  23338188.798    23338196.430
       217.000         161.000
  20762251.008      663890.19049    526330.04747  20762251.063    20762258.437
       241.000         208.000
  20904752.511    -3757324.68649  -2911363.39247  20904751.891    20904759.687
       242.000         211.000
  24645652.645    11225025.71349   8738187.85645  24645654.398    24645666.798
       204.000         141.000
  21358287.066   -10913795.98049  -8479348.59347  21358286.676    21358293.684
       239.000         202.000
  21820903.988    -6927851.62549  -5376970.14246  21820904.572    21820911.658
       228.000         184.000
  21969224.205   -11289205.93649  -8772137.06946  21969224.013    21969232.184
       231.000         186.000
  23049321.620    -1827375.32449  -1405773.07546  23049322.186    23049329.999
       220.000         170.000
 03  3 20 22 50  0.0000000  0  9G23G16G 6G17G30G18G26G15G29
  20737286.515    -8073755.19249  -6261205.52348  20737286.086    20737293.552
       244.000         215.000
  23333591.699    -7167091.16949  -5568314.16445  23333591.181    23333598.132
       219.000         162.000
  20771213.571      710988.74049    563030.20947  20771213.538    20771220.831
       240.000         208.000
  20902299.935    -3770212.93249  -2921406.16747  20902299.439    20902307.021
       241.000         211.000
  24664987.764    11326630.22049   8817359.93045  24664988.734    24665001.062
       205.000         140.000
  21345955.401   -10978599.09949  -8529844.46347  21345955.103    21345961.783
       239.000         202.000
  21818462.780    -6940680.31349  -5386966.45746  21818463.662    21818471.266
       229.000         185.000
  21958422.863   -11345967.87849  -8816367.09946  21958422.311    21958430.569
       231.000         187.000
  23053846.713    -1803595.77549  -1387243.53946  23053847.164    23053855.466
       219.000         170.000
 03  3 20 22 50 30.0000000  0  9G23G16G 6G17G30G18G26G15G29
  20732056.961    -8101236.44149  -6282619.44548  20732056.536    20732063.982
       244.000         215.000
  23329097.032    -7190710.69349  -5586718.96646  23329096.692    23329104.670
       219.000         163.000
  20780262.798      758542.78749    600085.30247  20780262.833    20780270.013
       241.000         208.000
  20899878.217    -3782939.12349  -2931322.66347  20899877.836    20899885.200
       241.000         211.000
  24684301.808    11428124.54049   8896446.12745  24684303.073    24684316.919
       203.000         139.000
  21333699.311   -11043004.92349  -8580030.75947  21333699.017    21333705.943
       240.000         202.000
  21816141.374    -6952879.45149  -5396472.22046  21816141.649    21816149.485
       229.000         185.000
  21947647.164   -11402594.79149  -8860491.91447  21947646.690    21947654.623
       231.000         188.000
  23058472.779    -1779285.22749  -1368300.23346  23058472.542    23058480.513
       219.000         169.000
 03  3 20 22 51  0.0000000  0  8G23G16G 6G17G18G26G15G29
  20726915.860    -8128252.90549  -6303671.19748  20726915.515    20726922.880
       244.000         215.000
  23324706.266    -7213783.93449  -5604698.07946  23324705.722    23324713.404
       219.000         163.000
  20789399.590      806556.99549    637498.96247  20789399.548    20789406.885
       240.000         208.000
  20897488.343    -3795497.81349  -2941108.63847  20897487.950    20897495.531
       242.000         211.000
  21321520.134   -11107006.90849  -8629902.37347  21321519.829    21321526.185
       240.000         202.000
  21813940.942    -6964442.71349  -5405482.50046  21813941.263    21813948.845
       228.000         185.000
  21936898.074   -11459081.34049  -8904507.34346  21936897.302    21936905.541
       231.000         187.000
  23063200.849    -1754438.95149  -1348939.47346  23063201.198    23063208.489
       220.000         169.000
 03  3 20 22 51 30.0000000  0  8G23G16G 6G17G18G26G15G29
  20721862.375    -8154809.06449  -6324364.27348  20721862.003    20721869.345
       243.000         215.000
  23320418.780    -7236314.80449  -5622254.58146  23320419.140    23320425.374
       219.000         163.000
  20798623.077      855026.73549    675267.58347  20798622.933    20798630.357
       240.000         208.000
  20895129.488    -3807893.62749  -2950767.70347  20895129.273    20895136.605
       241.000         211.000
  21309417.103   -11170608.55249  -8679462.03647  21309416.758    21309423.071
       240.000         202.000
  21811860.839    -6975373.23949  -5413999.74246  21811860.553    21811869.075
       228.000         185.000
  21926174.869   -11515431.63049  -8948416.61846  21926173.876    21926182.085
       230.000         187.000
  23068029.949    -1729061.89349  -1329165.13846  23068030.165    23068038.095
       220.000         168.000
 03  3 20 22 52  0.0000000  0  8G23G16G 6G17G18G26G15G29
  20716896.011    -8180907.36549  -6344700.57448  20716895.462    20716903.014
       244.000         215.000
  23316234.230    -7258304.72649  -5639389.55246  23316234.097    23316241.492
       219.000         163.000
  20807932.675      903949.18949    713388.96347  20807932.568    20807939.929
       240.000         208.000
  20892801.297    -3820128.52849  -2960301.38647  20892800.845    20892808.412
       242.000         211.000
  21297390.087   -11233810.97849  -8728710.61847  21297389.954    21297396.018
       240.000         203.000
  21809900.943    -6985672.18049  -5422024.84146  21809901.230    21809908.704
       229.000         184.000
  21915477.218   -11571647.91749  -8992221.47746  21915476.681    21915484.611
       231.000         187.000
  23072959.559    -1703156.60549  -1308979.18146  23072959.383    23072967.364
       220.000         168.000
 03  3 20 22 52 30.0000000  0  8G23G16G 6G17G18G26G15G29
  20712017.033    -8206546.35249  -6364678.96848  20712016.639    20712023.897
       244.000         215.000
  23312152.971    -7279751.96849  -5656101.66846  23312153.592    23312160.933
       219.000         163.000
  20817328.632      953325.54649    751864.04147  20817328.723    20817335.840
       240.000         207.000
  20890503.958    -3832200.93649  -2969708.44847  20890503.625    20890511.130
       242.000         211.000
  21285439.508   -11296611.77749  -8777646.23547  21285439.267    21285445.426
       240.000         203.000
  21808061.830    -6995336.79649  -5429555.66246  21808062.183    21808069.775
       228.000         184.000
  21904805.518   -11627728.21149  -9035920.36747  21904805.299    21904813.118
       232.000         188.000
  23077989.859    -1676721.87549  -1288380.67346  23077990.050    23077997.784
       220.000         167.000
 03  3 20 22 53  0.0000000  0  8G23G16G 6G17G18G26G15G29
  20707225.338    -8231726.82049  -6384300.07448  20707224.847    20707232.048
       244.000         215.000
  23308174.870    -7300656.72849  -5672391.06346  23308174.177    23308182.327
       218.000         163.000
  20826810.851     1003154.81149    790692.02647  20826810.949    20826818.033
       240.000         207.000
  20888237.668    -3844110.53849  -2978988.64347  20888237.164    20888244.823
       241.000         211.000
  21273565.374   -11359010.41249  -8826268.47947  21273565.117    21273571.525
       240.000         203.000
  21806343.488    -7004366.48649  -5436591.73946  21806343.053    21806351.789
       227.000         184.000
  21894159.640   -11683672.76749  -9079513.48447  21894158.709    21894167.238
       232.000         188.000
  23083120.744    -1649758.76149  -1267370.43946  23083121.238    23083128.279
       220.000         167.000
 03  3 20 22 53 30.0000000  0  8G23G16G 6G17G18G26G15G29
  20702522.989    -8256437.53249  -6403555.13648  20702522.542    20702529.745
       245.000         215.000
  23304302.388    -7321006.87249  -5688248.29346  23304301.578    23304309.602
       219.000         163.000
  20836381.358     1053448.15149    829881.62747  20836381.433    20836388.730
       241.000         207.000
  20886004.416    -3855846.04549  -2988133.18047  20886003.830    20886011.496
       242.000         211.000
  21261770.208   -11420994.29549  -8874567.55247  21261769.813    21261776.139
       241.000         203.000
  21804748.348    -7012748.63649  -5443123.23746  21804748.547    21804756.476
       227.000         183.000
  21883541.662   -11739469.98749  -9122991.78947  21883540.870    21883549.213
       232.000         188.000
  23088354.297    -1622256.19949  -1245939.87346  23088354.655    23088362.108
       220.000         168.000
 03  3 20 22 54  0.0000000  0  8G23G16G 6G17G18G26G15G29
  20697907.128    -8280693.60049  -6422455.93248  20697906.547    20697913.858
       244.000         215.000
  23300532.619    -7340817.19449  -5703684.87746  23300531.987    23300540.027
       219.000         164.000
  20846037.280     1104190.11949    869420.80647  20846037.209    20846044.624
       240.000         207.000
  20883801.500    -3867422.16549  -2997153.52347  20883801.045    20883808.536
       241.000         211.000
  21250051.224   -11482577.52649  -8922554.42747  21250050.926    21250057.372
       239.000         203.000
  21803273.793    -7020497.04849  -5449160.91146  21803273.388    21803281.460
       227.000         183.000
  21872948.994   -11795134.37649  -9166366.59247  21872948.183    21872956.332
       232.000         188.000
  23093687.651    -1594229.61549  -1224100.96346  23093687.063    23093695.433
       220.000         168.000
 03  3 20 22 54 30.0000000  0  8G23G16G 6G17G18G26G15G29
  20693377.690    -8304495.56549  -6441002.88348  20693377.253    20693384.523
       243.000         214.000
  23296865.582    -7360087.60949  -5718700.75446  23296865.196    23296872.365
       219.000         164.000
  20855778.413     1155379.88849    909308.92947  20855778.515    20855785.331
       240.000         207.000
  20881628.878    -3878839.15349  -3006049.86047  20881628.210    20881636.064
       241.000         210.000
  21238408.600   -11543759.62249  -8970228.73147  21238408.336    21238414.562
       239.000         204.000
  21801919.899    -7027611.29649  -5454704.43746  21801919.945    21801927.534
       227.000         183.000
  21862381.653   -11850666.09249  -9209638.01747  21862380.949    21862388.671
       232.000         188.000
  23099120.540    -1565679.67549  -1201854.24046  23099120.592    23099128.286
       220.000         168.000
 03  3 20 22 55  0.0000000  0  8G23G16G 6G17G18G26G15G29
  20688935.094    -8327841.37149  -6459194.38948  20688934.749    20688942.157
       243.000         214.000
  23293301.946    -7378815.14649  -5733293.62046  23293302.792    23293308.958
       220.000         165.000
  20865605.116     1207019.50849    949547.58047  20865605.202    20865612.279
       239.000         206.000
  20879487.206    -3890093.63749  -3014819.57347  20879486.522    20879494.249
       240.000         210.000
  21226842.999   -11604536.88149  -9017587.57347  21226842.822    21226849.016
       239.000         204.000
  21800687.518    -7034087.65549  -5459750.90646  21800687.768    21800695.397
       228.000         183.000
  21851840.127   -11906062.39449  -9252803.92447  21851839.286    21851847.510
       232.000         189.000
  23104653.334    -1536604.73749  -1179198.43746  23104653.681    23104661.055
       219.000         168.000
 03  3 20 22 55 30.0000000  0  8G23G16G 6G17G18G26G15G29
  20684579.279    -8350731.27649  -6477030.64248  20684578.854    20684586.119
       244.000         214.000
  23289841.560    -7396999.74749  -5747463.41246  23289841.208    23289849.071
       219.000         164.000
  20875517.305     1259108.34649    990136.26847  20875517.690    20875524.568
       240.000         206.000
  20877376.418    -3901185.80949  -3023462.80947  20877375.923    20877383.631
       241.000         210.000
  21215354.604   -11664908.47049  -9064630.31247  21215354.086    21215360.879
       239.000         204.000
  21799576.676    -7039925.02949  -5464299.46646  21799576.737    21799584.563
       228.000         183.000
  21841324.341   -11961322.70449  -9295863.86047  21841323.466    21841331.890
       232.000         189.000
  23110285.973    -1507005.06049  -1156133.74246  23110286.032    23110293.646
       220.000         168.000
 03  3 20 22 56  0.0000000  0  8G23G16G 6G17G18G26G15G29
  20680310.329    -8373164.69149  -6494511.19948  20680310.109    20680317.250
       244.000         215.000
  23286484.731    -7414639.90049  -5761208.96246  23286484.372    23286491.305
       218.000         163.000
  20885515.025     1311646.74049   1031075.26947  20885514.899    20885522.378
       239.000         206.000
  20875296.748    -3912114.39449  -3031978.57747  20875296.143    20875304.002
       241.000         210.000
  21203943.706   -11724872.68349  -9111355.61747  21203943.535    21203949.990
       240.000         204.000
  21798587.769    -7045121.86649  -5468348.91446  21798587.932    21798595.391
       228.000         184.000
  21830834.664   -12016445.96649  -9338816.99947  21830834.088    21830842.271
       233.000         190.000
  23116018.520    -1476880.47349  -1132660.02246  23116019.203    23116026.725
       219.000         168.000
 03  3 20 22 56 30.0000000  0  8G23G16G 6G17G18G26G15G29
  20676128.314    -8395141.51649  -6511635.96648  20676128.094    20676135.125
       244.000         215.000
  23283231.493    -7431735.39249  -5774530.10945  23283230.515    23283237.989
       219.000         162.000
  20895598.221     1364634.54749   1072364.45247  20895598.268    20895605.841
       239.000         206.000
  20873248.293    -3922878.99549  -3040366.56847  20873248.021    20873255.668
       241.000         210.000
  21192610.699   -11784428.11049  -9157762.38047  21192610.301    21192616.764
       240.000         204.000
  21797720.984    -7049677.04749  -5471898.37046  21797721.052    21797729.195
       228.000         184.000
  21820371.201   -12071431.51449  -9381662.83647  21820370.762    21820378.813
       232.000         190.000
  23121850.879    -1446231.30349  -1108777.54046  23121850.946    23121858.652
       219.000         169.000
 03  3 20 22 57  0.0000000  0  8G23G16G 6G17G18G26G15G29
  20672033.003    -8416662.59949  -6528405.61048  20672032.690    20672039.895
       244.000         215.000
  23280081.919    -7448286.38849  -5787426.97845  23280082.214    23280088.737
       219.000         162.000
  20905766.765     1418070.72949   1114003.01747  20905766.719    20905774.157
       239.000         205.000
  20871231.041    -3933479.71949  -3048626.86747  20871230.628    20871238.102
       241.000         210.000
  21181355.498   -11843574.37049  -9203850.31047  21181355.313    21181361.360
       240.000         205.000
  21796976.324    -7053590.06049  -5474947.44846  21796976.247    21796984.332
       228.000         184.000
  21809933.938   -12126279.48749  -9424401.47647  21809933.068    21809941.239
       232.000         190.000
  23127782.797    -1415058.61249  -1084487.12346  23127782.849    23127790.846
       219.000         168.000
 03  3 20 22 57 30.0000000  0  8G23G16G 6G17G18G26G15G29
  20668024.327    -8437728.19549  -6544820.33048  20668024.105    20668031.151
       244.000         215.000
  23277035.967    -7464292.58749  -5799899.33545  23277035.634    23277042.710
       217.000         162.000
  20916020.562     1471954.77049   1155990.56247  20916020.700    20916028.112
       239.000         205.000
  20869245.081    -3943916.22649  -3056759.20447  20869244.862    20869252.237
       241.000         211.000
  21170178.359   -11902310.49849  -9249618.66047  21170178.301    21170184.382
       240.000         205.000
  21796354.068    -7056859.89049  -5477495.34646  21796354.178    21796362.218
       228.000         184.000
  21799522.878   -12180989.62449  -9467032.71347  21799521.935    21799530.338
       232.000         190.000
  23133814.163    -1383362.99349  -1059789.22746  23133813.774    23133822.392
       219.000         167.000
 03  3 20 22 58  0.0000000  0  8G23G16G 6G17G18G26G15G29
  20664102.477    -8458337.63249  -6560879.59848  20664102.070    20664109.298
       244.000         215.000
  23274093.967    -7479752.99049  -5811946.39445  23274093.830    23274101.111
       219.000         162.000
  20926359.700     1526287.11249   1198327.43447  20926359.853    20926367.019
       239.000         205.000
  20867290.527    -3954187.53549  -3064762.81147  20867290.156    20867297.732
       241.000         211.000
  21159079.601   -11960634.84849  -9295066.14247  21159079.144    21159085.617
       240.000         205.000
  21795854.531    -7059484.84749  -5479540.73846  21795854.514    21795862.426
       228.000         184.000
  21789138.264   -12235560.94249  -9509555.76947  21789137.874    21789146.011
       232.000         191.000
  23139945.289    -1351143.90949  -1034683.44346  23139945.519    23139952.879
       219.000         167.000
 03  3 20 22 58 30.0000000  0  8G23G16G 6G17G18G26G15G29
  20660266.994    -8478493.21249  -6576585.21748  20660266.675    20660273.800
       244.000         215.000
  23271255.549    -7494669.01449  -5823569.26145  23271255.635    23271262.214
       218.000         162.000
  20936783.670     1581065.33549   1241011.74247  20936783.636    20936791.104
       239.000         205.000
  20865367.129    -3964295.09849  -3072638.82447  20865366.717    20865374.270
       241.000         211.000
  21148059.014   -12018548.22549  -9340193.39247  21148058.474    21148065.115
       240.000         205.000
  21795477.518    -7061465.85649  -5481084.36146  21795477.615    21795485.249
       227.000         184.000
  21778779.831   -12289994.75849  -9551971.70247  21778779.445    21778787.634
       233.000         191.000
  23146175.384    -1318404.07749  -1009171.88146  23146175.506    23146183.500
       219.000         166.000
 03  3 20 22 59  0.0000000  0  8G23G16G 6G17G18G26G15G29
  20656517.687    -8498196.10949  -6591938.09148  20656517.381    20656524.512
       244.000         215.000
  23268520.448    -7509041.59849  -5834768.67145  23268519.819    23268527.480
       218.000         162.000
  20947292.237     1636288.00849   1284042.37147  20947292.351    20947299.781
       239.000         205.000
  20863474.804    -3974239.08449  -3080387.37647  20863474.427    20863481.971
       241.000         211.000
  21137116.513   -12076050.95849  -9385000.66247  21137116.049    21137122.582
       240.000         206.000
  21795222.991    -7062802.89649  -5482126.19346  21795223.061    21795230.604
       228.000         184.000
  21768447.585   -12344291.22449  -9594280.60147  21768447.308    21768455.441
       233.000         191.000
  23152504.367    -1285144.93449   -983255.65046  23152503.435    23152513.256
       218.000         166.000
 03  3 20 22 59 30.0000000  0  8G23G16G 6G17G18G26G15G29
  20652854.777    -8517444.64349  -6606936.91148  20652854.336    20652861.522
       244.000         215.000
  23265889.331    -7522868.20049  -5845542.64545  23265888.870    23265895.173
       218.000         162.000
  20957885.673     1691956.55149   1327420.43147  20957885.728    20957892.959
       239.000         205.000
  20861614.099    -3984017.14249  -3088006.63147  20861613.825    20861621.251
       241.000         211.000
  21126252.871   -12133139.56749  -9429485.23947  21126252.560    21126258.849
       240.000         206.000
  21795091.596    -7063493.47249  -5482664.27646  21795091.812    21795099.558
       228.000         185.000
  21758141.746   -12398448.30149  -9636480.88747  21758140.922    21758148.744
       233.000         190.000
  23158932.411    -1251365.15049   -956933.73246  23158931.465    23158941.132
       217.000         165.000
 03  3 20 23  0  0.0000000  0  8G23G16G 6G17G18G26G15G29
  20649277.991    -8536240.73649  -6621583.18648  20649277.603    20649284.807
       244.000         215.000
  23263361.762    -7536150.33349  -5855892.34945  23263361.920    23263368.494
       218.000         161.000
  20968563.492     1748068.73649   1371144.18347  20968563.526    20968571.054
       239.000         205.000
  20859784.768    -3993630.35749  -3095497.44047  20859784.462    20859792.019
       241.000         211.000
  21115467.865   -12189815.01849  -9473647.87747  21115467.586    21115473.635
       241.000         206.000
  21795083.106    -7063538.22949  -5482699.12846  21795083.628    21795090.828
       230.000         185.000
  21747862.318   -12452466.96549  -9678573.31747  21747861.639    21747870.122
       232.000         190.000
  23165459.112    -1217067.11649   -930207.97646  23165459.206    23165466.964
       218.000         166.000
 03  3 20 23  0 30.0000000  0  8G23G16G 6G17G18G26G15G29
  20645787.307    -8554584.30849  -6635876.85148  20645786.939    20645794.167
       244.000         215.000
  23260938.010    -7548887.49949  -5865817.40345  23260938.367    23260945.028
       219.000         162.000
  20979325.696     1804624.42249   1415213.52347  20979325.655    20979333.216
       239.000         205.000
  20857986.915    -4003078.24449  -3102859.41747  20857986.396    20857994.210
       241.000         211.000
  21104761.736   -12246076.08249  -9517487.61447  21104761.488    21104767.577
       241.000         206.000
  21795197.743    -7062936.00149  -5482229.83546  21795198.028    21795205.713
       229.000         185.000
  21737609.392   -12506346.46449  -9720557.30847  21737609.096    21737617.024
       234.000         191.000
  23172084.481    -1182250.88349   -903078.43246  23172084.110    23172092.291
       220.000         167.000
 03  3 20 23  1  0.0000000  0  9G23G16G 6G17G18G26G 2G15G29
  20642381.750    -8572480.30849  -6649821.75448  20642381.297    20642388.391
       244.000         215.000
  23258617.147    -7561084.21849  -5875321.33345  23258617.044    23258623.879
       219.000         162.000
  20990171.282     1861618.38549   1459624.37647  20990171.397    20990178.859
       239.000         205.000
  20856219.690    -4012364.94049  -3110095.79247  20856219.240    20856227.006
       241.000         211.000
  21094133.715   -12301926.41549  -9561007.29947  21094133.335    21094139.683
       240.000         206.000
  21795434.738    -7061690.56349  -5481259.33346  21795434.774    21795442.929
       230.000         185.000
  25195903.493    -4593951.85959  -3541588.98045  25195902.470    25195912.523
       203.000         135.000
  21727382.195   -12560090.86549  -9762436.02847  21727381.407    21727389.607
       233.000         192.000
  23178807.432    -1146921.75649   -875549.23746  23178806.656    23178815.541
       219.000         167.000
 03  3 20 23  1 30.0000000  0  9G23G16G 6G17G18G26G 2G15G29
  20639061.915    -8589926.07649  -6663415.82748  20639061.575    20639068.536
       244.000         215.000
  23256399.569    -7572737.03949  -5884401.44745  23256399.390    23256406.843
       216.000         162.000
  21001100.743     1919053.05949   1504378.64147  21001100.840    21001108.311
       239.000         205.000
  20854483.939    -4021486.50049  -3117203.49247  20854483.681    20854491.053
       242.000         211.000
  21083584.624   -12357362.28949  -9604204.03447  21083584.238    21083590.439
       241.000         207.000
  21795794.861    -7059798.32449  -5479784.83246  21795794.795    21795802.359
       230.000         186.000
  25187557.557    -4637810.48949  -3575764.50745  25187558.286    25187566.431
       203.000         136.000
  21717181.224   -12613696.73949  -9804206.78247  21717180.519    21717188.579
       232.000         191.000
  23185628.340    -1111077.24849   -847618.44246  23185628.823    23185636.560
       221.000         167.000
 03  3 20 23  2  0.0000000  0  9G23G16G 6G17G18G26G 2G15G29
  20635828.486    -8606917.95349  -6676656.21848  20635828.133    20635835.104
       244.000         215.000
  23254286.174    -7583842.34449  -5893054.93545  23254286.303    23254293.856
       217.000         162.000
  21012114.737     1976931.84749   1549478.97647  21012114.975    21012122.244
       239.000         205.000
  20852780.369    -4030439.10149  -3124179.53647  20852779.781    20852787.725
       241.000         211.000
  21073115.353   -12412378.60249  -9647073.83647  21073114.976    21073121.113
       240.000         207.000
  21796278.942    -7057254.39049  -5477802.52146  21796278.900    21796286.817
       229.000         186.000
  25179288.084    -4681267.09649  -3609626.77045  25179287.852    25179296.815
       201.000         137.000
  21707007.495   -12667159.66749  -9845866.16847  21707006.882    21707014.814
       234.000         191.000
  23192547.943    -1074714.49149   -819283.80846  23192547.943    23192555.720
       219.000         167.000
 03  3 20 23  2 30.0000000  0  9G23G16G 6G17G18G26G 2G15G29
  20632680.659    -8623459.91149  -6689546.02548  20632680.253    20632687.313
       244.000         216.000
  23252276.522    -7594403.26549  -5901284.21346  23252276.404    23252283.565
       219.000         163.000
  21023212.496     2035250.60949   1594922.14547  21023212.633    21023220.179
       239.000         205.000
  20851108.291    -4039225.70249  -3131026.22847  20851107.748    20851115.343
       241.000         211.000
  21062725.363   -12466978.03349  -9689618.79147  21062725.159    21062731.221
       241.000         207.000
  21796886.403    -7054061.92749  -5475314.86846  21796886.549    21796894.278
       229.000         186.000
  25171094.620    -4724323.68949  -3643177.32545  25171093.624    25171104.881
       202.000         137.000
  21696860.470   -12720482.75949  -9887416.60147  21696859.926    21696868.112
       234.000         192.000
  23199565.437    -1037837.49549   -790548.46446  23199565.725    23199573.759
       220.000         167.000
 03  3 20 23  3  0.0000000  0  9G23G16G 6G17G18G26G 2G15G29
  20629618.405    -8639552.13349  -6702085.39148  20629618.023    20629625.228
       244.000         216.000
  23250370.595    -7604419.61649  -5909089.15546  23250370.683    23250377.302
       218.000         164.000
  21034393.901     2094008.96349   1640707.84647  21034394.052    21034401.500
       239.000         204.000
  20849467.984    -4047845.59249  -3137743.01647  20849467.674    20849475.108
       242.000         211.000
  21052414.903   -12521159.79749  -9731838.30347  21052414.637    21052420.905
       240.000         207.000
  21797617.437    -7050219.91349  -5472321.08246  21797617.443    21797625.117
       228.000         185.000
  25162977.737    -4766978.84249  -3676415.08745  25162977.643    25162986.912
       202.000         137.000
  21686740.304   -12773665.18049  -9928857.40847  21686739.593    21686747.516
       235.000         192.000
  23206680.690    -1000446.57949   -761412.67046  23206680.699    23206689.019
       220.000         166.000
 03  3 20 23  3 30.0000000  0  9G23G16G 6G17G18G26G 2G15G29
  20626641.532    -8655195.49049  -6714274.99148  20626641.143    20626648.274
       244.000         216.000
  23248568.082    -7613891.54449  -5916469.87546  23248567.911    23248575.446
       220.000         164.000
  21045658.714     2153205.70949   1686835.16347  21045658.724    21045666.037
       239.000         204.000
  20847859.463    -4056298.62249  -3144329.78447  20847858.958    20847866.574
       241.000         211.000
  21042183.963   -12574923.32249  -9773731.90747  21042183.619    21042189.718
       240.000         207.000
  21798472.116    -7045728.13349  -5468820.97446  21798472.062    21798479.938
       228.000         184.000
  25154937.260    -4809231.72049  -3709339.37945  25154937.779    25154946.962
       199.000         136.000
  21676646.704   -12826706.90749  -9970188.59647  21676645.850    21676654.148
       234.000         192.000
  23213893.490     -962543.08349   -731877.44546  23213893.706    23213900.804
       219.000         166.000
 03  3 20 23  4  0.0000000  0  9G23G16G 6G17G18G26G 2G15G29
  20623749.818    -8670391.41949  -6726115.95048  20623749.405    20623756.566
       244.000         216.000
  23246868.981    -7622820.31549  -5923427.34646  23246869.197    23246876.580
       219.000         164.000
  21057006.608     2212839.21149   1733302.79547  21057006.678    21057014.068
       238.000         204.000
  20846282.500    -4064585.30949  -3150786.93847  20846281.959    20846289.781
       241.000         211.000
  21032032.600   -12628268.68649  -9815299.67047  21032032.227    21032038.260
       240.000         207.000
  21799450.342    -7040587.03749  -5464814.90446  21799450.494    21799458.568
       227.000         184.000
  25146973.161    -4851082.24549  -3741950.12545  25146972.054    25146982.690
       200.000         135.000
  21666579.750   -12879608.55049 -10011410.61647  21666579.149    21666586.978
       234.000         192.000
  23221203.495     -924128.99149   -701944.36646  23221203.335    23221210.907
       218.000         165.000
 03  3 20 23  4 30.0000000  0  9G23G16G 6G17G18G26G 2G15G29
  20620943.149    -8685140.45049  -6737608.67448  20620942.838    20620949.833
       244.000         216.000
  23245273.370    -7631206.01649  -5929961.65446  23245273.012    23245280.531
       219.000         165.000
  21068437.492     2272908.85249   1780110.28047  21068437.584    21068444.943
       238.000         204.000
  20844737.337    -4072705.19449  -3157114.11547  20844737.009    20844744.624
       242.000         211.000
  21021960.962   -12681195.34149  -9856541.17047  21021960.789    21021966.687
       240.000         207.000
  21800552.241    -7034796.21649  -5460302.54946  21800552.142    21800560.027
       228.000         184.000
  25139086.015    -4892529.38849  -3774246.56445  25139085.233    25139096.816
       199.000         135.000
  21656539.670   -12932369.62949 -10052523.11347  21656539.520    21656547.535
       236.000         192.000
  23228610.460     -885204.95949   -671613.92646  23228610.667    23228617.668
       218.000         165.000
 03  3 20 23  5  0.0000000  0  9G23G16G 6G17G18G26G 2G15G29
  20618221.559    -8699442.44549  -6748753.06048  20618221.292    20618228.304
       244.000         215.000
  23243781.102    -7639047.89749  -5936072.20546  23243781.305    23243787.881
       219.000         165.000
  21079951.346     2333414.55249   1827257.55047  21079951.323    21079958.964
       238.000         204.000
  20843224.144    -4080657.16149  -3163310.44647  20843223.836    20843231.258
       241.000         211.000
  21011969.300   -12733701.90849  -9897455.32447  21011968.887    21011975.175
       240.000         207.000
  21801778.118    -7028354.49049  -5455282.98346  21801778.263    21801786.503
       228.000         184.000
  25131275.976    -4933571.38949  -3806227.31845  25131276.000    25131285.533
       202.000         135.000
  21646526.630   -12984988.67149 -10093524.93047  21646526.002    21646533.850
       234.000         193.000
  23236114.434     -845771.27449   -640886.36546  23236114.383    23236122.650
       220.000         165.000
 03  3 20 23  5 30.0000000  0  9G23G16G 6G17G18G26G 2G15G29
  20615584.821    -8713298.61849  -6759550.04748  20615584.378    20615591.459
       243.000         215.000
  23242392.172    -7646346.70949  -5941759.58746  23242391.917    23242398.927
       220.000         164.000
  21091547.852     2394354.69149   1874743.35047  21091548.135    21091555.204
       238.000         203.000
  20841742.820    -4088441.54349  -3169376.18247  20841742.622    20841749.785
       242.000         211.000
  21002057.477   -12785788.28049  -9938042.05547  21002056.998    21002063.366
       239.000         207.000
  21803127.750    -7021262.21549  -5449756.50546  21803128.019    21803135.635
       230.000         184.000
  25123543.210    -4974207.75749  -3837891.98545  25123542.493    25123553.078
       200.000         136.000
  21636540.334   -13037466.40849 -10134416.63547  21636539.765    21636547.834
       235.000         193.000
  23243715.116     -805829.49349   -609762.88146  23243715.441    23243723.061
       218.000         165.000
 03  3 20 23  6  0.0000000  0  9G23G16G 6G17G18G26G 2G15G29
  20613032.689    -8726709.87849  -6770000.35348  20613032.305    20613039.340
       243.000         215.000
  23241106.401    -7653103.04749  -5947024.27046  23241106.257    23241114.251
       219.000         164.000
  21103226.873     2455728.20749   1922566.84647  21103226.880    21103234.275
       238.000         203.000
  20840293.348    -4096058.57849  -3175311.51347  20840292.975    20840300.357
       241.000         211.000
  20992225.693   -12837454.14949  -9978301.12547  20992225.275    20992231.548
       240.000         207.000
  21804601.186    -7013519.47649  -5443723.17146  21804601.019    21804608.613
       230.000         184.000
  25115887.601    -5014437.93149  -3869240.15645  25115887.083    25115897.142
       201.000         137.000
  21626581.046   -13089802.67049 -10175198.10747  21626580.600    21626588.079
       235.000         193.000
  23251412.154     -765381.04749   -578244.60046  23251412.822    23251420.333
       218.000         165.000
 03  3 20 23  6 30.0000000  0  9G23G16G 6G17G18G26G 2G15G29
  20610564.931    -8739678.02949  -6780105.38348  20610564.593    20610571.547
       244.000         215.000
  23239923.583    -7659318.59249  -5951867.54346  23239923.096    23239931.124
       219.000         164.000
  21114987.932     2517533.02349   1970726.41447  21114988.248    21114995.625
       238.000         203.000
  20838875.663    -4103508.62649  -3181116.73647  20838875.227    20838882.562
       241.000         211.000
  20982473.821   -12888700.30649 -10018233.15547  20982473.446    20982479.551
       240.000         207.000
  21806198.149    -7005127.12449  -5437183.64246  21806198.433    21806206.218
       230.000         184.000
  25108309.161    -5054262.21149  -3900272.05445  25108309.589    25108318.281
       204.000         138.000
  21616648.600   -13141998.10249 -10215869.84347  21616648.146    21616655.632
       236.000         193.000
  23259205.139     -724427.99549   -546333.12046  23259205.357    23259213.584
       218.000         166.000
 03  3 20 23  7  0.0000000  0  9G23G16G 6G17G18G26G 2G15G29
  20608181.554    -8752202.54049  -6789864.71548  20608181.213    20608188.181
       243.000         215.000
  23238843.974    -7664991.94749  -5956288.34446  23238843.693    23238851.031
       221.000         164.000
  21126831.233     2579769.58149   2019222.41647  21126831.219    21126838.773
       238.000         203.000
  20837490.036    -4110790.22049  -3186790.69347  20837489.616    20837497.084
       242.000         211.000
  20972802.321   -12939524.63949 -10057836.47747  20972801.931    20972808.120
       241.000         207.000
  21807918.997    -6996083.51349  -5430136.64646  21807919.302    21807926.998
       227.000         184.000
  25100808.590    -5093678.33549  -3930985.89745  25100808.242    25100818.979
       202.000         140.000
  21606743.205   -13194051.06349 -10256430.55847  21606742.673    21606750.465
       236.000         193.000
  23267094.427     -682970.12649   -514028.28146  23267095.325    23267102.387
       220.000         166.000
 03  3 20 23  7 30.0000000  0  9G23G16G 6G17G18G26G 2G15G29
  20605882.375    -8764284.82949  -6799279.45548  20605881.895    20605889.051
       243.000         215.000
  23237867.335    -7670124.58349  -5960287.81046  23237866.790    23237873.842
       221.000         164.000
  21138756.307     2642436.12149   2068053.46847  21138756.423    21138763.976
       238.000         203.000
  20836136.365    -4117903.60949  -3192333.57847  20836135.813    20836143.312
       242.000         211.000
  20963211.032   -12989927.46649 -10097111.36747  20963210.641    20963216.598
       241.000         208.000
  21809763.730    -6986389.44749  -5422582.80046  21809763.745    21809771.510
       229.000         184.000
  25093385.643    -5132686.10849  -3961381.53745  25093385.171    25093394.625
       205.000         141.000
  21596864.918   -13245961.86849 -10296880.50347  21596864.452    21596872.295
       236.000         194.000
  23275079.378     -641009.35149   -481331.57046  23275079.758    23275086.995
       220.000         166.000
 03  3 20 23  8  0.0000000  0  9G23G16G 6G17G18G26G 2G15G29
  20603667.201    -8775925.13449  -6808349.79248  20603666.668    20603673.766
       243.000         214.000
  23236993.605    -7674716.24349  -5963865.72746  23236993.554    23237000.054
       220.000         164.000
  21150763.124     2705532.20849   2117219.22847  21150763.441    21150770.570
       238.000         203.000
  20834814.804    -4124848.29149  -3197745.00147  20834814.238    20834821.875
       241.000         211.000
  20953700.041   -13039907.79049 -10136057.02847  20953699.756    20953705.596
       241.000         208.000
  21811732.404    -6976044.16949  -5414521.50446  21811732.512    21811739.955
       229.000         184.000
  25086040.588    -5171284.46249  -3991458.16345  25086040.346    25086049.990
       202.000         141.000
  21587013.822   -13297729.78849 -10337219.11147  21587013.182    21587021.054
       236.000         194.000
  23283159.850     -598546.40749   -448243.55246  23283159.794    23283167.616
       219.000         166.000
 03  3 20 23  8 30.0000000  0  9G23G16G 6G17G18G26G 2G15G29
  20601535.918    -8787125.13949  -6817077.04348  20601535.564    20601542.329
       243.000         215.000
  23236222.610    -7678768.08049  -5967022.99346  23236222.008    23236229.830
       219.000         164.000
  21162851.290     2769055.83249   2166718.13447  21162851.253    21162858.580
       239.000         203.000
  20833525.289    -4131624.69649  -3203025.29847  20833524.621    20833532.248
       242.000         211.000
  20944269.363   -13089465.90749 -10174673.68947  20944268.884    20944274.983
       240.000         208.000
  21813824.714    -6965048.48449  -5405953.41246  21813824.344    21813832.611
       228.000         184.000
  25078773.473    -5209473.09449  -4021215.51545  25078773.257    25078782.034
       204.000         142.000
  21577189.727   -13349355.37749 -10377446.80547  21577188.953    21577197.128
       235.000         194.000
  23291335.363     -555583.33249   -414765.83546  23291334.744    23291343.710
       218.000         165.000
 03  3 20 23  9  0.0000000  0  9G23G16G 6G17G18G26G 2G15G29
  20599488.316    -8797885.16049  -6825461.45248  20599488.011    20599494.978
       244.000         215.000
  23235554.248    -7682280.08449  -5969759.61446  23235553.291    23235560.872
       220.000         163.000
  21175020.730     2833006.40949   2216549.72947  21175020.728    21175028.302
       238.000         203.000
  20832267.865    -4138232.19149  -3208173.98047  20832267.531    20832275.104
       242.000         211.000
  20934919.143   -13138601.26849 -10212960.94547  20934918.837    20934924.800
       240.000         208.000
  21816040.897    -6953401.99749  -5396878.20546  21816041.279    21816048.552
       229.000         184.000
  25071584.604    -5247250.94049  -4050652.77845  25071584.323    25071595.247
       206.000         143.000
  21567392.939   -13400837.85349 -10417562.98447  21567392.755    21567400.345
       236.000         194.000
  23299605.872     -512120.64649   -380898.79946  23299605.839    23299613.788
       216.000         164.000
 03  3 20 23  9 30.0000000  0  9G23G16G 6G17G18G26G 2G15G29
  20597524.354    -8808205.74349  -6833503.44048  20597523.741    20597530.927
       243.000         214.000
  23234988.589    -7685252.52649  -5972075.81146  23234988.182    23234994.855
       220.000         163.000
  21187271.237     2897383.26449   2266713.48547  21187271.357    21187278.677
       237.000         202.000
  20831042.891    -4144669.87149  -3213190.34447  20831042.579    20831049.770
       242.000         212.000
  20925649.594   -13187313.00049 -10250918.10847  20925649.434    20925655.369
       241.000         208.000
  21818381.032    -6941104.41949  -5387295.64646  21818381.129    21818388.845
       228.000         184.000
  25064474.181    -5284616.99649  -4079769.17345  25064474.595    25064483.777
       206.000         145.000
  21557623.471   -13452176.84249 -10457567.36147  21557622.848    21557630.240
       236.000         195.000
  23307971.296     -468159.59849   -346643.43346  23307971.007    23307979.296
       217.000         164.000
 03  3 20 23 10  0.0000000  0  9G23G16G 6G17G18G26G 2G15G29
  20595643.589    -8818088.58749  -6841204.33248  20595643.203    20595650.381
       243.000         214.000
  23234525.383    -7687686.87849  -5973972.70946  23234525.303    23234533.098
       221.000         164.000
  21199602.479     2962184.38349   2317207.84447  21199602.541    21199610.043
       237.000         202.000
  20829850.116    -4150938.03949  -3218074.61947  20829849.615    20829856.941
       242.000         212.000
  20916460.592   -13235601.59249 -10288545.53747  20916460.136    20916466.220
       241.000         209.000
  21820844.928    -6928156.49649  -5377206.33146  21820844.913    21820852.701
       228.000         184.000
  25057442.253    -5321571.28149  -4108564.70745  25057442.004    25057451.543
       206.000         144.000
  21547881.249   -13503372.55149 -10497460.08447  21547880.643    21547888.341
       236.000         194.000
  23316431.340     -423701.85049   -312001.02446  23316431.420    23316439.855
       218.000         163.000
 03  3 20 23 10 30.0000000  0  9G23G16G 6G17G18G26G 2G15G29
  20593846.328    -8827533.28749  -6848563.81548  20593846.037    20593852.903
       244.000         214.000
  23234164.736    -7689582.16849  -5975449.56946  23234164.982    23234171.819
       220.000         164.000
  21212014.532     3027410.04149   2368033.01047  21212014.668    21212021.885
       238.000         201.000
  20828689.823    -4157035.26449  -3222825.69247  20828689.328    20828696.678
       242.000         211.000
  20907352.359   -13283465.37849 -10325841.95147  20907352.081    20907358.061
       241.000         209.000
  21823432.803    -6914556.98349  -5366609.28546  21823432.722    21823441.065
       229.000         184.000
  25050488.843    -5358111.61249  -4137037.67745  25050487.928    25050498.665
       207.000         143.000
  21538166.582   -13554423.46149 -10537239.98047  21538165.988    21538173.433
       236.000         194.000
  23324985.925     -378747.58749   -276971.72546  23324986.178    23324993.969
       217.000         163.000
 03  3 20 23 11  0.0000000  0  9G23G16G 6G17G18G26G 2G15G29
  20592131.941    -8836542.34349  -6855583.83748  20592131.824    20592138.642
       243.000         215.000
  23233906.178    -7690940.47349  -5976507.99546  23233905.872    23233913.704
       218.000         164.000
  21224506.861     3093057.47749   2419186.83847  21224506.720    21224514.271
       237.000         201.000
  20827561.732    -4162963.08749  -3227444.76047  20827561.299    20827568.675
       242.000         211.000
  20898324.751   -13330905.29849 -10362808.07747  20898324.491    20898330.413
       241.000         209.000
  21826144.290    -6900307.66049  -5355505.88946  21826145.094    21826151.940
       229.000         184.000
  25043613.927    -5394238.98749  -4165188.85345  25043612.848    25043623.500
       205.000         142.000
  21528479.140   -13605330.87249 -10576908.06547  21528478.704    21528486.357
       235.000         194.000
  23333634.335     -333299.77149   -241557.83846  23333634.411    23333641.838
       218.000         163.000
 03  3 20 23 11 30.0000000  0  9G23G16G 6G17G18G26G 2G15G29
  20590500.549    -8845115.33349  -6862264.06448  20590500.203    20590507.361
       243.000         215.000
  23233749.868    -7691761.40949  -5977147.68646  23233750.369    23233756.255
       219.000         164.000
  21237079.441     3159126.67849   2470669.30947  21237079.176    21237086.747
       237.000         200.000
  20826466.273    -4168719.97149  -3231930.63047  20826465.828    20826473.292
       241.000         211.000
  20889378.175   -13377919.99349 -10399442.86247  20889377.875    20889383.966
       241.000         209.000
  21828979.709    -6885407.57149  -5343895.40346  21828979.932    21828987.658
       229.000         184.000
  25036818.144    -5429951.59549  -4193016.83245  25036817.212    25036827.464
       206.000         141.000
  21518819.366   -13656093.22649 -10616463.11347  21518818.822    21518826.273
       235.000         194.000
  23342376.636     -287358.61449   -205759.53746  23342377.049    23342385.144
       217.000         163.000
 03  3 20 23 12  0.0000000  0  9G23G16G 6G17G18G26G 2G15G29
  20588952.025    -8853252.97249  -6868605.06048  20588951.835    20588958.539
       244.000         215.000
  23233695.805    -7692045.40349  -5977369.00746  23233695.237    23233703.071
       220.000         163.000
  21249732.074     3225616.69949   2522479.69047  21249731.977    21249739.426
       236.000         200.000
  20825403.374    -4174305.30049  -3236282.82047  20825402.854    20825410.433
       241.000         211.000
  20880512.547   -13424509.11049 -10435746.03347  20880512.172    20880518.171
       241.000         210.000
  21831938.954    -6869856.64149  -5331777.76746  21831939.213    21831946.444
       229.000         184.000
  25030101.325    -5465248.52249  -4220520.91045  25030101.112    25030110.813
       205.000         142.000
  21509187.250   -13706710.26949 -10655904.93547  21509186.670    21509193.769
       235.000         194.000
  23351212.682     -240925.21749   -169577.66946  23351212.892    23351220.278
       218.000         164.000
 03  3 20 23 12 30.0000000  0  9G23G16G 6G17G18G26G 2G15G29
  20587485.932    -8860957.72549  -6874608.74248  20587485.610    20587492.538
       244.000         215.000
  23233743.622    -7691794.62949  -5977173.62246  23233743.864    23233750.459
       220.000         164.000
  21262464.241     3292524.82249   2574615.87147  21262464.612    21262471.812
       237.000         200.000
  20824372.886    -4179720.50449  -3240502.44847  20824372.437    20824379.895
       242.000         211.000
  20871727.634   -13470673.91449 -10471718.56147  20871727.144    20871733.228
       241.000         210.000
  21835021.630    -6853656.62949  -5319154.36546  21835022.099    21835029.074
       228.000         183.000
  25023463.492    -5500130.70949  -4247701.79645  25023462.357    25023472.410
       202.000         141.000
  21499582.594   -13757182.90549 -10695234.22947  21499582.009    21499589.745
       235.000         194.000
  23360141.832     -194002.47849   -133014.49746  23360141.401    23360150.254
       218.000         164.000
 03  3 20 23 13  0.0000000  0  9G23G16G 6G17G18G26G 2G15G29
  20586102.218    -8868229.29349  -6880274.87648  20586101.858    20586108.768
       244.000         215.000
  23233893.286    -7691008.47949  -5976561.06946  23233893.520    23233899.976
       220.000         164.000
  21275276.077     3359851.14849   2627077.92147  21275276.183    21275283.470
       236.000         200.000
  20823375.182    -4184963.45949  -3244587.85247  20823374.818    20823382.076
       242.000         211.000
  20863023.823   -13516412.56949 -10507359.02647  20863023.509    20863029.528
       241.000         210.000
  21838228.085    -6836806.55349  -5306024.40746  21838228.199    21838235.816
       229.000         184.000
  25016904.859    -5534596.15349  -4274557.94145  25016904.667    25016914.167
       206.000         141.000
  21490005.738   -13807509.47649 -10734449.69847  21490005.139    21490012.744
       236.000         195.000
  23369164.057     -146590.41049    -96070.02946  23369163.805    23369171.841
       217.000         164.000
 03  3 20 23 13 30.0000000  0  9G23G16G 6G17G18G26G 2G15G29
  20584800.546    -8875069.61149  -6885604.97248  20584800.159    20584806.906
       244.000         215.000
  23234144.611    -7689688.24849  -5975532.33246  23234145.556    23234151.499
       221.000         164.000
  21288167.075     3427593.70249   2679864.30147  21288167.109    21288174.501
       237.000         199.000
  20822410.119    -4190035.02449  -3248539.70447  20822409.666    20822417.104
       242.000         211.000
  20854401.009   -13561725.68949 -10542667.91247  20854400.639    20854406.753
       241.000         210.000
  21841558.024    -6819307.44349  -5292388.71246  21841558.294    21841566.005
       229.000         184.000
  25010425.503    -5568645.09649  -4301089.55645  25010425.313    25010434.466
       207.000         141.000
  21480456.638   -13857690.39249 -10773551.67147  21480455.700    21480463.646
       236.000         195.000
  23378279.011      -98691.25049    -58746.00846  23378279.264    23378286.999
       217.000         164.000
 03  3 20 23 14  0.0000000  0  9G23G16G 6G17G18G26G 2G15G29
  20583580.873    -8881478.94449  -6890599.23148  20583580.634    20583587.412
       244.000         215.000
  23234497.475    -7687834.18749  -5974087.60846  23234497.362    23234504.653
       219.000         164.000
  21301137.163     3495751.80549   2732974.49247  21301137.270    21301144.491
       236.000         199.000
  20821477.870    -4194933.91349  -3252357.00647  20821477.461    20821484.936
       242.000         211.000
  20845859.314   -13606612.65749 -10577644.72647  20845859.072    20845864.878
       241.000         210.000
  21845011.654    -6801158.85049  -5278246.92546  21845011.933    21845019.641
       230.000         185.000
  25004025.755    -5602276.27649  -4327295.63145  25004024.864    25004034.642
       206.000         140.000
  21470935.311   -13907724.72349 -10812539.42447  21470934.831    21470942.350
       236.000         195.000
  23387486.446      -50305.88349    -21043.11846  23387486.580    23387494.092
       219.000         164.000
 03  3 20 23 14 30.0000000  0  9G23G16G 6G17G18G26G 2G15G29
  20582442.943    -8887458.92649  -6895258.92648  20582442.681    20582449.298
       244.000         215.000
  23234951.656    -7685447.65049  -5972227.99646  23234951.188    23234958.385
       221.000         165.000
  21314185.895     3564323.52949   2786406.97947  21314185.586    21314193.410
       236.000         199.000
  20820578.324    -4199660.99949  -3256040.43447  20820577.964    20820585.337
       242.000         211.000
  20837398.711   -13651073.38249 -10612289.39947  20837398.179    20837404.449
       241.000         210.000
  21848588.639    -6782362.02749  -5263600.02546  21848588.577    21848596.382
       230.000         185.000
  24997705.471    -5635489.71049  -4353176.18545  24997704.189    24997714.663
       206.000         140.000
  21461441.954   -13957612.83849 -10851413.23847  21461441.543    21461448.704
       235.000         196.000
  23396786.048       -1436.28449     17037.08646  23396785.932    23396793.511
       217.000         164.000
 03  3 20 23 15  0.0000000  0  9G23G16G 6G17G18G26G 2G15G29
  20581386.535    -8893010.33449  -6899584.67348  20581386.093    20581393.160
       243.000         215.000
  23235507.150    -7682529.20449  -5969953.89446  23235507.033    23235514.677
       222.000         165.000
  21327313.171     3633307.88949   2840160.99547  21327313.228    21327320.539
       236.000         199.000
  20819711.675    -4204215.17649  -3259589.12747  20819711.084    20819718.608
       241.000         211.000
  20829019.237   -13695107.71349 -10646601.82147  20829018.980    20829024.758
       241.000         210.000
  21852288.909    -6762916.98149  -5248448.02146  21852289.305    21852296.635
       229.000         185.000
  24991464.743    -5668284.77149  -4378730.74845  24991464.099    24991474.099
       206.000         140.000
  21451976.438   -14007354.27249 -10890172.76347  21451976.076    21451983.456
       236.000         196.000
  23406177.517       47916.43549     55493.76246  23406178.250    23406185.286
       217.000         163.000
 03  3 20 23 15 30.0000000  0  9G23G16G 6G17G18G26G 2G15G29
  20580411.469    -8898133.97549  -6903577.09748  20580411.018    20580418.043
       243.000         215.000
  23236163.667    -7679079.47949  -5967265.81446  23236162.829    23236170.290
       220.000         166.000
  21340518.744     3702703.84749   2894235.73547  21340518.936    21340526.357
       236.000         198.000
  20818878.077    -4208595.62649  -3263002.45347  20818877.811    20818885.010
       242.000         211.000
  20820720.976   -13738715.32249 -10680581.73347  20820720.605    20820726.595
       241.000         210.000
  21856112.474    -6742823.77449  -5232790.95446  21856112.498    21856120.159
       229.000         184.000
  24985303.703    -5700660.71749  -4403958.72145  24985302.585    24985311.748
       204.000         140.000
  21442539.021   -14056948.29749 -10928817.42247  21442538.729    21442545.977
       236.000         196.000
  23415660.583       97750.69549     94325.65245  23415660.116    23415668.184
       216.000         162.000
 03  3 20 23 16  0.0000000  0  9G23G16G 6G17G18G26G 2G15G29
  20579517.721    -8902830.56649  -6907236.75448  20579517.217    20579524.176
       243.000         215.000
  23236921.089    -7675098.81649  -5964164.00346  23236919.985    23236928.044
       220.000         165.000
  21353802.544     3772510.59249   2948630.57547  21353802.590    21353809.900
       236.000         198.000
  20818077.677    -4212801.76749  -3266279.95347  20818077.245    20818084.690
       242.000         211.000
  20812503.982   -13781895.54049 -10714228.61647  20812503.684    20812509.550
       241.000         211.000
  21860059.317    -6722082.60149  -5216628.98346  21860059.476    21860066.860
       228.000         183.000
  24979222.685    -5732616.60649  -4428859.36545  24979221.295    24979231.639
       202.000         140.000
  21433129.782   -14106394.28949 -10967346.73947  21433129.383    21433136.714
       237.000         196.000
  23425235.156      148065.68549    133532.13446  23425235.457    23425243.686
       216.000         163.000
 03  3 20 23 16 30.0000000  0  9G23G16G 6G17G18G26G 2G15G29
  20578704.993    -8907101.27949  -6910564.55748  20578704.539    20578711.452
       243.000         214.000
  23237779.370    -7670588.21349  -5960649.26446  23237779.970    23237786.279
       221.000         165.000
  21367164.177     3842726.51149   3003344.24947  21367164.220    21367171.768
       236.000         198.000
  20817310.368    -4216833.97049  -3269421.90947  20817310.046    20817317.453
       242.000         211.000
  20804368.343   -13824648.46249 -10747542.53947  20804368.006    20804373.894
       240.000         211.000
  21864129.399    -6700694.18949  -5199962.66046  21864129.188    21864136.881
       229.000         183.000
  24973221.643    -5764152.06649  -4453432.41645  24973221.578    24973230.795
       206.000         141.000
  21423748.688   -14155692.09249 -11005760.57447  21423747.888    21423755.599
       237.000         197.000
  23434900.914      198859.47949    173111.71046  23434901.305    23434908.882
       216.000         164.000
 03  3 20 23 17  0.0000000  0  9G23G16G 6G17G18G26G 2G15G29
  20577973.035    -8910947.51949  -6913561.60548  20577972.656    20577979.517
       243.000         214.000
  23238738.261    -7665549.03549  -5956722.64846  23238738.436    23238745.806
       220.000         165.000
  21380603.382     3913349.93049   3058375.45847  21380603.346    21380611.010
       235.000         198.000
  20816576.303    -4220691.68949  -3272427.90747  20816575.794    20816583.057
       242.000         211.000
  20796314.045   -13866974.10249 -10780523.51747  20796313.812    20796319.693
       241.000         211.000
  21868322.485    -6678659.38749  -5182792.65646  21868322.775    21868330.060
       229.000         184.000
  24967300.714    -5795267.05249  -4477677.81145  24967299.958    24967309.661
       205.000         142.000
  21414395.797   -14204841.62249 -11044058.87647  21414395.263    21414402.596
       236.000         197.000
  23444657.468      250130.36349    213063.04946  23444657.272    23444665.815
       218.000         164.000
 03  3 20 23 17 30.0000000  0  9G23G16G 6G17G18G26G 2G15G29
  20577321.594    -8914370.41249  -6916228.77348  20577321.177    20577328.108
       243.000         214.000
  23239797.558    -7659982.13749  -5952384.81546  23239797.123    23239803.783
       221.000         165.000
  21394119.807     3984379.31549   3113723.00347  21394120.029    21394127.478
       236.000         198.000
  20815875.358    -4224375.02649  -3275298.02247  20815874.910    20815882.262
       241.000         211.000
  20788341.003   -13908872.44649 -10813171.53347  20788340.591    20788346.578
       241.000         211.000
  21872638.529    -6655978.56449  -5165119.26846  21872638.497    21872645.991
       230.000         184.000
  24961459.854    -5825960.81749  -4501594.99145  24961458.952    24961468.470
       206.000         143.000
  21405071.192   -14253842.62749 -11082241.44047  21405070.638    21405078.287
       237.000         197.000
  23454504.478      301876.76749    253384.91046  23454505.484    23454512.620
       216.000         165.000
 03  3 20 23 18  0.0000000  0  9G23G16G 6G17G18G26G 2G15G29
  20576750.592    -8917370.91449  -6918566.80548  20576750.192    20576757.033
       243.000         214.000
  23240957.239    -7653888.20949  -5947636.31146  23240957.350    23240965.382
       221.000         165.000
  21407713.392     4055813.61249   3169386.06347  21407713.788    21407720.971
       237.000         198.000
  20815207.712    -4227883.35049  -3278031.76247  20815207.332    20815214.559
       241.000         211.000
  20780449.370   -13950343.13749 -10845486.31247  20780448.945    20780455.077
       241.000         211.000
  21877077.328    -6632652.27649  -5146942.91646  21877077.255    21877084.379
       229.000         184.000
  24955699.245    -5856232.77349  -4525183.48445  24955699.249    24955707.718
       206.000         143.000
  21395774.920   -14302694.63249 -11120307.90047  21395774.344    21395782.001
       237.000         197.000
  23464441.642      354097.01349    294076.00346  23464441.715    23464449.805
       217.000         165.000
 03  3 20 23 18 30.0000000  0  9G23G16G 6G17G18G26G 2G15G29
  20576259.750    -8919950.28749  -6920576.68048  20576259.312    20576266.203
       243.000         214.000
  23242216.951    -7647268.47849  -5942478.08346  23242215.999    23242224.275
       220.000         165.000
  21421383.725     4127651.26349   3225363.42447  21421383.875    21421391.290
       236.000         198.000
  20814573.408    -4231216.47349  -3280628.98647  20814573.031    20814580.671
       241.000         211.000
  20772639.079   -13991386.32149 -10877467.96847  20772638.572    20772644.561
       241.000         211.000
  21881638.842    -6608681.32849  -5128264.22646  21881638.537    21881646.559
       229.000         183.000
  24950018.791    -5886083.09749  -4548443.44545  24950017.912    24950027.543
       205.000         142.000
  21386507.113   -14351397.30949 -11158258.00647  21386506.739    21386513.859
       237.000         197.000
  23474468.684      406789.44449    335135.02246  23474468.843    23474476.784
       217.000         165.000
 03  3 20 23 19  0.0000000  0  9G23G16G 6G17G18G26G 2G15G29
  20575848.871    -8922109.55749  -6922259.20748  20575848.596    20575855.293
       243.000         214.000
  23243576.542    -7640123.78549  -5936910.80846  23243576.307    23243584.221
       221.000         166.000
  21435130.566     4199890.86549   3281653.98747  21435130.798    21435138.174
       236.000         198.000
  20813972.591    -4234373.68649  -3283089.14347  20813972.247    20813979.546
       242.000         211.000
  20764910.156   -14032001.78349 -10909116.33747  20764909.652    20764915.576
       241.000         211.000
  21886322.912    -6584066.22749  -5109083.60646  21886323.514    21886330.221
       229.000         184.000
  24944418.593    -5915510.94149  -4571374.19345  24944417.939    24944427.646
       204.000         141.000
  21377267.804   -14399950.26749 -11196091.45247  21377267.016    21377274.898
       236.000         197.000
  23484585.280      459952.53149    376560.79746  23484585.340    23484593.129
       216.000         166.000
 03  3 20 23 19 30.0000000  0  9G23G16G 6G17G18G26G 2G15G29
  20575517.858    -8923849.22749  -6923614.76848  20575517.566    20575524.491
       243.000         214.000
  23245035.946    -7632454.45049  -5930934.70446  23245035.697    23245043.271
       219.000         165.000
  21448953.762     4272531.84949   3338257.32147  21448953.778    21448961.252
       236.000         198.000
  20813405.436    -4237354.02749  -3285411.47747  20813405.099    20813412.535
       241.000         211.000
  20757262.788   -14072188.67549 -10940430.76047  20757262.456    20757268.356
       241.000         211.000
  21891129.631    -6558806.85249  -5089400.95046  21891129.816    21891137.327
       229.000         184.000
  24938899.207    -5944515.20149  -4593974.87345  24938899.359    24938908.889
       209.000         141.000
  21368057.079   -14448352.33949 -11233807.32547  21368056.402    21368063.948
       236.000         197.000
  23494791.309      513585.57849    418352.76246  23494791.594    23494799.102
       219.000         167.000
 03  3 20 23 20  0.0000000  0  9G23G16G 6G17G18G26G 2G15G29
  20575266.212    -8925171.40649  -6924645.01048  20575265.830    20575272.526
       243.000         214.000
  23246594.714    -7624262.47049  -5924551.33746  23246595.127    23246601.980
       220.000         164.000
  21462852.837     4345571.86849   3395171.59547  21462852.846    21462860.203
       236.000         198.000
  20812871.882    -4240157.69649  -3287596.14047  20812871.499    20812878.861
       241.000         211.000
  20749696.775   -14111948.08349 -10971412.07447  20749696.264    20749702.319
       240.000         211.000
  21896058.575    -6532904.89249  -5069217.57646  21896058.614    21896066.403
       230.000         184.000
  24933460.391    -5973096.57249  -4616246.04245  24933459.325    24933470.226
       206.000         142.000
  21358875.106   -14496603.87249 -11271405.89347  21358874.749    21358882.242
       237.000         198.000
  23505086.349      567685.89849    460508.85246  23505086.137    23505094.524
       218.000         167.000
 03  3 20 23 20 30.0000000  0  9G23G16G 6G17G18G26G 2G15G29
  20575093.841    -8926077.14549  -6925350.75248  20575093.419    20575100.241
       244.000         215.000
  23248252.848    -7615548.65149  -5917761.35446  23248252.320    23248260.073
       219.000         164.000
  21476827.586     4419009.42549   3452395.63647  21476827.372    21476834.994
       236.000         197.000
  20812372.051    -4242784.34049  -3289642.85947  20812371.595    20812379.145
       241.000         211.000
  20742212.089   -14151279.80449 -11002060.12647  20742211.676    20742217.537
       241.000         211.000
  21901109.633    -6506361.04649  -5048534.03446  21901109.637    21901117.442
       229.000         184.000
  24928102.090    -6001254.69449  -4638187.40145  24928102.214    24928111.725
       205.000         141.000
  21349721.825   -14544704.64149 -11308886.98247  21349721.335    21349728.667
       237.000         198.000
  23515469.886      622251.72249    503027.68346  23515470.588    23515477.978
       219.000         167.000
 03  3 20 23 21  0.0000000  0  9G23G16G 6G17G18G26G 2G15G29
  20575000.582    -8926567.07649  -6925732.48448  20575000.274    20575007.195
       244.000         215.000
  23250010.235    -7606313.54149  -5910565.17546  23250010.423    23250017.283
       220.000         164.000
  21490877.767     4492843.55249   3509928.68547  21490877.745    21490885.159
       236.000         197.000
  20811905.997    -4245233.26549  -3291551.09647  20811905.628    20811912.951
       242.000         211.000
  20734808.961   -14190183.38249 -11032374.56047  20734808.721    20734814.446
       241.000         211.000
  21906282.866    -6479175.38149  -5027350.37046  21906283.156    21906290.880
       229.000         184.000
  24922824.410    -6028988.58949  -4659798.20445  24922823.019    24922833.896
       205.000         141.000
  21340597.426   -14592653.63349 -11346249.80847  21340597.002    21340604.258
       237.000         198.000
  23525941.824      677282.07649    545908.48446  23525941.500    23525950.318
       219.000         166.000
 03  3 20 23 21 30.0000000  0  9G23G16G 6G17G18G26G 2G15G29
  20574986.240    -8926642.39049  -6925791.14248  20574985.884    20574992.592
       243.000         215.000
  23251866.531    -7596558.36249  -5902963.73546  23251866.258    23251874.402
       220.000         164.000
  21505003.121     4567072.64349   3567769.49447  21505002.976    21505010.771
       234.000         197.000
  20811473.849    -4247504.22549  -3293320.65747  20811473.507    20811480.943
       241.000         211.000
  20727487.309   -14228658.83649 -11062355.39547  20727486.949    20727492.910
       241.000         211.000
  21911578.048    -6451349.04749  -5005667.49746  21911577.910    21911585.687
       229.000         184.000
  24917627.516    -6056298.12249  -4681078.31845  24917626.776    24917637.122
       206.000         141.000
  21331501.986   -14640450.39749 -11383494.01247  21331501.059    21331508.865
       237.000         198.000
  23536501.763      732775.06849    589149.77146  23536501.929    23536510.004
       216.000         164.000
 03  3 20 23 22  0.0000000  0  9G23G16G 6G17G18G26G 2G15G29
  20575050.567    -8926304.28349  -6925527.65748  20575050.039    20575057.076
       243.000         215.000
  23253821.617    -7586284.38549  -5894958.03246  23253821.085    23253829.289
       219.000         163.000
  21519203.321     4641695.32449   3625917.00047  21519203.336    21519211.031
       235.000         196.000
  20811075.730    -4249596.42249  -3294950.92447  20811075.172    20811082.838
       241.000         211.000
  20720247.128   -14266706.18949 -11092002.65147  20720246.812    20720252.648
       241.000         211.000
  21916995.003    -6422882.82249  -4983485.99546  21916995.160    21917002.469
       229.000         183.000
  24912511.556    -6083183.03349  -4702027.56245  24912510.878    24912519.650
       206.000         140.000
  21322435.520   -14688094.65549 -11420619.37147  21322434.945    21322442.407
       237.000         198.000
  23547149.442      788729.05749    632750.27146  23547149.478    23547157.485
       218.000         163.000
 03  3 20 23 22 30.0000000  0  9G23G16G 6G17G18G26G 2G15G29
  20575193.302    -8925553.97549  -6924942.97848  20575192.830    20575199.788
       243.000         214.000
  23255875.285    -7575492.42049  -5886548.72846  23255875.412    23255882.636
       219.000         163.000
  21533478.246     4716710.33849   3684370.20547  21533478.223    21533485.686
       234.000         196.000
  20810711.651    -4251509.68549  -3296441.76847  20810711.284    20810718.567
       242.000         211.000
  20713088.456   -14304325.18949 -11121316.12447  20713088.217    20713093.788
       241.000         211.000
  21922533.651    -6393777.09249  -4960806.18446  21922533.976    21922541.172
       230.000         183.000
  24907476.327    -6109642.74349  -4722645.48145  24907476.223    24907484.860
       208.000         141.000
  21313398.212   -14735585.83249 -11457625.45747  21313397.612    21313405.131
       237.000         198.000
  23557884.603      845142.40849    676708.73345  23557884.446    23557893.329
       219.000         162.000
 03  3 20 23 23  0.0000000  0  9G23G16G 6G17G18G26G 2G15G29
  20575414.063    -8924393.54049  -6924038.71548  20575413.418    20575420.613
       242.000         214.000
  23258027.134    -7564184.59249  -5877737.43746  23258027.113    23258034.172
       219.000         163.000
  21547827.311     4792115.35549   3743127.31647  21547827.250    21547834.797
       234.000         195.000
  20810381.616    -4253244.21549  -3297793.33447  20810381.243    20810388.468
       242.000         211.000
  20706011.139   -14341516.75449 -11150296.52047  20706010.957    20706016.684
       241.000         211.000
  21928193.711    -6364033.65049  -4937629.45246  21928193.877    21928201.090
       229.000         184.000
  24902522.023    -6135677.84949  -4742932.54945  24902522.033    24902531.050
       209.000         142.000
  21304389.969   -14782924.18649 -11494512.44747  21304389.328    21304396.992
       237.000         199.000
  23568706.673      902012.70849    721023.25345  23568706.684    23568714.169
       216.000         162.000
 03  3 20 23 23 30.0000000  0  9G23G16G 6G17G18G26G 2G15G29
  20575712.794    -8922823.48949  -6922815.27148  20575712.521    20575719.438
       243.000         214.000
  23260277.113    -7552361.28649  -5868524.49346  23260277.505    23260284.340
       219.000         163.000
  21562250.475     4867909.47549   3802187.62947  21562250.535    21562257.766
       234.000         195.000
  20810085.778    -4254798.89949  -3299004.76147  20810085.378    20810092.659
       241.000         211.000
  20699015.277   -14378280.28049 -11178943.38847  20699015.030    20699020.612
       241.000         212.000
  21933974.969    -6333652.90949  -4913956.12946  21933974.775    21933982.617
       230.000         183.000
  24897648.809    -6161287.33049  -4762887.95345  24897648.607    24897657.460
       207.000         142.000
  21295411.098   -14830108.59449 -11531279.49147  21295410.784    21295418.060
       237.000         199.000
  23579615.375      959338.85049    765692.97045  23579615.412    23579623.763
       218.000         162.000
 03  3 20 23 24  0.0000000  0  9G23G16G 6G17G18G26G 2G15G29
  20576089.269    -8920845.05949  -6921273.60848  20576089.030    20576095.875
       243.000         214.000
  23262624.959    -7540023.72649  -5858910.81146  23262625.000    23262632.384
       219.000         163.000
  21576747.434     4944091.11549   3861549.90747  21576747.539    21576754.683
       235.000         195.000
  20809824.161    -4256173.51649  -3300075.87647  20809823.809    20809830.932
       241.000         211.000
  20692100.862   -14414615.71149 -11207256.66947  20692100.437    20692106.201
       241.000         212.000
  21939877.288    -6302635.72749  -4889786.87246  21939877.569    21939884.178
       229.000         183.000
  24892856.343    -6186471.16949  -4782511.68045  24892855.675    24892865.506
       207.000         141.000
  21286461.521   -14877138.93149 -11567926.47047  21286461.020    21286468.091
       238.000         199.000
  23590610.609     1017118.78449    810716.29645  23590610.870    23590618.798
       218.000         162.000
 03  3 20 23 24 30.0000000  0  9G23G16G 6G17G18G26G 2G15G29
  20576543.140    -8918459.83749  -6919414.96348  20576542.796    20576549.678
       243.000         214.000
  23265070.360    -7527173.51349  -5848897.65945  23265070.437    23265077.483
       219.000         162.000
  21591317.790     5020658.52849   3921212.77447  21591318.082    21591325.247
       235.000         195.000
  20809596.939    -4257367.57849  -3301006.30747  20809596.626    20809603.953
       241.000         211.000
  20685267.779   -14450523.69349 -11235236.87647  20685267.477    20685272.985
       241.000         211.000
  21945900.472    -6270983.38149  -4865122.68746  21945900.519    21945908.225
       228.000         183.000
  24888145.030    -6211229.18349  -4801803.60145  24888144.346    24888154.198
       205.000         141.000
  21277541.270   -14924015.04949 -11604453.27747  21277540.815    21277548.204
       237.000         199.000
  23601691.749     1075350.72349    856091.83445  23601691.919    23601700.347
       217.000         162.000
 03  3 20 23 25  0.0000000  0  9G23G16G 6G17G18G26G 2G15G29
  20577074.342    -8915668.39249  -6917239.78448  20577074.028    20577080.815
       243.000         214.000
  23267613.260    -7513811.19949  -5838485.48045  23267613.157    23267619.955
       219.000         161.000
  21605961.367     5097610.80049   3981175.53547  21605961.894    21605969.031
       234.000         195.000
  20809404.226    -4258380.22049  -3301795.36347  20809403.889    20809410.834
       241.000         211.000
  20678516.174   -14486003.53449 -11262883.46747  20678515.821    20678521.386
       241.000         211.000
  21952044.440    -6238696.18049  -4839963.82046  21952044.226    21952051.937
       229.000         182.000
  24883514.636    -6235560.84349  -4820763.28745  24883513.002    24883523.882
       204.000         141.000
  21268650.645   -14970735.74749 -11640858.98247  21268650.170    21268657.504
       238.000         200.000
  23612858.712     1134033.37149    901818.56845  23612859.308    23612866.624
       215.000         162.000
 03  3 20 23 25 30.0000000  0  9G23G16G 6G17G18G26G 2G15G29
  20577682.508    -8912472.34349  -6914749.33248  20577682.127    20577688.903
       243.000         214.000
  23270253.148    -7499938.53749  -5827675.63245  23270253.729    23270259.852
       219.000         161.000
  21620677.888     5174946.07049   4041436.73447  21620678.226    21620685.248
       234.000         194.000
  20809246.103    -4259211.08349  -3302442.76647  20809245.659    20809252.984
       241.000         211.000
  20671845.949   -14521055.49349 -11290196.64347  20671845.589    20671851.340
       240.000         211.000
  21958309.053    -6205775.48349  -4814311.32346  21958309.079    21958316.351
       228.000         182.000
  24878965.425    -6259466.15349  -4839390.75545  24878964.731    24878975.284
       206.000         141.000
  21259789.554   -15017300.87949 -11677143.46947  21259789.054    21259795.889
       238.000         200.000
  23624111.046     1193164.50049    947894.76345  23624111.178    23624118.667
       215.000         162.000
 03  3 20 23 26  0.0000000  0  9G23G16G 6G17G18G26G 2G15G29
  20578367.412    -8908873.01349  -6911944.63748  20578366.943    20578373.923
       243.000         215.000
  23272989.994    -7485556.55549  -5816468.90745  23272989.784    23272996.136
       218.000         161.000
  21635466.732     5252662.52349   4101994.94747  21635466.538    21635474.394
       233.000         194.000
  20809122.621    -4259859.80349  -3302948.24447  20809122.145    20809129.312
       241.000         210.000
  20665257.014   -14555679.93849 -11317176.69347  20665256.511    20665262.376
       241.000         211.000
  21964693.936    -6172222.31749  -4788165.98346  21964693.639    21964701.596
       226.000         181.000
  24874497.508    -6282945.05549  -4857685.97345  24874497.164    24874507.010
       205.000         141.000
  21250958.146   -15063710.00449 -11713306.39047  21250957.438    21250964.969
       238.000         200.000
  23635448.409     1252742.41149    994319.10345  23635448.729    23635456.102
       215.000         160.000
 03  3 20 23 26 30.0000000  0  9G23G16G 6G17G18G26G 2G15G29
  20579128.931    -8904871.02649  -6908826.18648  20579128.596    20579135.539
       244.000         215.000
  23275823.433    -7470666.11449  -5804865.98145  23275823.273    23275829.259
       217.000         161.000
  21650327.992     5330759.28449   4162849.50647  21650327.910    21650335.961
       233.000         193.000
  20809034.018    -4260325.28649  -3303310.94447  20809033.436    20809040.896
       241.000         210.000
  20658749.653   -14589876.23549 -11343823.12247  20658749.425    20658755.138
       241.000         212.000
  21971199.100    -6138037.17149  -4761528.19646  21971199.765    21971206.564
       228.000         181.000
  24870111.131    -6305996.54849  -4875648.14045  24870111.020    24870120.625
       207.000         141.000
  21242156.652   -15109961.74449 -11749346.67547  21242156.581    21242163.447
       238.000         200.000
  23646870.469     1312765.91049   1041090.65245  23646870.822    23646878.648
       213.000         158.000
 03  3 20 23 27  0.0000000  0  9G23G16G 6G17G18G26G 2G15G29
  20579966.592    -8900468.90349  -6905395.93848  20579966.366    20579973.276
       244.000         215.000
  23278753.249    -7455269.66049  -5792868.74945  23278753.534    23278760.221
       217.000         161.000
  21665261.127     5409233.49749   4223998.18747  21665261.532    21665269.063
       233.000         193.000
  20808980.165    -4260608.04349  -3303531.25847  20808979.833    20808987.101
       242.000         210.000
  20652323.511   -14623645.75649 -11370136.99547  20652323.134    20652328.906
       241.000         212.000
  21977824.204    -6103222.21349  -4734399.64746  21977824.639    21977831.283
       228.000         182.000
  24865805.696    -6328621.77249  -4893278.15945  24865805.221    24865814.873
       206.000         142.000
  21233385.066   -15156056.88449 -11785264.92747  21233384.714    21233391.735
       238.000         200.000
  23658376.759     1373232.09049   1088207.15645  23658376.857    23658384.142
       211.000         157.000
 03  3 20 23 27 30.0000000  0  9G23G16G 6G17G18G26G 2G15G29
  20580880.250    -8895667.60849  -6901654.64648  20580879.983    20580886.990
       244.000         215.000
  23281779.268    -7439368.10149  -5780477.94945  23281779.070    23281786.081
       217.000         161.000
  21680265.950     5488084.00049   4285440.06147  21680266.234    21680273.811
       233.000         192.000
  20808961.188    -4260707.84449  -3303609.01147  20808960.586    20808967.837
       241.000         210.000
  20645978.618   -14656988.29249 -11396118.14847  20645978.237    20645984.099
       241.000         212.000
  21984568.932    -6067778.22649  -4706780.94546  21984569.699    21984576.116
       228.000         182.000
  24861581.447    -6350820.36649  -4910575.74245  24861579.826    24861591.105
       204.000         141.000
  21224643.304   -15201994.90449 -11821060.75247  21224642.586    21224650.414
       238.000         200.000
  23669966.992     1434139.21849   1135667.25445  23669966.983    23669974.196
       212.000         155.000
 03  3 20 23 28  0.0000000  0  9G23G16G 6G17G18G26G 2G15G29
  20581869.870    -8890467.30749  -6897602.43648  20581869.628    20581876.272
       245.000         215.000
  23284901.352    -7422961.72349  -5767693.77545  23284901.228    23284908.728
       219.000         162.000
  21695342.308     5567310.26449   4347174.75947  21695342.467    21695350.089
       233.000         192.000
  20808977.375    -4260622.65849  -3303542.61447  20808976.835    20808983.984
       241.000         210.000
  20639715.143   -14689902.80549 -11421765.78247  20639715.003    20639720.672
       241.000         212.000
  21991433.389    -6031705.22849  -4678672.11446  21991433.987    21991441.187
       229.000         182.000
  24857438.579    -6372590.98449  -4927539.83445  24857437.804    24857447.455
       204.000         141.000
  21215931.816   -15247773.99549 -11856732.74647  21215931.396    21215938.714
       238.000         200.000
  23681640.918     1495486.58249   1183470.37345  23681640.751    23681648.384
       213.000         155.000
 03  3 20 23 28 30.0000000  0  9G23G16G 6G17G18G26G 2G15G29
  20582934.946    -8884870.38949  -6893241.17848  20582934.581    20582941.485
       245.000         215.000
  23288119.056    -7406052.94949  -5754518.12145  23288118.601    23288126.143
       218.000         162.000
  21710489.555     5646909.51149   4409200.09147  21710489.751    21710497.642
       233.000         191.000
  20809028.724    -4260352.87549  -3303332.37747  20809028.369    20809035.544
       242.000         211.000
  20633532.977   -14722390.46449 -11447080.80147  20633532.653    20633538.415
       241.000         212.000
  21998417.148    -5995005.44749  -4650074.87046  21998417.892    21998424.617
       230.000         183.000
  24853376.910    -6393934.68449  -4944171.25445  24853376.605    24853386.577
       204.000         140.000
  21207250.466   -15293394.74149 -11892281.34947  21207249.707    21207257.251
       237.000         201.000
  23693398.239     1557271.32749   1231614.32545  23693398.611    23693406.056
       214.000         155.000
 03  3 20 23 29  0.0000000  0  9G23G16G 6G17G18G26G 2G15G29
  20584075.019    -8878878.96349  -6888572.51048  20584074.632    20584081.426
       244.000         215.000
  23291431.822    -7388643.82249  -5740952.58545  23291432.297    23291439.647
       218.000         162.000
  21725707.403     5726879.42349   4471514.26047  21725707.696    21725715.392
       233.000         191.000
  20809115.045    -4259899.22049  -3302978.86847  20809114.560    20809121.950
       241.000         210.000
  20627431.801   -14754452.59149 -11472064.24447  20627431.516    20627437.128
       241.000         212.000
  22005519.820    -5957680.79749  -4620990.72046  22005520.275    22005527.841
       229.000         183.000
  24849396.498    -6414851.97249  -4960470.41545  24849396.261    24849405.193
       203.000         140.000
  21198599.187   -15338857.36049 -11927706.72947  21198598.506    21198606.268
       237.000         201.000
  23705238.286     1619490.83349   1280097.05645  23705237.865    23705246.635
       214.000         157.000
 03  3 20 23 29 30.0000000  0  9G23G16G 6G17G18G26G 2G15G29
  20585290.292    -8872492.64849  -6883596.13448  20585289.930    20585296.810
       245.000         215.000
  23294839.793    -7370734.24849  -5726997.07545  23294840.008    23294846.777
       218.000         162.000
  21740995.783     5807220.06249   4534117.31847  21740995.792    21741003.877
       233.000         191.000
  20809236.779    -4259259.19849  -3302480.13147  20809236.425    20809243.662
       241.000         210.000
  20621411.895   -14786087.31149 -11496714.63347  20621411.324    20621417.165
       242.000         212.000
  22012741.474    -5919730.88849  -4591419.35146  22012741.796    22012748.900
       229.000         183.000
  24845497.537    -6435341.25549  -4976436.05745  24845497.580    24845506.553
       204.000         140.000
  21189978.497   -15384159.44449 -11963007.01447  21189977.884    21189985.159
       238.000         201.000
  23717160.862     1682144.89349   1328918.39745  23717161.571    23717169.079
       214.000         158.000
 03  3 20 23 30  0.0000000  0  9G23G16G 6G17G18G26G 2G15G29
  20586580.218    -8865714.21049  -6878314.21148  20586579.757    20586586.566
       244.000         215.000
  23298342.593    -7352327.07649  -5712653.83345  23298342.663    23298349.378
       217.000         162.000
  21756354.109     5887928.24549   4597006.74647  21756354.519    21756361.937
       233.000         191.000
  20809393.915    -4258433.46049  -3301836.68847  20809393.607    20809400.962
       241.000         210.000
  20615472.926   -14817296.38549 -11521033.34947  20615472.375    20615478.284
       242.000         212.000
  22020081.585    -5881158.37349  -4561362.83046  22020081.675    22020089.380
       229.000         184.000
  24841679.680    -6455403.84649  -4992069.22545  24841679.123    24841689.339
       206.000         142.000
  21181388.138   -15429302.02649 -11998183.01147  21181387.511    21181394.667
       238.000         201.000
  23729165.663     1745230.06949   1378075.67545  23729165.201    23729173.822
       216.000         159.000
 03  3 20 23 30 30.0000000  0  9G23G16G 6G17G18G26G 2G15G29
  20587944.631    -8858543.99649  -6872727.00848  20587944.203    20587951.028
       244.000         214.000
  23301939.946    -7333422.58849  -5697923.06845  23301940.352    23301947.253
       218.000         162.000
  21771782.341     5969003.56849   4660182.27147  21771782.529    21771790.571
       232.000         191.000
  20809586.652    -4257420.63049  -3301047.45047  20809586.073    20809593.666
       241.000         210.000
  20609615.136   -14848079.03649 -11545019.79348  20609614.940    20609620.440
       242.000         213.000
  22027540.155    -5841963.41349  -4530821.29446  22027541.021    22027548.489
       229.000         183.000
  24837943.288    -6475038.71849  -5007369.10345  24837943.110    24837952.844
       203.000         144.000
  21172828.375   -15474283.63849 -12033233.58447  21172827.656    21172835.074
       237.000         200.000
  23741252.173     1808745.44449   1427568.16545  23741252.353    23741260.451
       215.000         160.000
 03  3 20 23 31  0.0000000  0  9G23G16G 6G17G18G26G 2G15G29
  20589383.089    -8850984.90149  -6866836.78448  20589382.547    20589389.462
       244.000         214.000
  23305631.330    -7314023.93749  -5682807.24745  23305631.607    23305638.138
       219.000         162.000
  21787279.743     6050442.63449   4723641.24047  21787279.970    21787287.771
       232.000         191.000
  20809814.864    -4256221.24449  -3300112.85647  20809814.395    20809821.764
       241.000         210.000
  20603838.265   -14878436.80049 -11568675.15848  20603838.090    20603843.721
       243.000         213.000
  22035116.643    -5802148.80549  -4499796.91946  22035117.256    22035123.733
       229.000         183.000
  24834288.091    -6494247.31749  -5022336.82345  24834287.530    24834297.121
       205.000         144.000
  21164299.033   -15519105.17849 -12068159.42647  21164298.381    21164305.646
       237.000         200.000
  23753420.030     1872687.70749   1477393.29245  23753420.479    23753428.227
       217.000         161.000
 03  3 20 23 31 30.0000000  0 10G23G16G 6G17G 3G18G26G 2G15G29
  20590895.633    -8843036.12249  -6860642.90848  20590895.300    20590901.902
       244.000         214.000
  23309416.918    -7294130.53549  -5667305.90345  23309416.727    23309424.388
       217.000         162.000
  21802846.394     6132245.88849   4787383.99147  21802846.903    21802854.417
       232.000         191.000
  20810078.978    -4254833.27949  -3299031.30747  20810078.572    20810085.838
       241.000         211.000
                   -147912.83659    -89737.88843
       206.000          74.000
  20598142.569   -14908367.99449 -11591998.13048  20598142.183    20598147.883
       243.000         213.000
  22042811.197    -5761713.77249  -4468289.09146  22042811.219    22042818.830
       229.000         182.000
  24830714.417    -6513027.56549  -5036970.76645  24830713.615    24830723.448
       203.000         144.000
  21155800.759   -15563763.81849 -12102958.33647  21155800.404    21155807.593
       238.000         201.000
  23765669.179     1937057.00849   1527551.16945  23765669.220    23765676.609
       216.000         161.000
 03  3 20 23 32  0.0000000  0 10G23G16G 6G17G 3G18G26G 2G15G29
  20592481.818    -8834700.31749  -6854147.45248  20592481.532    20592488.340
       244.000         214.000
  23313296.090    -7273744.92049  -5651421.01146  23313295.561    23313303.789
       217.000         163.000
  21818481.879     6214410.46849   4851408.28447  21818481.769    21818489.630
       232.000         190.000
  20810378.849    -4253257.40149  -3297803.33247  20810378.395    20810385.939
       241.000         211.000
                   -248233.82949   -167910.20943
       205.000          74.000
  20592527.723   -14937874.10649 -11614989.86348  20592527.310    20592532.949
       243.000         213.000
  22050623.242    -5720660.88949  -4436299.81746  22050623.331    22050631.080
       228.000         182.000
  24827221.862    -6531380.88049  -5051272.04145  24827222.112    24827231.310
       207.000         144.000
  21147333.380   -15608260.26649 -12137630.85547  21147332.706    21147340.094
       237.000         201.000
  23777998.900     2001850.16149   1578039.31445  23777999.024    23778006.923
       214.000         161.000
 03  3 20 23 32 30.0000000  0 10G23G16G 6G17G 3G18G26G 2G15G29
  20594141.285    -8825979.69449  -6847352.14448  20594140.823    20594147.727
       244.000         214.000
  23317268.506    -7252869.50049  -5635154.45645  23317268.051    23317275.648
       218.000         162.000
  21834185.630     6296933.88049   4915712.18347  21834186.038    21834193.812
       232.000         190.000
  20810714.421    -4251493.99549  -3296429.23647  20810714.102    20810721.371
       241.000         211.000
                   -348422.01249   -245978.84844                  24498856.432
       206.000         115.000
  20586993.554   -14966956.07249 -11637651.09048  20586993.171    20586998.769
       242.000         213.000
  22058552.416    -5678992.26349  -4403830.73946  22058552.872    22058559.896
       228.000         181.000
  24823810.487    -6549307.82749  -5065241.07545  24823810.084    24823819.309
       208.000         145.000
  21138896.716   -15652594.74349 -12172177.16947  21138895.977    21138903.330
       238.000         201.000
  23790408.767     2067064.20549   1628855.43445  23790409.083    23790416.967
       215.000         161.000
 03  3 20 23 33  0.0000000  0 10G23G16G 6G17G 3G18G26G 2G15G29
  20595873.890    -8816874.46349  -6840257.14248  20595873.473    20595880.327
       244.000         214.000
  23321334.231    -7231504.61049  -5618506.49846  23321334.346    23321341.450
       218.000         163.000
  21849957.521     6379815.36649   4980295.11047  21849957.639    21849965.431
       231.000         189.000
  20811086.139    -4249540.48449  -3294907.00947  20811085.635    20811093.111
       242.000         211.000
  24479808.229     -448473.81549   -323941.16945  24479808.611    24479818.534
       206.000         139.000
  20581540.229   -14995613.06649 -11659981.17348  20581539.916    20581545.497
       242.000         213.000
  22066598.738    -5636708.18749  -4370882.09646  22066598.911    22066606.003
       228.000         181.000
  24820480.604    -6566807.34149  -5078877.06845  24820480.589    24820489.705
       208.000         145.000
  21130491.243   -15696765.64849 -12206596.02747  21130490.846    21130498.282
       238.000         201.000
  23802898.638     2132698.64149   1679999.13845  23802898.586    23802907.018
       215.000         160.000
 03  3 20 23 33 30.0000000  0 10G23G16G 6G17G 3G18G26G 2G15G29
  20597679.198    -8807387.36249  -6832864.57248  20597678.704    20597685.720
       244.000         214.000
  23325492.480    -7209653.32949  -5601479.52346  23325492.647    23325499.776
       219.000         163.000
  21865796.946     6463052.01249   5045154.76947  21865796.844    21865804.694
       230.000         188.000
  20811493.835    -4247398.15449  -3293237.64447  20811493.533    20811500.716
       241.000         211.000
  24460795.112     -548388.07749   -401796.32945  24460795.684    24460804.861
       207.000         142.000
  20576167.565   -15023846.64949 -11681981.32448  20576167.276    20576172.697
       242.000         213.000
  22074761.785    -5593811.46949  -4337456.06546  22074762.380    22074769.340
       228.000         180.000
  24817231.812    -6583880.93549  -5092181.16245  24817231.588    24817240.335
       209.000         145.000
  21122116.775   -15740773.58849 -12240887.90747  21122116.533    21122123.250
       238.000         201.000
  23815467.809     2198750.15349   1731467.82145  23815467.655    23815476.058
       214.000         160.000
 03  3 20 23 34  0.0000000  0 10G23G16G 6G17G 3G18G26G 2G15G29
  20599557.072    -8797519.01549  -6825174.93348  20599556.844    20599563.400
       244.000         214.000
  23329743.239    -7187316.32949  -5584074.07546  23329742.625    23329749.178
       219.000         163.000
  21881703.703     6546642.91149   5110290.47447  21881703.382    21881711.077
       229.000         188.000
  20811937.637    -4245065.73049  -3291420.14947  20811937.376    20811944.423
       241.000         211.000
  24441809.218     -648161.76849   -479541.96745  24441809.228    24441817.825
       205.000         143.000
  20570875.481   -15051656.49249 -11703651.29648  20570875.129    20570880.753
       242.000         213.000
  22083041.147    -5550302.73049  -4303553.14846  22083040.699    22083048.491
       226.000         179.000
  24814063.986    -6600527.98449  -5105152.88345  24814063.202    24814072.890
       207.000         146.000
  21113773.658   -15784617.10249 -12275051.65447  21113773.039    21113780.046
       238.000         201.000
  23828115.983     2265217.10449   1783260.23345  23828115.929    23828123.730
       214.000         159.000
 03  3 20 23 34 30.0000000  0 10G23G16G 6G17G 3G18G26G 2G15G29
  20601507.406    -8787270.02249  -6817188.68348  20601507.173    20601513.898
       244.000         214.000
  23334086.172    -7164494.46049  -5566290.80546  23334085.779    23334092.536
       217.000         163.000
  21897677.808     6630587.17949   5175701.53047  21897677.823    21897685.908
       230.000         188.000
  20812417.897    -4242541.80849  -3289453.44447  20812417.403    20812424.564
       242.000         211.000
  24422850.435     -747791.53049   -557175.44245  24422850.353    24422859.199
       205.000         142.000
  20565664.163   -15079042.05349 -11724990.65648  20565663.717    20565669.350
       242.000         213.000
  22091436.923    -5506182.31449  -4269173.59646  22091436.956    22091444.634
       226.000         179.000
  24810977.465    -6616747.44249  -5117791.42445  24810976.478    24810986.329
       206.000         146.000
  21105462.049   -15828294.75249 -12309086.15347  21105461.593    21105468.739
       239.000         202.000
  23840843.024     2332098.60949   1835375.67945  23840842.628    23840851.387
       214.000         157.000
 03  3 20 23 35  0.0000000  0 10G23G16G 6G17G 3G18G26G 2G15G29
  20603529.738    -8776642.49349  -6808907.46848  20603529.483    20603536.364
       244.000         214.000
  23338520.768    -7141190.12649  -5548131.59046  23338520.249    23338528.064
       219.000         163.000
  21913718.682     6714882.11549   5241385.84947  21913718.878    21913726.845
       231.000         188.000
  20812934.650    -4239826.33849  -3287337.48447  20812934.275    20812941.398
       242.000         211.000
  24403919.236     -847275.99149   -634695.70845  24403919.508    24403927.973
       205.000         142.000
  20560533.353   -15106004.42949 -11746000.26148  20560532.889    20560538.458
       242.000         213.000
  22099948.641    -5461452.88149  -4234319.47846  22099949.293    22099956.369
       227.000         179.000
  24807972.059    -6632540.31749  -5130097.55245  24807971.449    24807980.577
       207.000         146.000
  21097181.971   -15871806.95049 -12342991.73247  21097181.295    21097188.824
       238.000         202.000
  23853648.462     2399391.84649   1887811.94645  23853648.623    23853656.471
       213.000         155.000
 03  3 20 23 35 30.0000000  0 10G23G16G 6G17G 3G18G26G 2G15G29
  20605623.801    -8765637.89849  -6800332.43948  20605623.414    20605630.215
       244.000         214.000
  23343046.989    -7117404.99549  -5529597.72646  23343046.935    23343054.710
       218.000         164.000
  21929825.974     6799526.12349   5307342.16947  21929826.067    21929833.657
       230.000         188.000
  20813487.981    -4236918.51649  -3285071.63147  20813487.393    20813494.802
       242.000         211.000
  24385016.166     -946612.51449   -712100.68945  24385015.795    24385024.833
       207.000         143.000
  20555483.012   -15132543.86349 -11766680.30448  20555482.675    20555488.247
       241.000         213.000
  22108576.057    -5416115.79049  -4198991.86446  22108575.911    22108583.715
       226.000         179.000
  24805047.815    -6647906.81349  -5142071.44145  24805047.063    24805056.537
       207.000         146.000
  21088933.450   -15915152.86749 -12376767.74147  21088932.686    21088940.173
       239.000         202.000
  23866531.979     2467094.88949   1940567.54545  23866532.264    23866539.902
       213.000         154.000
 03  3 20 23 36  0.0000000  0 10G23G16G 6G17G 3G18G26G 2G15G29
  20607789.504    -8754256.96549  -6791464.16848  20607789.324    20607795.939
       244.000         214.000
  23347664.532    -7093139.87049  -5510689.84546  23347664.548    23347671.530
       218.000         163.000
  21945999.422     6884518.07549   5373569.61146  21946000.050    21946007.227
       231.000         187.000
  20814078.089    -4233817.56149  -3282655.29347  20814077.624    20814085.086
       241.000         211.000
  24366141.830    -1045797.97549   -789387.97245  24366141.671    24366151.645
       208.000         144.000
  20550513.254   -15158659.85349 -11787030.39548  20550513.016    20550518.477
       241.000         213.000
  22117318.947    -5370171.73949  -4163191.30546  22117319.268    22117327.374
       227.000         180.000
  24802205.026    -6662846.22949  -5153712.54345  24802205.031    24802214.202
       208.000         147.000
  21080716.841   -15958331.17149 -12410413.14447  21080716.334    21080723.571
       239.000         202.000
  23879493.195     2535206.36649   1993641.40945  23879493.101    23879501.325
       213.000         154.000
 03  3 20 23 36 30.0000000  0 10G23G16G 6G17G 3G18G26G 2G15G29
  20610026.342    -8742502.37749  -6782304.73348  20610026.076    20610032.820
       244.000         214.000
  23352372.750    -7068397.67049  -5491410.20346  23352372.399    23352380.396
       215.000         163.000
  21962238.501     6969854.96649   5440065.85046  21962238.519    21962246.372
       231.000         187.000
  20814704.965    -4230523.29549  -3280088.31947  20814704.520    20814711.875
       241.000         211.000
  24347296.453    -1144831.17549   -866556.61645  24347296.357    24347305.275
       207.000         145.000
  20545623.767   -15184354.22949 -11807051.95348  20545623.551    20545629.002
       242.000         213.000
  22126176.808    -5323623.69449  -4126920.08946  22126177.176    22126184.350
       227.000         180.000
  24799443.233    -6677360.26049  -5165022.17845  24799442.743    24799452.424
       207.000         147.000
  21072532.119   -16001342.52149 -12443928.45047  21072531.280    21072538.756
       239.000         203.000
  23892531.428     2603722.92049   2047030.91545  23892532.304    23892538.875
       213.000         153.000
 03  3 20 23 37  0.0000000  0 10G23G16G 6G17G 3G18G26G 2G15G29
  20612334.167    -8730374.77549  -6772854.63748  20612333.728    20612340.448
       244.000         214.000
  23357171.555    -7043179.38649  -5471759.58846  23357171.207    23357178.674
       217.000         163.000
  21978543.059     7055535.61249   5506829.95546  21978542.971    21978550.898
       230.000         187.000
  20815368.738    -4227034.96449  -3277370.12847  20815368.290    20815375.533
       242.000         211.000
  24328480.551    -1243708.86049   -943604.07345  24328480.244    24328489.209
       209.000         146.000
  20540814.578   -15209626.65449 -11826744.72348  20540814.280    20540819.587
       242.000         213.000
  22135149.402    -5276472.45549  -4090178.85646  22135149.215    22135156.874
       227.000         179.000
  24796762.369    -6691448.12649  -5175999.72945  24796761.789    24796771.007
       208.000         147.000
  21064379.264   -16044185.57349 -12477312.62047  21064378.454    21064386.090
       239.000         203.000
  23905646.647     2672643.14549   2100734.96445  23905647.774    23905654.143
       211.000         152.000
 03  3 20 23 37 30.0000000  0 10G23G16G 6G17G 3G18G26G 2G15G29
  20614712.468    -8717876.53149  -6763115.73148  20614712.192    20614718.947
       244.000         214.000
  23362060.520    -7017487.48649  -5451739.92945  23362059.773    23362067.575
       216.000         162.000
  21994912.475     7141557.43249   5573859.89146  21994912.569    21994920.497
       231.000         187.000
  20816069.473    -4223352.81749  -3274500.90947  20816069.235    20816076.167
       242.000         211.000
  24309694.530    -1342429.72749  -1020529.33845  24309694.109    24309703.220
       208.000         146.000
  20536085.456   -15234478.26349 -11846109.58648  20536085.144    20536090.614
       242.000         213.000
  22144236.279    -5228720.38449  -4052969.44246  22144236.704    22144243.828
       227.000         178.000
  24794162.294    -6705110.92149  -5186646.05145  24794161.539    24794171.307
       207.000         148.000
  21056258.525   -16086860.42749 -12510565.73247  21056257.916    21056265.311
       239.000         203.000
  23918838.027     2741964.39649   2154751.49645  23918838.073    23918846.250
       212.000         152.000
 03  3 20 23 38  0.0000000  0 10G23G16G 6G17G 3G18G26G 2G15G29
  20617161.361    -8705007.25149  -6753087.70048  20617160.926    20617167.722
       243.000         213.000
  23367039.603    -6991321.86949  -5431351.15245  23367039.985    23367046.797
       216.000         162.000
  22011346.776     7227920.57949   5641155.79446  22011346.712    22011354.551
       230.000         186.000
  20816807.655    -4219473.84149  -3271478.31747  20816807.174    20816814.429
       242.000         211.000
  24290939.088    -1440989.31649  -1097328.91745  24290939.003    24290947.260
       206.000         146.000
  20531436.728   -15258907.52849 -11865145.34248  20531436.232    20531441.723
       242.000         213.000
  22153437.591    -5180367.01749  -4015291.50546  22153437.065    22153445.609
       227.000         178.000
  24791643.479    -6718346.81649  -5196959.71545  24791643.492    24791652.747
       208.000         148.000
  21048170.257   -16129364.41149 -12543685.69147  21048169.515    21048176.976
       240.000         203.000
  23932105.867     2811686.52549   2209080.40745  23932105.958    23932114.316
       211.000         152.000
 03  3 20 23 38 30.0000000  0 10G23G16G 6G17G 3G18G26G 2G15G29
  20619680.140    -8691770.76549  -6742773.53348  20619679.753    20619686.387
       243.000         213.000
  23372108.201    -6964686.76949  -5410596.51745  23372108.636    23372115.106
       217.000         162.000
  22027845.348     7314620.86549   5708714.40646  22027845.820    22027853.280
       229.000         186.000
  20817582.837    -4215399.95349  -3268303.84247  20817582.348    20817589.641
       241.000         211.000
  24272214.447    -1539387.44249  -1174002.67545  24272214.386    24272223.029
       208.000         147.000
  20526867.775   -15282917.01849 -11883854.00948  20526867.305    20526872.824
       241.000         213.000
  22162752.470    -5131416.76749  -3977148.44546  22162752.636    22162760.217
       226.000         179.000
  24789205.517    -6731158.68849  -5206942.98845  24789205.970    24789214.567
       208.000         149.000
  21040114.201   -16171699.28049 -12576673.86947  21040113.463    21040120.755
       240.000         204.000
  23945448.842     2881804.67949   2263717.88945  23945449.360    23945456.580
       209.000         151.000
 03  3 20 23 39  0.0000000  0 10G23G16G 6G17G 3G18G26G 2G15G29
  20622268.795    -8678167.43249  -6732173.51148  20622268.341    20622275.265
       244.000         213.000
  23377265.801    -6937583.04149  -5389476.74345  23377265.606    23377272.579
       217.000         161.000
  22044407.835     7401657.46849   5776535.08946  22044408.334    22044415.742
       230.000         185.000
  20818395.367    -4211129.89549  -3264976.51347  20818395.025    20818402.377
       241.000         211.000
  24253521.210    -1637620.89549  -1250548.10845  24253520.707    24253529.772
       207.000         148.000
  20522378.756   -15306506.40149 -11902235.31848  20522378.273    20522383.986
       242.000         213.000
  22172180.928    -5081869.86449  -3938540.47446  22172181.138    22172188.523
       226.000         179.000
  24786848.443    -6743545.49149  -5216595.03445  24786847.682    24786857.033
       207.000         148.000
  21032090.660   -16213863.08349 -12609528.75247  21032090.087    21032097.119
       240.000         204.000
  23958867.137     2952318.34249   2318663.57145  23958867.561    23958875.066
       211.000         152.000
 03  3 20 23 39 30.0000000  0 10G23G16G 6G17G 3G18G26G 2G15G29
  20624926.856    -8664199.26649  -6721289.20448  20624926.481    20624933.095
       243.000         213.000
  23382512.217    -6910012.65849  -5367993.32145  23382512.304    23382518.929
       217.000         162.000
  22061033.948     7489027.94049   5844615.92746  22061034.194    22061042.164
       230.000         185.000
  20819245.319    -4206663.20749  -3261495.97147  20819244.757    20819252.106
       241.000         211.000
  24234859.762    -1735687.41749  -1326963.47945  24234860.006    24234868.185
       211.000         149.000
  20517969.604   -15329676.66349 -11920290.03948  20517969.255    20517974.763
       241.000         213.000
  22181722.485    -5031728.82949  -3899469.54046  22181722.543    22181729.958
       227.000         179.000
  24784572.115    -6755507.96349  -5225916.42945  24784571.628    24784580.774
       209.000         147.000
  21024099.642   -16255856.00649 -12642250.48947  21024098.999    21024106.326
       239.000         203.000
  23972360.194     3023224.52749   2373915.11345  23972359.631    23972368.402
       213.000         153.000
 03  3 20 23 40  0.0000000  0 10G23G16G 6G17G 3G18G26G 2G15G29
  20627653.881    -8649868.45349  -6710122.31048  20627653.543    20627660.406
       243.000         213.000
  23387847.151    -6881978.04249  -5346148.17745  23387847.020    23387853.843
       219.000         162.000
  22077723.032     7576729.67049   5912954.89246  22077722.711    22077730.919
       228.000         185.000
  20820132.659    -4201999.93149  -3257862.22947  20820132.232    20820139.567
       241.000         210.000
  24216230.425    -1833585.42049  -1403247.54645  24216230.482    24216237.986
       211.000         150.000
  20513640.052   -15352428.60149 -11938018.78848  20513639.833    20513645.181
       242.000         213.000
  22191376.643    -4980996.07449  -3859937.52046  22191376.340    22191384.217
       226.000         179.000
  24782376.362    -6767047.39049  -5234908.19345  24782375.948    24782384.768
       206.000         147.000
  21016141.174   -16297677.73049 -12674838.81047  21016140.469    21016147.940
       239.000         204.000
  23985927.376     3094520.57749   2429470.44945  23985927.578    23985935.492
       213.000         154.000
 03  3 20 23 40 30.0000000  0 10G23G16G 6G17G 3G18G26G 2G15G29
  20630450.205    -8635173.52249  -6698671.69648  20630449.857    20630456.770
       244.000         213.000
  23393270.492    -6853478.47849  -5323940.73945  23393270.746    23393277.404
       220.000         162.000
  22094475.356     7664763.83449   5981552.90546  22094474.933    22094484.181
       229.000         184.000
  20821058.140    -4197136.54849  -3254072.56747  20821057.812    20821064.927
       241.000         210.000
  24197634.140    -1931309.45249  -1479396.05245  24197633.637    24197641.972
       212.000         150.000
  20509390.507   -15374760.08149 -11955419.91348  20509390.245    20509395.580
       240.000         213.000
  22201143.608    -4929670.15749  -3819943.29946  22201144.238    22201152.420
       227.000         179.000
  24780261.443    -6778160.91949  -5243568.07845  24780260.673    24780269.794
       205.000         145.000
  21008215.988   -16339324.83349 -12707291.06747  21008215.305    21008222.581
       240.000         204.000
  23999568.858     3166207.36749   2485330.24445  23999569.274    23999576.856
       214.000         154.000
 03  3 20 23 41  0.0000000  0 10G23G16G 6G17G 3G18G26G 2G15G29
  20633314.659    -8620120.72249  -6686942.22348  20633314.344    20633321.125
       243.000         213.000
  23398781.018    -6824520.26749  -5301375.89645  23398780.421    23398787.978
       217.000         162.000
  22111289.637     7753123.83149   6050404.81646  22111289.783    22111297.568
       229.000         184.000
  20822020.942    -4192077.19849  -3250130.19947  20822020.565    20822027.813
       241.000         211.000
  24179070.503    -2028861.73149  -1555410.73045  24179069.918    24179078.352
       212.000         149.000
  20505220.032   -15396676.15849 -11972497.33948  20505219.652    20505225.104
       240.000         213.000
  22211022.247    -4877757.67149  -3779492.00346  22211022.549    22211030.146
       227.000         180.000
  24778226.507    -6788853.74349  -5251900.14545  24778225.771    24778234.919
       206.000         145.000
  21000323.241   -16380801.40149 -12739610.43247  21000322.969    21000329.950
       240.000         204.000
  24013283.543     3238277.94249   2541489.09645  24013283.730    24013291.597
       214.000         155.000
 03  3 20 23 41 30.0000000  0 10G23G16G 6G17G 3G18G26G 2G15G29
  20636247.647    -8604707.55549  -6674931.93948  20636247.513    20636254.086
       244.000         213.000
  23404379.274    -6795101.33549  -5278452.05845  23404378.806    23404386.606
       218.000         162.000
  22128166.428     7841811.80349   6119512.27646  22128167.019    22128174.649
       230.000         183.000
  20823022.061    -4186816.27549  -3246030.76747  20823021.722    20823028.983
       243.000         211.000
  24160540.728    -2126235.99749  -1631286.69145  24160540.676    24160549.370
       210.000         148.000
  20501129.240   -15418173.12349 -11989248.19748  20501128.894    20501134.299
       240.000         213.000
  22221012.918    -4825256.59349  -3738582.07746  22221013.373    22221020.002
       228.000         179.000
  24776272.461    -6799122.20149  -5259901.51545  24776271.694    24776281.995
       205.000         145.000
  20992463.954   -16422102.57349 -12771793.13547  20992463.490    20992470.383
       240.000         204.000
  24027071.556     3310734.21849   2597948.49345  24027072.444    24027080.120
       214.000         155.000
 03  3 20 23 42  0.0000000  0 10G23G16G 6G17G 3G18G26G 2G15G29
  20639248.606    -8588937.41249  -6662643.49348  20639248.196    20639254.763
       244.000         213.000
  23410064.475    -6765225.33149  -5255172.05545  23410063.770    23410072.119
       217.000         162.000
  22145104.952     7930823.98249   6188872.37946  22145105.802    22145113.391
       229.000         183.000
  20824061.198    -4181355.57449  -3241775.66147  20824060.863    20824068.020
       243.000         211.000
  24142044.931    -2223431.53649  -1707023.37145  24142044.500    24142052.746
       209.000         148.000
  20497117.702   -15439253.59549 -12005674.50848  20497117.431    20497122.853
       239.000         213.000
  22231114.926    -4772170.38349  -3697216.20446  22231115.029    22231122.126
       227.000         179.000
  24774398.790    -6808968.35649  -5267573.84545  24774397.931    24774407.503
       206.000         145.000
  20984637.729   -16463229.54749 -12803840.09847  20984637.168    20984644.242
       240.000         204.000
  24040932.123     3383571.95949   2654705.13445  24040932.119    24040940.792
       214.000         154.000
 03  3 20 23 42 30.0000000  0 10G23G16G 6G17G 3G18G26G 2G15G29
  20642317.190    -8572811.71949  -6650077.99748  20642316.961    20642323.559
       244.000         213.000
  23415836.240    -6734894.47049  -5231537.63045  23415836.094    23415843.527
       218.000         162.000
  22162104.840     8020158.36149   6258483.54546  22162105.084    22162113.441
       230.000         184.000
  20825138.426    -4175694.61249  -3237364.50447  20825138.137    20825145.264
       243.000         210.000
  24123583.611    -2320445.98349  -1782618.93945  24123583.101    24123591.948
       209.000         148.000
  20493185.350   -15459918.09549 -12021776.68148  20493185.083    20493190.602
       241.000         213.000
  22241327.929    -4718500.85849  -3655395.79946  22241328.449    22241335.257
       227.000         179.000
  24772605.336    -6818392.57249  -5274917.36645  24772604.813    24772613.528
       205.000         144.000
  20976844.786   -16504181.67149 -12835750.80847  20976844.003    20976851.178
       240.000         204.000
  24054864.881     3456789.11549   2711757.41545  24054864.614    24054873.500
       216.000         154.000
 03  3 20 23 43  0.0000000  0 10G23G16G 6G17G 3G18G26G 2G15G29
  20645453.341    -8556331.16549  -6637235.98748  20645452.880    20645459.579
       243.000         213.000
  23421694.395    -6704109.40549  -5207549.26945  23421693.829    23421701.853
       216.000         162.000
  22179165.851     8109814.01049   6328345.04146  22179165.943    22179173.984
       229.000         184.000
  20826254.039    -4169831.98549  -3232796.20747  20826253.665    20826260.760
       243.000         210.000
  24105157.349    -2417275.99849  -1858070.80345  24105157.287    24105166.161
       210.000         149.000
  20489332.318   -15480166.06149 -12037554.28248  20489331.941    20489337.469
       240.000         213.000
  22251651.786    -4664248.94349  -3613121.59346  22251651.922    22251659.845
       226.000         179.000
  24770892.286    -6827394.29349  -5281931.68145  24770892.308    24770902.045
       206.000         144.000
  20969085.429   -16544957.17849 -12867523.89747  20969084.505    20969091.801
       240.000         204.000
  24068869.760     3530384.49749   2769104.42545  24068870.138    24068877.167
       214.000         155.000
 03  3 20 23 43 30.0000000  0 10G23G16G 6G17G 3G18G26G 2G15G29
  20648656.401    -8539498.88649  -6624119.91248  20648656.043    20648662.916
       243.000         213.000
  23427638.272    -6672873.90549  -5183209.91745  23427638.204    23427644.989
       215.000         162.000
  22196287.330     8199787.50749   6398454.21246  22196287.750    22196295.070
       229.000         184.000
  20827407.886    -4163768.44849  -3228071.36247  20827407.476    20827414.575
       244.000         210.000
  24086766.442    -2513920.65549  -1933378.24045  24086766.309    24086774.675
       210.000         149.000
  20485558.055   -15499999.95049 -12053009.22948  20485557.554    20485563.221
       240.000         213.000
  22262085.707    -4609418.34249  -3570396.45446  22262086.138    22262093.188
       226.000         178.000
  24769259.302    -6835975.73049  -5288618.50545  24769258.709    24769268.730
       206.000         144.000
  20961359.436   -16585556.99349 -12899160.08547  20961358.673    20961365.928
       240.000         204.000
  24082945.790     3604354.38149   2826743.25745  24082946.323    24082953.598
       214.000         155.000
 03  3 20 23 44  0.0000000  0 10G23G16G 6G17G 3G18G26G 2G15G29
  20651926.440    -8522314.67949  -6610729.60548  20651926.119    20651932.697
       244.000         213.000
  23433667.884    -6641188.00349  -5158519.60845  23433667.989    23433674.819
       217.000         161.000
  22213469.238     8290078.73349   6468810.96146  22213469.365    22213476.784
       229.000         183.000
  20828600.417    -4157501.66749  -3223188.14547  20828599.870    20828607.406
       243.000         210.000
  24068411.551    -2610375.69249  -2008537.92345  24068411.156    24068419.451
       208.000         148.000
  20481862.822   -15519418.30649 -12068140.38048  20481862.582    20481867.920
       240.000         213.000
  22272629.733    -4554009.03049  -3527220.38146  22272629.659    22272637.994
       227.000         178.000
  24767706.552    -6844135.55649  -5294976.79945  24767705.724    24767715.190
       207.000         145.000
  20953667.435   -16625978.58549 -12930657.39247  20953666.898    20953673.874
       241.000         205.000
  24097093.035     3678698.27449   2884673.50945  24097093.349    24097101.717
       215.000         155.000
 03  3 20 23 44 30.0000000  0 10G23G16G 6G17G 3G18G26G 2G15G29
  20655262.848    -8504781.88049  -6597067.67248  20655262.509    20655269.176
       244.000         213.000
  23439782.551    -6609055.50449  -5133481.30745  23439782.616    23439790.030
       216.000         161.000
  22230710.839     8380683.77649   6539412.24946  22230710.639    22230718.612
       229.000         183.000
  20829831.499    -4151032.27849  -3218147.04747  20829831.088    20829838.148
       243.000         210.000
  24050092.914    -2706640.12049  -2083549.07545  24050092.847    24050101.117
       209.000         147.000
  20478246.219   -15538423.28949 -12082949.43348  20478245.765    20478251.361
       239.000         213.000
  22283283.196    -4498024.79949  -3483596.31546  22283283.474    22283290.100
       225.000         177.000
  24766233.710    -6851875.92649  -5301008.24445  24766233.353    24766243.628
       206.000         145.000
  20946009.182   -16666222.99849 -12962016.64747  20946008.940    20946015.696
       241.000         205.000
  24111310.609     3753412.30949   2942892.18045  24111310.377    24111318.267
       214.000         155.000
 03  3 20 23 45  0.0000000  0 10G23G16G 6G17G 3G18G26G 2G15G29
  20658665.417    -8486901.17049  -6583134.63648  20658664.974    20658671.677
       244.000         213.000
  23445982.010    -6576477.55549  -5108095.89445  23445981.035    23445989.485
       216.000         160.000
  22248011.922     8471601.59149   6610257.25346  22248012.202    22248020.278
       228.000         183.000
  20831101.368    -4144359.11649  -3212947.17147  20831100.829    20831108.037
       243.000         210.000
  24031811.182    -2802710.96449  -2158409.40445  24031810.244    24031819.111
       211.000         149.000
  20474708.321   -15557014.84249 -12097436.33248  20474707.945    20474713.493
       239.000         213.000
  22294045.752    -4441466.74949  -3439525.11046  22294045.633    22294053.917
       226.000         177.000
  24764840.676    -6859196.51449  -5306712.59445  24764840.158    24764848.910
       205.000         145.000
  20938384.980   -16706288.54549 -12993236.52547  20938384.438    20938391.528
       241.000         205.000
  24125598.464     3828494.98449   3001398.12045  24125597.766    24125606.153
       214.000         156.000
 03  3 20 23 45 30.0000000  0 10G23G16G 6G17G 3G18G26G 2G15G29
  20662133.884    -8468674.11949  -6568931.72548  20662133.453    20662140.324
       244.000         213.000
  23452265.642    -6543456.30349  -5082365.03345  23452265.285    23452273.317
       216.000         160.000
  22265372.139     8562830.09449   6681344.34146  22265372.343    22265380.409
       228.000         182.000
  20832410.088    -4137481.72349  -3207588.14547  20832409.513    20832416.919
       243.000         210.000
  24013566.691    -2898585.73549  -2233116.94045  24013566.194    24013575.510
       211.000         151.000
  20471249.002   -15575193.63549 -12111601.59648  20471248.699    20471254.117
       239.000         213.000
  22304917.238    -4384336.83049  -3395008.30046  22304918.416    22304924.920
       226.000         177.000
  24763527.376    -6866097.87049  -5312090.23145  24763527.277    24763535.879
       206.000         145.000
  20930794.856   -16746174.61449 -13024316.54847  20930794.233    20930801.452
       241.000         206.000
  24139955.934     3903944.02349   3060189.53545  24139955.337    24139964.249
       213.000         157.000
 03  3 20 23 46  0.0000000  0 10G23G16G 6G17G 3G18G26G 2G15G29
  20665667.966    -8450102.27349  -6554460.14048  20665667.526    20665674.290
       243.000         213.000
  23458633.425    -6509993.76149  -5056290.33045  23458633.926    23458640.212
       216.000         160.000
  22282791.174     8654367.28449   6752671.96946  22282791.305    22282799.770
       228.000         182.000
  20833757.848    -4130398.99249  -3202069.12247  20833757.410    20833764.520
       243.000         210.000
  23995359.958    -2994261.99749  -2307669.78345  23995359.528    23995368.374
       209.000         151.000
  20467868.140   -15592960.14049 -12125445.60048  20467867.880    20467873.376
       239.000         213.000
  22315897.114    -4326637.03849  -3350047.44646  22315897.536    22315904.069
       226.000         178.000
  24762293.862    -6872580.45049  -5317141.57145  24762293.151    24762302.463
       208.000         146.000
  20923239.072   -16785880.57749 -13055256.22947  20923238.413    20923245.373
       241.000         206.000
  24154382.641     3979756.98649   3119264.52845  24154382.819    24154390.849
       213.000         158.000
 03  3 20 23 46 30.0000000  0 10G23G16G 6G17G 3G18G26G 2G15G29
  20669267.300    -8431187.58149  -6539721.40348  20669266.924    20669273.587
       243.000         213.000
  23465084.703    -6476092.22449  -5029873.55445  23465085.519    23465092.326
       217.000         161.000
  22300268.470     8746210.88549   6824238.36746  22300268.875    22300277.148
       228.000         182.000
  20835144.725    -4123110.91549  -3196390.08747  20835144.520    20835151.584
       243.000         210.000
  23977191.352    -3089737.54949  -2382066.21645  23977191.925    23977200.138
       207.000         150.000
  20464565.486   -15610315.50149 -12138969.22948  20464565.216    20464570.815
       239.000         213.000
  22326984.966    -4268369.71349  -3304644.34946  22326984.790    22326993.007
       226.000         178.000
  24761139.761    -6878645.12849  -5321867.29045  24761139.340    24761148.716
       208.000         147.000
  20915717.653   -16825405.87449 -13086055.13647  20915717.190    20915724.020
       241.000         206.000
  24168878.260     4055931.64949   3178621.35945  24168878.683    24168886.854
       214.000         158.000
 03  3 20 23 47  0.0000000  0 10G23G16G 6G17G 3G18G26G 2G15G29
  20672931.769    -8411930.68249  -6524716.01348  20672931.198    20672938.038
       243.000         213.000
  23471619.312    -6441752.96549  -5003115.69945  23471619.886    23471626.700
       217.000         160.000
  22317803.877     8838359.68549   6896042.58246  22317804.216    22317812.375
       227.000         181.000
  20836571.058    -4115615.48449  -3190549.47747  20836570.662    20836577.736
       243.000         210.000
  23959061.660    -3185008.80249  -2456303.45345  23959061.137    23959070.307
       209.000         150.000
  20461341.202   -15627259.37649 -12152172.22148  20461340.978    20461346.392
       239.000         213.000
  22338180.637    -4209535.95649  -3258799.87846  22338180.689    22338188.443
       226.000         178.000
  24760065.251    -6884291.61749  -5326267.12645  24760064.584    24760074.565
       207.000         147.000
  20908230.898   -16864748.84349 -13116711.96947  20908230.084    20908237.299
       242.000         206.000
  24183442.438     4132466.61849   3238258.94545  24183442.901    24183450.948
       212.000         158.000
 03  3 20 23 47 30.0000000  0 10G23G16G 6G17G 3G18G26G 2G15G29
  20676660.703    -8392334.80749  -6509446.49148  20676660.466    20676667.040
       243.000         213.000
  23478236.611    -6406979.46649  -4976019.48045  23478236.455    23478243.568
       217.000         159.000
  22335396.620     8930810.09049   6968081.79946  22335396.906    22335404.998
       227.000         181.000
  20838036.647    -4107913.73049  -3184548.09647  20838036.108    20838043.377
       243.000         210.000
  23940971.265    -3280074.84349  -2530380.80245  23940970.821    23940980.155
       211.000         149.000
  20458194.742   -15643793.98549 -12165056.30448  20458194.507    20458200.185
       239.000         213.000
  22349483.437    -4150139.63149  -3212517.04446  22349483.554    22349490.696
       227.000         178.000
  24759069.853    -6889522.14049  -5330342.83545  24759069.243    24759078.579
       206.000         146.000
  20900778.706   -16903910.20949 -13147227.29747  20900778.202    20900785.276
       243.000         206.000
  24198074.319     4209358.13349   3298174.36645  24198074.362    24198082.589
       211.000         157.000
 03  3 20 23 48  0.0000000  0 10G23G16G 6G17G 3G18G26G 2G15G29
  20680454.123    -8372400.45249  -6493913.21548  20680453.680    20680460.354
       243.000         213.000
  23484936.177    -6371772.76649  -4948585.69145  23484935.797    23484942.844
       216.000         158.000
  22353046.650     9023561.16649   7040355.31646  22353047.098    22353055.588
       227.000         181.000
  20839541.912    -4100003.29449  -3178384.11547  20839541.396    20839548.552
       243.000         210.000
  23922920.505    -3374932.12249  -2604295.49045  23922920.737    23922928.327
       213.000         150.000
  20455126.243   -15659918.69149 -12177620.98548  20455125.951    20455131.418
       239.000         213.000
  22360893.118    -4090181.54749  -3165796.47246  22360893.296    22360900.430
       226.000         177.000
  24758153.778    -6894336.15549  -5334094.01445  24758153.437    24758162.070
       205.000         144.000
  20893361.418   -16942888.16949 -13177599.71047  20893360.947    20893367.798
       243.000         207.000
  24212773.946     4286604.77649   3358366.50145  24212774.355    24212782.334
       208.000         155.000
 03  3 20 23 48 30.0000000  0 10G23G16G 6G17G 3G18G26G 2G15G29
  20684311.614    -8352128.98549  -6478117.25148  20684311.259    20684317.927
       244.000         213.000
  23491717.833    -6336134.88249  -4920815.93045  23491717.672    23491724.677
       214.000         158.000
  22370753.544     9116611.30749   7112861.86146  22370753.979    22370761.820
       227.000         180.000
  20841086.945    -4091884.05949  -3172057.42347  20841086.436    20841093.592
       242.000         210.000
  23904909.999    -3469577.99949  -2678045.44945  23904910.225    23904918.378
       212.000         151.000
  20452135.700   -15675633.98849 -12189866.64148  20452135.281    20452140.813
       239.000         213.000
  22372409.311    -4029663.43649  -3118639.51646  22372409.253    22372417.188
       225.000         176.000
  24757316.866    -6898733.79249  -5337520.74545  24757315.757    24757325.653
       207.000         145.000
  20885979.342   -16981681.55949 -13207828.30047  20885978.948    20885985.747
       243.000         207.000
  24227540.725     4364204.69449   3418833.91545  24227541.562    24227548.954
       208.000         152.000
 03  3 20 23 49  0.0000000  0 10G23G16G 6G17G 3G18G26G 2G15G29
  20688232.504    -8331524.60249  -6462061.87448  20688232.215    20688238.804
       244.000         213.000
  23498580.663    -6300070.41949  -4892713.75045  23498580.431    23498589.134
       216.000         159.000
  22388516.483     9209955.93749   7185597.88746  22388517.552    22388525.215
       227.000         180.000
  20842671.367    -4083557.70249  -3165569.34747  20842671.079    20842678.147
       242.000         210.000
  23886939.667    -3564012.49349  -2751630.68145  23886939.766    23886947.270
       211.000         151.000
  20449222.481   -15690942.85949 -12201795.60648  20449222.138    20449227.674
       239.000         213.000
  22384031.147    -3968590.25749  -3071050.04146  22384031.667    22384038.782
       225.000         175.000
  24756558.413    -6902718.36549  -5340625.59145  24756557.882    24756567.380
       206.000         145.000
  20878631.994   -17020292.13749 -13237914.44347  20878631.514    20878638.527
       243.000         207.000
  24242373.774     4442152.95749   3479572.76845  24242374.333    24242382.382
       205.000         149.000
 03  3 20 23 49 30.0000000  0 10G23G16G 6G17G 3G18G26G 2G15G29
  20692217.018    -8310585.81249  -6445745.92148  20692216.816    20692223.413
       244.000         213.000
  23505524.966    -6263578.40549  -4864278.41145  23505525.303    23505532.189
       216.000         159.000
  22406335.612     9303596.02249   7258564.13946  22406335.327    22406343.714
       226.000         180.000
  20844296.013    -4075020.13849  -3158916.69447  20844295.415    20844302.739
       242.000         210.000
  23869010.650    -3658230.18649  -2825046.96745  23869011.187    23869018.866
       212.000         152.000
  20446386.976   -15705843.34549 -12213406.35048  20446386.641    20446391.999
       239.000         213.000
  22395758.896    -3906960.71149  -3023027.02346  22395758.769    22395766.546
       225.000         175.000
  24755879.272    -6906287.59949  -5343406.80245  24755879.211    24755887.982
       206.000         146.000
  20871320.189   -17058715.91049 -13267855.01747  20871319.666    20871326.638
       244.000         207.000
  24257273.379     4520450.45749   3540583.73345  24257273.089    24257280.170
       203.000         146.000
 03  3 20 23 50  0.0000000  0 10G23G16G 6G17G 3G18G26G 2G15G29
  20696264.928    -8289314.04249  -6429170.50148  20696264.554    20696271.240
       243.000         213.000
  23512550.092    -6226660.89649  -4835511.53145  23512550.430    23512557.161
       216.000         158.000
  22424210.625     9397529.69349   7331759.15746  22424210.932    22424219.262
       227.000         179.000
  20845960.977    -4066270.53649  -3152098.82547  20845960.492    20845967.907
       242.000         210.000
  23851123.385    -3752228.27349  -2898292.14745  23851122.751    23851131.245
       214.000         153.000
  20443629.081   -15720336.03649 -12224699.34048  20443628.730    20443634.399
       240.000         213.000
  22407592.059    -3844777.05849  -2974572.24446  22407592.117    22407598.886
       224.000         174.000
  24755279.168    -6909441.82149  -5345864.63645  24755278.607    24755288.771
       208.000         147.000
  20864044.061   -17096952.22049 -13297649.51547  20864043.253    20864050.472
       242.000         207.000
  24272239.004     4599095.19149   3601865.28945  24272239.928    24272247.635
       201.000         144.000
 03  3 20 23 50 30.0000000  0 10G23G16G 6G17G 3G18G26G 2G15G29
  20700375.202    -8267714.55949  -6412339.71748  20700374.709    20700381.472
       244.000         213.000
  23519655.065    -6189323.55549  -4806417.51845  23519655.361    23519662.223
       215.000         158.000
  22442140.439     9491751.19849   7405178.45346  22442140.679    22442148.984
       227.000         179.000
  20847665.744    -4057311.96449  -3145118.11447  20847665.412    20847672.604
       242.000         210.000
  23833277.719    -3846007.87649  -2971367.08345  23833278.175    23833285.301
       214.000         153.000
  20440948.038   -15734425.03349 -12235677.76048  20440947.776    20440953.300
       240.000         213.000
  22419529.546    -3782045.12149  -2925690.22446  22419530.152    22419537.151
       224.000         174.000
  24754756.920    -6912185.29049  -5348002.38945  24754756.399    24754765.571
       207.000         146.000
  20856802.973   -17135003.85249 -13327300.11647  20856802.336    20856809.363
       243.000         207.000
  24287269.359     4678080.89549   3663412.50745  24287268.314    24287278.146
       200.000         142.000
 03  3 20 23 51  0.0000000  0 10G23G16G 6G17G 3G18G26G 2G15G29
  20704548.201    -8245785.05849  -6395251.77948  20704547.820    20704554.344
       243.000         213.000
  23526840.206    -6151564.75749  -4776995.06145  23526839.378    23526847.964
       215.000         158.000
  22460125.445     9586262.40149   7478823.48846  22460125.559    22460133.759
       226.000         179.000
  20849411.153    -4048139.62749  -3137970.83147  20849410.803    20849417.725
       243.000         210.000
  23815474.832    -3939562.60649  -3044266.79145  23815473.741    23815482.432
       213.000         152.000
  20438344.421   -15748107.19249 -12246339.16348  20438344.109    20438349.548
       239.000         214.000
  22431571.711    -3718763.19649  -2876379.64046  22431572.486    22431578.784
       224.000         174.000
  24754313.779    -6914514.71749  -5349817.51645  24754313.725    24754322.868
       207.000         146.000
  20849598.045   -17172865.95049 -13356803.02147  20849597.424    20849604.257
       243.000         207.000
  24302365.070     4757409.41149   3725226.88245  24302364.873    24302374.002
       202.000         140.000
 03  3 20 23 51 30.0000000  0 10G23G16G 6G17G 3G18G26G 2G15G29
  20708782.983    -8223531.04049  -6377910.96948  20708782.388    20708789.293
       244.000         213.000
  23534104.427    -6113390.89249  -4747249.19345  23534104.518    23534112.460
       215.000         158.000
  22478164.397     9681057.33649   7552689.62746  22478164.431    22478172.472
       226.000         178.000
  20851196.682    -4038756.75649  -3130659.49447  20851196.427    20851203.506
       243.000         210.000
  23797714.480    -4032893.60349  -3116992.16445  23797714.575    23797722.269
       214.000         153.000
  20435817.337   -15761386.98549 -12256687.03448  20435817.158    20435822.307
       240.000         214.000
  22443717.434    -3654937.20049  -2826645.11246  22443717.498    22443724.820
       224.000         174.000
  24753948.337    -6916434.85649  -5351313.71945  24753948.008    24753957.682
       207.000         146.000
  20842428.608   -17210541.70349 -13386160.72047  20842428.127    20842434.944
       244.000         207.000
  24317524.649     4837074.39449   3787303.44545  24317525.108    24317533.778
       204.000         140.000
 03  3 20 23 52  0.0000000  0 10G23G16G 6G17G 3G18G26G 2G15G29
  20713079.689    -8200951.57849  -6360316.57148  20713079.224    20713086.095
       242.000         213.000
  23541447.783    -6074801.56849  -4717179.59245  23541447.485    23541455.235
       216.000         159.000
  22496257.389     9776136.45449   7626777.18446  22496256.995    22496266.377
       226.000         178.000
  20853022.843    -4029160.36649  -3123181.78847  20853022.463    20853029.777
       242.000         210.000
  23779997.612    -4125996.20749  -3189539.56245  23779997.950    23780005.590
       215.000         154.000
  20433367.174   -15774262.85449 -12266720.15448  20433366.924    20433372.238
       240.000         214.000
  22455966.671    -3590567.14349  -2776486.64346  22455967.107    22455974.529
       225.000         174.000
  24753660.974    -6917943.90549  -5352489.59545  24753660.477    24753670.059
       207.000         145.000
  20835295.237   -17248027.84649 -13415370.67247  20835294.596    20835301.390
       242.000         207.000
  24332748.500     4917076.22349   3849642.46645  24332748.569    24332756.857
       206.000         142.000
 03  3 20 23 52 30.0000000  0 10G23G16G 6G17G 3G18G26G 2G15G29
  20717438.028    -8178048.28849  -6342469.83748  20717437.576    20717444.531
       243.000         213.000
  23548869.855    -6035798.93649  -4686787.94545  23548870.226    23548876.131
       217.000         159.000
  22514404.037     9871497.52149   7701084.45246  22514404.602    22514412.084
       225.000         177.000
  20854889.783    -4019349.53649  -3115536.98247  20854889.450    20854896.635
       242.000         210.000
  23762324.675    -4218867.81149  -3261906.96045  23762324.225    23762332.579
       216.000         156.000
  20430993.685   -15786735.48349 -12276439.06248  20430993.318    20430998.741
       239.000         214.000
  22468319.040    -3525655.04749  -2725905.80946  22468319.666    22468327.151
       225.000         173.000
  24753451.974    -6919042.74549  -5353345.84445  24753452.362    24753461.083
       208.000         145.000
  20828198.065   -17285323.43749 -13444432.14647  20828197.279    20828204.434
       242.000         207.000
  24348036.075     4997412.30349   3912241.96645  24348036.395    24348044.335
       209.000         143.000
 03  3 20 23 53  0.0000000  0 10G23G16G 6G17G 3G18G26G 2G15G29
  20721857.238    -8154824.99249  -6324373.74747  20721856.847    20721863.480
       243.000         212.000
  23556369.654    -5996387.15049  -4656077.46545  23556369.535    23556375.936
       213.000         158.000
  22532603.653     9967136.59649   7775608.35246  22532603.743    22532611.865
       225.000         177.000
  20856797.278    -4009325.51449  -3107726.05147  20856796.970    20856803.813
       243.000         210.000
  23744695.733    -4311507.94349  -3334093.98545  23744695.529    23744703.958
       213.000         156.000
  20428696.390   -15798807.58649 -12285845.87048  20428696.308    20428701.642
       240.000         214.000
  22480773.753    -3460205.33849  -2674906.04746  22480774.124    22480781.471
       225.000         173.000
  24753320.483    -6919733.86649  -5353884.37045  24753320.153    24753329.328
       206.000         145.000
  20821136.938   -17322429.55249 -13473345.98147  20821136.567    20821143.303
       242.000         207.000
  24363386.460     5078078.50049   3975098.68945  24363386.818    24363394.878
       209.000         144.000
 03  3 20 23 53 30.0000000  0 10G23G16G 6G17G 3G18G26G 2G15G29
  20726337.764    -8131279.56049  -6306026.63947  20726337.425    20726344.165
       243.000         212.000
  23563947.508    -5956564.88849  -4625047.14545  23563946.489    23563954.087
       214.000         158.000
  22550856.428    10063055.31349   7850350.15846  22550855.827    22550864.514
       224.000         176.000
  20858746.245    -3999083.83949  -3099745.51847  20858745.801    20858752.780
       242.000         210.000
  23727111.915    -4403910.22149  -3406095.67045  23727111.473    23727120.101
       213.000         154.000
  20426475.888   -15810476.40349 -12294938.43748  20426475.595    20426481.044
       239.000         214.000
  22493331.037    -3394216.49749  -2623486.18346  22493331.111    22493338.683
       223.000         172.000
  24753266.941    -6920014.52949  -5354103.05745  24753266.430    24753276.298
       205.000         144.000
  20814112.823   -17359341.63349 -13502108.61347  20814112.370    20814119.347
       242.000         207.000
  24378799.938     5159075.97949   4038213.56845  24378800.348    24378808.477
       212.000         144.000
 03  3 20 23 54  0.0000000  0 10G23G16G 6G17G 3G18G26G 2G15G29
  20730878.630    -8107417.06149  -6287432.47647  20730878.292    20730884.903
       243.000         212.000
  23571602.494    -5916337.82749  -4593701.38545  23571601.570    23571610.055
       212.000         158.000
  22569161.327    10159248.09149   7925305.51046  22569161.515    22569169.496
       224.000         176.000
  20860736.155    -3988626.91949  -3091597.26247  20860735.853    20860742.832
       242.000         210.000
  23709573.211    -4496075.51049  -3477912.68845  23709572.654    23709581.282
       212.000         153.000
  20424331.270   -15821746.14849 -12303720.04048  20424331.150    20424336.468
       239.000         214.000
  22505989.833    -3327694.36349  -2571650.76246  22505989.847    22505997.194
       224.000         171.000
  24753290.781    -6919889.15749  -5354005.35645  24753290.623    24753300.434
       205.000         143.000
  20807125.001   -17396062.43049 -13530722.20347  20807124.328    20807131.592
       241.000         207.000
  24394275.341     5240399.23649   4101582.29745  24394275.694    24394283.788
       212.000         144.000
 03  3 20 23 54 30.0000000  0 10G23G16G 6G17G 3G18G26G 2G15G29
  20735479.824    -8083237.67349  -6268591.38147  20735479.416    20735486.005
       242.000         212.000
  23579334.359    -5875706.96649  -4562040.98545  23579334.267    23579341.550
       216.000         158.000
  22587518.175    10255714.31849   8000473.94346  22587518.137    22587526.132
       224.000         175.000
  20862767.313    -3977952.92649  -3083279.85647  20862766.797    20862774.150
       242.000         210.000
  23692080.433    -4587999.83249  -3549541.95945  23692081.353    23692088.280
       214.000         153.000
  20422262.841   -15832616.05749 -12312190.08148  20422262.582    20422267.843
       240.000         214.000
  22518749.888    -3260639.80849  -2519400.47046  22518750.124    22518757.242
       224.000         171.000
  24753392.130    -6919356.82349  -5353590.53245  24753391.564    24753401.645
       205.000         143.000
  20800174.076   -17432589.65849 -13559184.94847  20800173.579    20800180.421
       242.000         207.000
  24409812.516     5322047.28449   4165204.12345  24409813.848    24409821.063
       212.000         144.000
 03  3 20 23 55  0.0000000  0 10G23G16G 6G17G 3G18G26G 2G15G29
  20740140.942    -8058743.32749  -6249504.86647  20740140.619    20740147.292
       242.000         212.000
  23587142.572    -5834674.84449  -4530067.90145  23587141.941    23587149.773
       216.000         158.000
  22605926.601    10352451.45749   8075853.48446  22605926.203    22605934.532
       223.000         175.000
  20864839.905    -3967061.25049  -3074792.82847  20864839.292    20864846.586
       242.000         210.000
  23674634.067    -4679680.98749  -3620981.75345  23674633.642    23674641.513
       214.000         154.000
  20420270.186   -15843087.30149 -12320349.47248  20420269.921    20420275.315
       239.000         214.000
  22531610.756    -3193055.40049  -2466737.30746  22531610.740    22531618.357
       224.000         171.000
  24753570.759    -6918418.80849  -5352859.60445  24753570.810    24753578.637
       207.000         142.000
  20793260.131   -17468922.74549 -13587496.41947  20793259.526    20793266.545
       242.000         207.000
  24425411.095     5404017.44049   4229076.93945  24425409.771    24425419.691
       212.000         144.000
 03  3 20 23 55 30.0000000  0 10G23G16G 6G17G 3G18G26G 2G15G29
  20744861.628    -8033935.91149  -6230174.40147  20744861.361    20744868.104
       242.000         212.000
  23595026.593    -5793243.89049  -4497784.05745  23595026.363    23595034.172
       215.000         158.000
  22624386.129    10449457.03449   8151442.18846  22624386.313    22624394.983
       223.000         174.000
  20866953.964    -3955951.42349  -3066135.81347  20866953.369    20866960.885
       242.000         209.000
  23657234.275    -4771116.81149  -3692230.37045  23657234.827    23657241.757
       213.000         154.000
  20418353.215   -15853161.05549 -12328199.13548  20418353.078    20418358.399
       240.000         214.000
  22544571.872    -3124943.72749  -2413663.28646  22544572.177    22544579.997
       223.000         171.000
  24753826.394    -6917076.11449  -5351813.33245  24753825.963    24753835.534
       205.000         142.000
  20786383.223   -17505060.93249 -13615656.02047  20786382.617    20786389.834
       241.000         207.000
  24441070.300     5486307.07549   4293198.69145  24441069.969    24441079.530
       213.000         144.000
 03  3 20 23 56  0.0000000  0 10G23G16G 6G17G 3G18G26G 2G15G29
  20749641.504    -8008817.56349  -6210601.65547  20749641.162    20749647.721
       242.000         212.000
  23602985.914    -5751416.99449  -4465191.67345  23602985.763    23602993.049
       215.000         158.000
  22642896.343    10546728.55449   8227238.12646  22642896.099    22642904.388
       223.000         174.000
  20869109.654    -3944623.18749  -3057308.61047  20869109.416    20869116.490
       242.000         209.000
  23639881.593    -4862305.38149  -3763286.31945  23639881.790    23639889.893
       213.000         154.000
  20416511.714   -15862838.26449 -12335739.80048  20416511.483    20416516.877
       240.000         214.000
  22557632.935    -3056307.72449  -2360180.70546  22557633.745    22557640.007
       223.000         170.000
  24754158.534    -6915330.02249  -5350452.70645  24754158.193    24754168.749
       205.000         142.000
  20779543.474   -17541003.82149 -13643663.44347  20779542.882    20779549.804
       242.000         207.000
  24456789.817     5568913.43749   4357567.23845  24456789.677    24456798.561
       213.000         143.000
 03  3 20 23 56 30.0000000  0 10G23G16G 6G17G 3G18G26G 2G15G29
  20754480.412    -7983388.80049  -6190787.02647  20754480.202    20754486.862
       242.000         212.000
  23611020.317    -5709195.23149  -4432291.59045  23611020.141    23611027.889
       214.000         158.000
  22661456.982    10644265.12049   8303240.58546  22661457.150    22661466.074
       222.000         173.000
  20871307.424    -3933074.02649  -3048309.25847  20871306.955    20871314.223
       241.000         209.000
  23622576.756    -4953242.78249  -3834146.54945  23622576.301    23622585.096
       214.000         155.000
  20414745.760   -15872118.54249 -12342971.16748  20414745.406    20414750.728
       239.000         214.000
  22570793.445    -2987148.53649  -2306290.45346  22570793.795    22570800.545
       221.000         169.000
  24754567.430    -6913180.28449  -5348777.56645  24754567.380    24754576.206
       203.000         141.000
  20772741.240   -17576749.55749 -13671517.24147  20772740.651    20772747.572
       241.000         207.000
  24472569.340     5651835.20649   4422181.57545  24472570.152    24472577.988
       210.000         143.000
 03  3 20 23 57  0.0000000  0 10G23G16G 6G17G 3G18G26G 2G15G29
  20759377.846    -7957652.79649  -6170732.98947  20759377.522    20759384.352
       242.000         212.000
  23619129.188    -5666582.69849  -4399087.04445  23619129.167    23619137.000
       216.000         158.000
  22680067.351    10742062.92449   8379446.61146  22680067.606    22680076.799
       222.000         173.000
  20873546.871    -3921305.42349  -3039138.91247  20873546.405    20873553.573
       242.000         209.000
  23605319.908    -5043928.06749  -3904810.32445  23605319.407    23605328.262
       214.000         156.000
  20413054.767   -15881004.49649 -12349895.26748  20413054.456    20413059.822
       239.000         214.000
  22584052.827    -2917470.11549  -2251995.59646  22584053.075    22584060.293
       220.000         169.000
  24755052.927    -6910629.37749  -5346789.85545  24755052.444    24755062.007
       207.000         141.000
  20765976.471   -17612298.47049 -13699217.67147  20765975.744    20765982.966
       240.000         207.000
  24488408.164     5735068.73849   4487038.82445  24488408.158    24488416.730
       212.000         143.000
 03  3 20 23 57 30.0000000  0 10G23G16G 6G17G 3G18G26G 2G15G29
  20764333.684    -7931609.57449  -6150439.56847  20764333.301    20764339.841
       242.000         212.000
  23627312.501    -5623580.01849  -4365578.47445  23627312.302    23627319.425
       215.000         159.000
  22698727.292    10840121.51449   8455855.83546  22698727.708    22698735.331
       223.000         172.000
  20875828.601    -3909314.66449  -3029795.45947  20875828.155    20875835.411
       242.000         209.000
  23588111.859    -5134357.10649  -3975274.43545  23588111.470    23588119.789
       214.000         156.000
  20411438.980   -15889495.29649 -12356511.45548  20411438.725    20411443.901
       239.000         214.000
  22597410.822    -2847273.22349  -2197296.74446  22597410.688    22597418.569
       219.000         168.000
  24755615.043    -6907676.45649  -5344488.89545  24755615.814    24755623.923
       206.000         141.000
  20759249.574   -17647648.13549 -13726762.84447  20759248.911    20759256.176
       240.000         207.000
  24504306.158     5818612.98749   4552138.18345  24504306.602    24504314.344
       212.000         144.000
 03  3 20 23 58  0.0000000  0 10G23G16G 6G17G 3G18G26G 2G15G29
  20769347.456    -7905262.05849  -6129909.02847  20769347.060    20769353.498
       242.000         212.000
  23635569.325    -5580190.75949  -4331768.67845  23635569.096    23635576.962
       217.000         159.000
  22717436.239    10938437.34149   8532465.52346  22717437.066    22717444.621
       223.000         172.000
  20878152.446    -3897102.58649  -3020279.55447  20878152.086    20878159.266
       241.000         209.000
  23570952.761    -5224528.73349  -4045537.95845  23570952.609    23570960.709
       213.000         156.000
  20409897.995   -15897593.16849 -12362821.46348  20409897.492    20409903.038
       239.000         214.000
  22610866.702    -2776561.55649  -2142196.76346  22610866.603    22610874.546
       220.000         168.000
  24756253.101    -6904323.87849  -5341876.50745  24756251.973    24756262.128
       205.000         141.000
  20752560.611   -17682798.79849 -13754152.95047  20752559.942    20752567.232
       240.000         207.000
  24520262.710     5902464.62849   4617477.07845  24520263.115    24520271.380
       211.000         145.000
 03  3 20 23 58 30.0000000  0 10G23G16G 6G17G 3G18G26G 2G15G29
  20774418.758    -7878612.17849  -6109142.87747  20774418.289    20774424.933
       242.000         212.000
  23643899.123    -5536417.75749  -4297659.83745  23643898.799    23643906.276
       215.000         159.000
  22736193.787    11037008.06249   8609273.80746  22736194.180    22736202.174
       223.000         172.000
  20880518.691    -3884668.03549  -3010590.29147  20880518.318    20880525.344
       242.000         209.000
  23553842.981    -5314440.60449  -4115599.08745  23553842.794    23553851.106
       212.000         157.000
  20408431.529   -15905299.19149 -12368826.13848  20408431.207    20408436.767
       239.000         214.000
  22624420.057    -2705337.88549  -2086697.81846  22624420.280    22624427.797
       219.000         167.000
  24756966.912    -6900572.90249  -5338953.65245  24756967.068    24756976.657
       207.000         142.000
  20745909.641   -17717749.76049 -13781387.43847  20745909.136    20745916.148
       241.000         207.000
  24536277.119     5986620.75649   4683053.24045  24536277.878    24536286.319
       209.000         144.000
 03  3 20 23 59  0.0000000  0 10G23G16G 6G17G 3G18G26G 2G15G29
  20779547.521    -7851660.25649  -6088141.37547  20779547.109    20779553.603
       242.000         212.000
  23652301.627    -5492262.21149  -4263252.92245  23652301.592    23652309.337
       215.000         159.000
  22754999.587    11135832.73049   8686279.99346  22754999.981    22755007.811
       222.000         172.000
  20882927.655    -3872009.14649  -3000726.21847  20882927.240    20882934.488
       242.000         209.000
  23536783.366    -5404088.79649  -4185454.74445  23536783.374    23536791.658
       213.000         157.000
  20407039.806   -15912612.71349 -12374524.96848  20407039.511    20407044.816
       239.000         214.000
  22638070.738    -2633603.31949  -2030800.75946  22638071.179    22638078.435
       220.000         167.000
  24757756.683    -6896423.18349  -5335720.11245  24757756.452    24757765.345
       207.000         142.000
  20739297.088   -17752499.06949 -13808464.79947  20739296.764    20739303.289
       241.000         208.000
  24552349.366     6071080.41949   4748865.90345  24552349.452    24552357.513
       209.000         145.000
